[[{"header":{"parameterUnit":"m.s-1","parameterCategory":1,"la1":30.6,"la2":29.2853,"lo1":-89.7004,"lo2":-87.6739,"dy":0.0162,"dx":0.0183,"nx":112,"ny":82,"refTime":"2023-06-05T00:00:00:Z","depth":0,"parameterNumber":2,"parameterNumberName":"U-component_of_WINDS"},"data":[0.0,0.0,0.0,0.0,0.0,0.0,0.0,0.0,0.0,0.0,0.0,0.0,0.0,0.0,0.0,0.0,0.0,0.0,0.0,0.0,0.0,0.0,0.0,0.0,0.0,0.0,0.0,0.0,0.0,0.0,0.0,0.0,0.0,0.0,0.0,0.0,0.0,0.0,0.0,0.0,0.0,0.0,0.0,0.0,0.0,0.0,0.0,0.0,0.0,0.0,0.0,0.0,0.0,0.0,0.0,0.0,0.0,0.0,0.0,0.0,0.0,0.0,0.0,0.0,0.0,0.0,0.0,0.0,0.0,0.0,0.0,0.0,0.0,0.0,0.0,0.0,0.0,0.0,0.0,0.0,0.0,0.0,0.0,0.0,0.0,0.0,0.0,0.0,0.0,0.0,2.0797,2.1072,2.109,2.0984,2.086,1.9728,1.8942,1.8826,0.0,0.0,0.0,0.0,0.0,0.0,0.0,0.0,0.0,0.0,0.0,0.0,0.0,0.0,0.0,0.0,0.0,0.0,0.0,0.0,0.0,0.0,0.0,0.0,0.0,0.0,0.0,0.0,0.0,0.0,0.0,0.0,0.0,0.0,0.0,0.0,0.0,0.0,0.0,0.0,0.0,0.0,0.0,0.0,0.0,0.0,0.0,0.0,0.0,0.0,0.0,0.0,0.0,0.0,0.0,0.0,0.0,0.0,0.0,0.0,0.0,0.0,0.0,0.0,0.0,0.0,0.0,0.0,0.0,0.0,0.0,0.0,0.0,0.0,0.0,0.0,0.0,0.0,0.0,0.0,0.0,0.0,0.0,0.0,0.0,0.0,0.0,0.0,0.0,0.0,0.0,0.0,0.0,0.0,0.0,0.0,0.0,0.0,0.0,0.0,0.0,0.0,0.0,0.0,1.9019,1.927,1.9147,1.9,1.8843,1.7881,1.7219,1.7086,0.0,0.0,0.0,0.0,0.0,0.0,0.0,0.0,0.0,0.0,0.0,0.0,0.0,0.0,0.0,0.0,0.0,0.0,0.0,0.0,0.0,0.0,0.0,0.0,0.0,0.0,0.0,0.0,0.0,0.0,0.0,0.0,0.0,0.0,0.0,0.0,0.0,0.0,0.0,0.0,0.0,0.0,0.0,0.0,0.0,0.0,0.0,0.0,0.0,0.0,0.0,0.0,0.0,0.0,0.0,0.0,0.0,0.0,0.0,0.0,0.0,0.0,0.0,0.0,0.0,0.0,0.0,0.0,0.0,0.0,0.0,0.0,0.0,0.0,0.0,0.0,0.0,0.0,0.0,0.0,0.0,0.0,0.0,0.0,0.0,0.0,0.0,0.0,0.0,0.0,0.0,0.0,0.0,0.0,0.0,0.0,0.0,0.0,0.0,0.0,0.0,0.0,0.0,1.6836,1.6779,1.7268,1.7159,1.7059,1.6892,1.603,1.544,1.541,1.49,0.0,0.0,0.0,0.0,0.0,0.0,0.0,0.0,0.0,0.0,0.0,0.0,0.0,0.0,0.0,0.0,0.0,0.0,0.0,0.0,0.0,0.0,0.0,0.0,0.0,0.0,0.0,0.0,0.0,0.0,0.0,0.0,0.0,0.0,0.0,0.0,0.0,0.0,0.0,0.0,0.0,0.0,0.0,0.0,0.0,0.0,0.0,0.0,0.0,0.0,0.0,0.0,0.0,0.0,0.0,0.0,0.0,0.0,0.0,0.0,0.0,0.0,0.0,0.0,0.0,0.0,0.0,0.0,0.0,0.0,0.0,0.0,0.0,0.0,0.0,0.0,0.0,0.0,0.0,0.0,0.0,0.0,0.0,0.0,0.0,0.0,0.0,0.0,0.0,0.0,0.0,0.0,0.0,0.0,0.0,0.0,0.0,0.0,0.0,0.0,0.0,0.0,1.4573,1.4522,1.5068,1.5071,1.4964,1.4906,1.4145,1.3679,1.3698,1.2473,0.0,0.0,0.0,0.0,0.0,0.0,0.0,0.0,0.0,0.0,0.0,0.0,0.0,0.0,0.0,0.0,0.0,0.0,0.0,0.0,0.0,0.0,0.0,0.0,0.0,0.0,0.0,0.0,0.0,0.0,0.0,0.0,0.0,0.0,0.0,0.0,0.0,0.0,0.0,0.0,0.0,0.0,0.0,0.0,0.0,0.0,0.0,0.0,0.0,0.0,0.0,0.0,0.0,0.0,0.0,0.0,0.0,0.0,0.0,0.0,0.0,0.0,0.0,0.0,0.0,0.0,0.0,0.0,0.0,0.0,0.0,0.0,0.0,0.0,0.0,0.0,0.0,0.0,0.0,0.0,0.0,0.0,0.0,0.0,0.0,0.0,0.0,0.0,0.0,0.0,0.0,0.0,0.0,0.0,0.0,0.0,0.0,0.0,0.0,0.0,0.0,0.0,1.2413,1.2299,1.253,1.2633,1.2708,1.2708,1.2184,1.1886,1.1894,1.0607,0.0,0.0,0.0,0.0,0.0,0.0,0.0,0.0,0.0,0.0,0.0,0.0,0.0,0.0,0.0,0.0,0.0,0.0,0.0,0.0,0.0,0.0,0.0,0.0,0.0,0.0,0.0,0.0,0.0,0.0,0.0,0.0,0.0,0.0,0.0,0.0,0.0,0.0,0.0,0.0,0.0,0.0,0.0,0.0,0.0,0.0,0.0,0.0,0.0,0.0,0.0,0.0,0.0,0.0,0.0,0.0,0.0,0.0,0.0,0.0,0.0,0.0,0.0,0.0,0.0,0.0,0.0,0.0,0.0,0.0,0.0,0.0,0.0,0.0,0.0,0.0,0.0,0.0,0.0,0.0,0.0,0.0,0.0,0.0,0.0,0.0,0.0,0.0,0.0,0.0,0.0,0.0,0.0,0.0,0.0,0.0,0.0,0.0,0.0,0.0,0.0,0.0,1.0665,1.0545,1.0678,1.0814,1.0926,1.0859,1.0514,1.0293,1.032,0.0,0.0,0.0,0.0,0.0,0.0,0.0,0.0,0.0,0.0,0.0,0.0,0.0,0.0,0.0,0.0,0.0,0.0,0.0,0.0,0.0,0.0,0.0,0.0,0.0,0.0,0.0,0.0,0.0,0.0,0.0,0.0,0.0,0.0,0.0,0.0,0.0,0.0,0.0,0.0,0.0,0.0,0.0,0.0,0.0,0.0,0.0,0.0,0.0,0.0,0.0,0.0,0.0,0.0,0.0,0.0,0.0,0.0,0.0,0.0,0.0,0.0,0.0,0.0,0.0,0.0,0.0,0.0,0.0,0.0,0.0,0.0,0.0,0.0,0.0,0.0,0.0,0.0,0.0,0.0,0.0,0.0,0.0,0.0,0.0,0.0,0.0,0.0,0.0,0.0,0.0,0.0,0.0,0.0,0.0,0.0,0.0,0.0,0.0,0.0,0.0,0.0,0.9228,0.8998,0.8871,0.8949,0.9149,0.9237,0.919,0.8974,0.8875,0.8915,0.0,0.0,0.0,0.0,0.0,0.0,0.0,0.0,0.0,0.0,0.0,0.0,0.0,0.0,0.0,0.0,0.0,0.0,0.0,0.0,0.0,0.0,0.0,0.0,0.0,0.0,0.0,0.0,0.0,0.0,0.0,0.0,0.0,0.0,0.0,0.0,0.0,0.0,0.0,0.0,0.0,0.0,0.0,0.0,0.0,0.0,0.0,0.0,0.0,0.0,0.0,0.0,0.0,0.0,0.0,0.0,0.0,0.0,0.0,0.0,0.0,0.0,0.0,0.0,0.0,0.0,0.0,0.0,0.0,0.0,0.0,0.0,0.0,0.0,0.0,0.0,0.0,0.0,0.0,0.0,0.0,0.0,0.0,0.0,0.0,0.0,0.0,0.0,0.0,0.0,0.0,0.0,0.0,0.0,0.0,0.0,0.0,0.0,0.0,0.0,0.0,0.0,0.7812,0.7465,0.728,0.7307,0.7516,0.7707,0.7702,0.7691,0.7671,0.0,0.0,0.0,0.0,0.0,0.0,0.0,0.0,0.0,0.0,0.0,0.0,0.0,0.0,0.0,0.0,0.0,0.0,0.0,0.0,0.0,0.0,0.0,0.0,0.0,0.0,0.0,0.0,0.0,0.0,0.0,0.0,0.0,0.0,0.0,0.0,0.0,0.0,0.0,0.0,0.0,0.0,0.0,0.0,0.0,0.0,0.0,0.0,0.0,0.0,0.0,0.0,0.0,0.0,0.0,0.0,0.0,0.0,0.0,0.0,0.0,0.0,0.0,0.0,0.0,0.0,0.0,0.0,0.0,0.0,0.0,0.0,0.0,0.0,0.0,0.0,0.0,0.0,0.0,0.0,0.0,0.0,0.0,0.0,0.0,0.0,0.0,0.0,0.0,0.0,0.0,0.0,0.0,0.0,0.0,0.0,0.0,0.0,0.0,0.0,0.0,0.0,0.0,0.6685,0.6524,0.6432,0.6433,0.6625,0.6815,0.6931,0.6809,0.678,0.6987,0.0,0.0,0.0,0.0,0.0,0.0,0.0,0.0,0.0,0.0,0.0,0.0,0.0,0.0,0.0,0.0,0.0,0.0,0.0,0.0,0.0,0.0,0.0,0.0,0.0,0.0,0.0,0.0,0.0,0.0,0.0,0.0,0.0,0.0,0.0,0.0,0.0,0.0,0.0,0.0,0.0,0.0,0.0,0.0,0.0,0.0,0.0,0.0,0.0,0.0,0.0,0.0,0.0,0.0,0.0,0.0,0.0,0.0,0.0,0.0,0.0,0.0,0.0,0.0,0.0,0.0,0.0,0.0,0.0,0.0,0.0,0.0,0.0,0.0,0.0,0.0,0.0,0.0,0.0,0.0,0.0,0.0,0.0,0.0,0.0,0.0,0.0,0.0,0.0,0.0,0.0,0.0,0.0,0.0,0.0,0.0,0.0,0.0,0.0,0.0,0.0,0.0,0.591,0.5747,0.574,0.5785,0.5959,0.6044,0.6193,0.6212,0.6276,0.6321,0.0,0.0,0.0,0.0,0.0,0.0,0.0,0.0,0.0,0.0,0.0,0.0,0.0,0.0,0.0,0.0,0.0,0.0,0.0,0.0,0.0,0.0,0.0,0.0,0.0,0.0,0.0,0.0,0.0,0.0,0.0,0.0,0.0,0.0,0.0,0.0,0.0,0.0,0.0,0.0,0.0,0.0,0.0,0.0,0.0,0.0,0.0,0.0,0.0,0.0,0.0,0.0,0.0,0.0,0.0,0.0,0.0,0.0,0.0,0.0,0.0,0.0,0.0,0.0,0.0,0.0,0.0,0.0,0.0,0.0,0.0,0.0,0.0,0.0,0.0,0.0,0.0,0.0,0.0,0.0,0.0,0.0,0.0,0.0,0.0,0.0,0.0,0.0,0.0,0.0,0.0,0.0,0.0,0.0,0.0,0.0,0.0,0.0,0.0,0.0,0.0,0.0,0.54,0.5175,0.5125,0.5345,0.5362,0.5425,0.5617,0.586,0.6005,0.5836,0.0,0.0,0.0,0.0,0.0,0.0,0.0,0.0,0.0,0.0,0.0,0.0,0.0,0.0,0.0,0.0,0.0,0.0,0.0,0.0,0.0,0.0,0.0,0.0,0.0,0.0,0.0,0.0,0.0,0.0,0.0,0.0,0.0,0.0,0.0,0.0,0.0,0.0,0.0,0.0,0.0,0.0,0.0,0.0,0.0,0.0,0.0,0.0,0.0,0.0,0.0,0.0,0.0,0.0,0.0,0.0,0.0,0.0,0.0,0.0,0.1803,0.0,0.0,0.0,0.0,0.0,0.0,0.0,0.0,0.0,0.0,0.0,0.0,0.0,0.0,0.0,0.0,0.0,0.0,0.0,0.0,0.0,0.0,0.0,0.0,0.0,0.0,0.0,0.0,0.0,0.0,0.0,0.0,0.0,0.0,0.0,0.0,0.0,0.0,0.0,0.0,0.0,0.5175,0.5055,0.5,0.514,0.5156,0.5286,0.555,0.5667,0.5755,0.5771,0.5856,0.0,0.0,0.0,0.0,0.0,0.0,0.0,0.0,0.0,0.0,0.0,0.0,0.0,0.0,0.0,0.0,0.0,0.0,0.0,0.0,0.0,0.0,0.0,0.0,0.0,0.0,0.0,0.0,0.0,0.0,0.0,0.0,0.0,0.0,0.0,0.0,0.0,0.0,0.0,0.0,0.0,0.0,0.0,0.0,0.0,0.0,0.0,0.0,0.0,0.0,0.0,0.0,0.0,0.0,0.0,0.0,0.0,0.0,0.0,0.0,0.1262,0.0,0.0,0.0,0.0,0.0,0.0,0.0,0.0,0.0,0.0,0.0,0.0,0.0,0.0,0.0,0.0,0.0,0.0,0.0,0.0,0.0,0.0,0.0,0.0,0.0,0.0,0.0,0.0,0.0,0.0,0.0,0.0,0.0,0.0,0.0,0.0,0.0,0.0,0.0,0.0,0.4858,0.4804,0.4849,0.5045,0.5114,0.5267,0.5606,0.5729,0.5773,0.5717,0.5843,0.0,0.0,0.0,0.0,0.0,0.0,0.0,0.0,0.0,0.0,0.0,0.0,0.0,0.0,0.0,0.0,0.0,0.0,0.0,0.0,0.0,0.0,0.0,0.0,0.0,0.0,0.0,0.0,0.0,0.0,0.0,0.0,0.0,0.0,0.0,0.0,0.0,0.0,0.0,0.0,0.0,0.0,0.0,0.0,0.0,0.0,0.0,0.0,0.0,0.0,0.0,0.0,0.0,0.2482,0.2186,0.1908,0.1516,0.1021,0.058,0.0797,0.0571,0.0063,-0.0251,0.0,0.0,0.0,0.0,0.0,0.0,0.0,0.0,0.0,0.0,0.0,0.0,0.0,0.0,0.0,0.0,0.0,0.0,0.0,0.0,0.0,0.0,0.0,0.0,-0.0824,-0.0,0.1459,0.0,0.0,0.0,0.0,0.0,0.0,0.0,0.0,0.0,0.0,0.0,0.4628,0.4707,0.4853,0.5126,0.5232,0.5318,0.5603,0.5935,0.5929,0.5594,0.594,0.594,0.0,0.0,0.0,0.0,0.0,0.0,0.0,0.0,0.0,0.0,0.0,0.0,0.0,0.0,0.0,0.0,0.0,0.0,0.0,0.0,0.0,0.0,0.0,0.0,0.0,0.0,0.0,0.0,0.0,0.0,0.0,0.0,0.8463,0.8077,0.0,0.0,0.0,0.0,0.0,0.0,0.0,0.0,0.0,0.0,0.0,0.0,0.0,0.4312,0.3777,0.3363,0.2868,0.2364,0.2241,0.1959,0.1523,0.08,0.0291,-0.0,-0.0431,0.0,-0.0482,-0.1142,0.0,0.0,0.0,0.0,0.0,0.0,0.0,0.0,0.0,0.0,0.0,0.0,0.0,0.0,0.0,0.0,0.0,0.0,0.0,0.0,0.0,0.0,-0.2743,-0.2263,-0.1615,-0.0928,0.0,0.1192,0.2461,0.3315,0.3931,0.0,0.0,0.0,0.0,0.0,0.0,0.0,0.4688,0.4968,0.5129,0.52,0.5362,0.5464,0.5603,0.5935,0.5929,0.5594,0.5994,0.601,0.5592,0.5413,0.0,0.0,0.0,0.0,0.0,0.0,0.0,0.0,0.0,0.0,0.0,0.0,0.0,0.0,0.0,0.0,0.0,0.0,0.0,0.0,0.0,0.0,0.0,0.0,0.0,0.0,0.0,0.0,0.0,0.8652,0.8404,0.7949,0.7858,0.7706,0.0,0.0,0.0,0.0,0.0,0.0,0.0,0.0,0.0,0.4624,0.426,0.381,0.3201,0.2847,0.2508,0.2054,0.1955,0.1426,0.0555,0.0238,-0.0396,-0.1108,-0.1346,-0.1562,-0.1673,-0.2019,-0.2169,-0.2213,0.0,0.0,0.0,0.0,-0.3391,-0.3664,-0.4001,-0.4139,-0.4206,-0.4408,0.0,0.0,0.0,0.0,0.0,0.0,0.0,0.0,0.0,0.0,-0.3174,-0.2787,-0.2312,-0.1675,-0.0801,0.0141,0.1154,0.0,0.3252,0.3797,0.4204,0.0,0.0,0.0,0.0,0.4868,0.4782,0.5041,0.5191,0.5344,0.556,0.5774,0.585,0.5976,0.6037,0.5866,0.6004,0.5972,0.5778,0.5592,0.5309,0.0,0.0,0.0,0.0,0.0,0.0,0.0,0.0,0.0,0.0,0.0,0.0,0.0,0.0,0.0,0.0,0.0,0.0,0.0,0.0,0.0,0.0,0.0,0.0,0.0,0.0,0.0,0.0,0.8586,0.844,0.7967,0.7963,0.7814,0.0,0.0,0.0,0.0,0.0,0.0,0.5607,0.5092,0.4664,0.4259,0.3841,0.3328,0.2726,0.2511,0.2158,0.1841,0.1407,0.0757,-0.0084,-0.0421,-0.1009,-0.1934,-0.2018,-0.2332,-0.2613,-0.2543,-0.2533,-0.2573,-0.2866,-0.3147,-0.3489,-0.3708,-0.4,-0.4292,-0.4726,-0.4867,-0.487,-0.5228,-0.53,-0.53,-0.53,0.0,0.0,0.0,0.0,-0.4798,-0.4726,-0.4237,-0.3745,-0.3235,-0.2881,-0.2301,-0.1412,-0.0743,0.0148,0.0,0.2619,0.3274,0.3713,0.0,0.0,0.0,0.0,0.4846,0.4848,0.5024,0.5252,0.5484,0.5726,0.596,0.5966,0.6075,0.6144,0.6015,0.5973,0.5934,0.5904,0.566,0.5364,0.5057,0.0,0.0,0.0,0.0,0.0,0.0,0.0,0.0,0.0,0.0,0.0,0.0,0.0,0.0,0.0,0.0,0.0,0.0,0.0,0.0,0.0,0.0,0.0,0.0,0.0,0.0,0.0,0.0,0.0,0.8321,0.7809,0.0,0.0,0.0,0.0,0.6324,0.598,0.5692,0.5327,0.4844,0.4487,0.411,0.3626,0.3088,0.259,0.2344,0.2011,0.1676,0.0504,-0.0,-0.0168,-0.1261,-0.1849,-0.1934,-0.2439,-0.2691,-0.2683,-0.2616,-0.2756,-0.3022,-0.3394,-0.3567,-0.3561,-0.4362,-0.4654,-0.4726,-0.5156,-0.5303,-0.53,-0.53,-0.53,-0.53,-0.53,-0.53,0.0,0.0,-0.53,-0.5156,-0.4795,-0.4738,-0.4525,-0.377,-0.3301,-0.2887,-0.2187,-0.1407,-0.0386,0.0,0.1893,0.262,0.306,0.0,0.3855,0.4295,0.4456,0.4595,0.475,0.5081,0.5389,0.5547,0.5783,0.596,0.5966,0.6165,0.6179,0.5804,0.5986,0.6037,0.5899,0.5601,0.537,0.537,0.4815,0.0,0.0,0.0,0.0,0.0,0.0,0.0,0.0,0.0,0.0,0.0,0.0,0.0,0.0,0.0,0.0,0.0,0.0,0.0,0.0,0.0,0.0,0.0,0.0,0.0,0.0,0.0,0.0,0.7919,0.7721,0.0,0.7123,0.6813,0.6441,0.5999,0.572,0.5361,0.4849,0.4408,0.395,0.3399,0.3013,0.2607,0.2018,0.162,0.1117,0.0516,0.0174,-0.0439,-0.1316,-0.1666,-0.2105,-0.2541,-0.2716,-0.3044,-0.3433,-0.3574,-0.3665,-0.373,-0.3968,-0.4348,-0.4793,-0.5034,-0.5351,-0.5671,-0.6064,-0.6222,-0.6208,-0.6419,-0.6465,-0.6447,-0.6345,-0.6314,-0.6314,-0.6167,-0.6086,-0.6002,-0.5774,-0.5404,-0.5017,-0.4451,-0.3995,-0.3527,-0.2709,-0.1888,-0.1143,-0.0401,0.0781,0.1912,0.26,0.3132,0.3589,0.3897,0.4385,0.464,0.4717,0.506,0.5398,0.5559,0.5789,0.5999,0.6183,0.616,0.6089,0.6026,0.5916,0.5851,0.5717,0.5583,0.5369,0.5107,0.4772,0.4391,0.0,0.0,0.0,0.0,0.0,0.0,0.0,0.0,0.0,0.0,0.0,0.0,0.0,0.0,0.0,0.0,0.0,0.0,0.0,0.0,0.0,0.0,0.0,0.0,0.0,0.8628,0.8394,0.7862,0.7695,0.7392,0.6997,0.6652,0.6213,0.5677,0.5283,0.4889,0.4493,0.3908,0.341,0.3004,0.2579,0.2064,0.1461,0.0959,0.0351,-0.0264,-0.0535,-0.1076,-0.1885,-0.2153,-0.251,-0.2956,-0.3136,-0.3558,-0.3949,-0.4299,-0.4437,-0.463,-0.4727,-0.5035,-0.5452,-0.5618,-0.5951,-0.637,-0.6785,-0.695,-0.6933,-0.7152,-0.72,-0.7178,-0.7066,-0.7032,-0.7036,-0.6878,-0.6795,-0.663,-0.639,-0.5967,-0.5452,-0.5035,-0.4536,-0.395,-0.311,-0.2522,-0.185,-0.126,0.0082,0.1367,0.2008,0.265,0.3291,0.3692,0.4174,0.4574,0.4736,0.5018,0.5308,0.5623,0.5736,0.5944,0.6261,0.6166,0.6119,0.604,0.588,0.5747,0.5683,0.5503,0.5289,0.509,0.4704,0.4223,0.3661,0.0,0.0,0.0,0.0,0.0,0.0,0.0,0.0,0.0,0.0,0.0,0.0,0.0,0.0,0.0,0.0,0.0,0.0,0.0,0.0,0.0,0.0,0.0,0.8905,0.8727,0.8543,0.8277,0.7718,0.7317,0.6994,0.6529,0.6034,0.5288,0.4878,0.442,0.4078,0.3393,0.2987,0.2871,0.2247,0.1618,0.1077,0.0359,-0.0179,-0.0538,-0.1436,-0.1885,-0.1973,-0.2599,-0.2867,-0.2957,-0.3587,-0.4034,-0.43,-0.4659,-0.5102,-0.5697,-0.5469,-0.5466,-0.5546,-0.621,-0.6542,-0.6798,-0.73,-0.7465,-0.7465,-0.7462,-0.7458,-0.7458,-0.7454,-0.745,-0.745,-0.745,-0.7281,-0.7033,-0.6788,-0.6376,-0.5963,-0.5546,-0.4962,-0.429,-0.3535,-0.3117,-0.2529,-0.16,-0.0252,0.0841,0.1261,0.2018,0.2775,0.3446,0.3783,0.0,0.4873,0.4861,0.5033,0.5749,0.5717,0.5799,0.6261,0.6338,0.6196,0.6037,0.5888,0.581,0.5793,0.5363,0.5205,0.5392,0.461,0.3934,0.3417,0.0,0.0,0.0,0.0,0.0,0.0,0.0,0.0,0.0,0.0,0.0,0.0,0.0,0.0,0.0,0.0,0.0,0.0,0.0,0.0,0.0,0.9811,0.9491,0.8764,0.8486,0.82,0.7693,0.7311,0.6926,0.6516,0.6036,0.5411,0.4727,0.4513,0.4062,0.3269,0.3042,0.2796,0.2251,0.2064,0.1397,0.0275,-0.0367,-0.1002,-0.1525,-0.1885,-0.2332,-0.2599,-0.2778,-0.3136,-0.3676,-0.4034,-0.4302,-0.4659,-0.5191,-0.5544,-0.5714,-0.5648,-0.5973,-0.6415,-0.6757,-0.7277,-0.7801,-0.7974,-0.8237,-0.8476,-0.834,-0.8379,-0.8522,-0.8391,-0.8275,-0.8111,-0.7938,-0.7784,-0.7628,-0.72,-0.6939,-0.6673,-0.6066,-0.5627,-0.5097,-0.4224,-0.3699,-0.3174,-0.2293,-0.1234,-0.0174,0.076,0.1597,0.2354,0.3023,0.3613,0.0,0.4703,0.4846,0.5125,0.5758,0.5796,0.5896,0.6271,0.6338,0.627,0.6183,0.6205,0.614,0.6084,0.5845,0.5554,0.5198,0.4639,0.415,0.0,0.0,0.0,0.0,0.0,0.0,0.0,0.0,0.0,0.0,0.0,0.0,0.0,0.0,0.0,0.0,0.0,0.0,0.0,0.0,0.0,0.0,0.9871,0.9469,0.8625,0.8376,0.8117,0.7472,0.7091,0.6557,0.6105,0.5534,0.4987,0.4455,0.4043,0.3557,0.2996,0.2746,0.2384,0.2004,0.1431,0.0664,-0.0281,-0.1022,-0.1656,-0.2,-0.2342,-0.2601,-0.2867,-0.3227,-0.3585,-0.4125,-0.4391,-0.4659,-0.5015,-0.5544,-0.5808,0.0,0.0,0.0,0.0,0.0,-0.7933,-0.8372,-0.8464,-0.8732,-0.9065,-0.8953,-0.9,-0.9064,-0.8958,-0.8839,-0.8759,-0.8501,-0.8321,-0.8143,-0.7793,-0.7428,-0.6962,-0.6612,-0.6077,-0.5453,-0.4743,-0.4119,-0.3496,-0.278,-0.1973,0.0,-0.0087,0.095,0.1901,0.2678,0.3283,0.3886,0.4577,0.4799,0.5168,0.5927,0.5897,0.5959,0.6438,0.645,0.0,0.0,0.0,0.6332,0.6084,0.5928,0.0,0.0,0.0,0.4294,0.3872,0.0,0.0,0.0,0.0843,0.0102,0.0,0.0,0.0,0.0,0.0,0.0,0.0,0.0,0.0,0.0,0.0,0.0,0.0,0.0,0.0,0.0,0.9617,0.9034,0.8484,0.828,0.8,0.7477,0.6843,0.6219,0.5641,0.502,0.4526,0.4264,0.3496,0.2963,0.2868,0.0,0.0,0.0,0.0,-0.0383,-0.0765,-0.1692,-0.2234,-0.2321,-0.2726,-0.3057,-0.3057,-0.368,-0.4123,-0.4389,-0.4659,-0.5015,-0.546,-0.5722,-0.6074,-0.652,-0.6792,-0.7058,-0.7316,-0.8025,-0.8372,-0.864,-0.8907,0.0,0.0,-0.9349,-0.9345,-0.9349,-0.9349,-0.9345,-0.9257,-0.9087,-0.8819,-0.8548,-0.8285,-0.7757,-0.7139,-0.7139,-0.6432,-0.563,-0.5188,-0.4474,-0.376,-0.3047,-0.242,-0.1794,-0.1076,0.0269,0.1615,0.2334,0.2869,0.3585,0.4572,0.4761,0.5221,0.6067,0.0,0.0,0.6725,0.6749,0.6736,0.6942,0.6791,0.6496,0.6062,0.5964,0.5741,0.5186,0.4861,0.4414,0.3974,0.3345,0.266,0.1978,0.0962,0.0106,0.0,0.0,0.0,0.0,0.0,0.0,0.0,0.0,0.0,0.0,0.0,0.0,0.0,0.0,0.0,1.0396,0.9868,0.9384,0.883,0.815,0.7528,0.709,0.6328,0.5644,0.5218,0.4789,0.4092,0.3311,0.3184,0.283,0.2246,0.2182,0.1599,0.04,-0.03,-0.0992,-0.1759,-0.282,-0.3178,-0.2937,0.0,0.0,-0.4131,-0.4152,-0.4476,-0.4921,-0.5193,-0.5369,-0.563,-0.6077,-0.67,-0.7326,-0.7326,-0.7588,-0.8021,-0.8372,-0.864,-0.8907,-0.9174,-0.9345,-0.9515,-0.9515,-0.9689,-0.9864,-0.9864,-0.9694,0.0,-0.9519,-0.917,-0.8819,-0.8552,-0.8113,-0.7676,-0.7231,-0.6697,-0.6077,-0.5458,-0.4926,-0.43,-0.3317,-0.269,-0.2064,-0.1166,0.0179,0.1256,0.1885,0.269,0.3585,0.4572,0.4999,0.5481,0.6165,0.6534,0.6742,0.6823,0.6929,0.701,0.7111,0.7096,0.697,0.6826,0.6471,0.6098,0.577,0.5287,0.4745,0.4219,0.3482,0.2746,0.2107,0.1042,0.0177,0.0,0.0,0.0,0.0,0.0,0.0,0.0,0.0,0.0,0.0,0.0,1.1825,1.1169,0.0,1.0645,1.0082,0.9587,0.9002,0.832,0.7565,0.7024,0.6682,0.6008,0.5385,0.4798,0.4235,0.3731,0.3093,0.2758,0.249,0.2093,0.1508,0.0606,-0.0404,-0.1111,-0.2011,-0.2989,-0.3255,-0.3416,-0.3479,-0.398,-0.4317,-0.4502,-0.4732,-0.5078,-0.5537,-0.5723,-0.5996,-0.6356,-0.6744,-0.721,-0.768,-0.7852,-0.8028,-0.8288,-0.864,-0.8907,-0.9174,-0.9345,-0.9607,-0.9777,-0.9777,-0.9864,-1.0038,-1.0038,-0.9864,-0.9777,-0.9602,-0.9345,-0.9087,-0.8819,-0.8376,-0.794,-0.7584,-0.7054,-0.6435,-0.5905,-0.5193,-0.448,-0.3673,-0.2959,-0.2244,-0.1705,-0.0448,0.0807,0.1794,0.2599,0.3405,0.4391,0.5015,0.5614,0.6256,0.6624,0.6953,0.721,0.7373,0.7442,0.7346,0.7327,0.7238,0.6998,0.6691,0.6353,0.5983,0.5409,0.4917,0.4379,0.365,0.2871,0.2108,-0.0446,-0.1178,0.0,0.0,0.0,0.0,0.0,0.0,0.0,1.367,1.338,1.2555,1.2262,1.1999,1.1313,1.0825,1.0297,0.9785,0.9206,0.8628,0.7662,0.7058,0.6602,0.6163,0.5652,0.509,0.4366,0.3748,0.3244,0.296,0.2504,0.2123,0.1819,0.0505,-0.0404,-0.101,-0.2021,-0.293,-0.3636,-0.348,-0.3647,-0.4037,-0.4542,-0.4791,-0.4979,-0.5339,-0.5803,-0.6275,-0.6367,-0.6649,-0.702,-0.7434,-0.7753,-0.8078,-0.8212,-0.8288,-0.8376,-0.8823,-0.9174,-0.9345,-0.9602,-0.9777,-1.0038,-1.0038,-1.0038,-1.0038,-1.0038,-1.0038,-0.9951,-0.9777,-0.9519,-0.9262,-0.9087,-0.8644,-0.8201,-0.794,-0.7323,-0.6704,-0.6171,-0.546,-0.4659,-0.4119,-0.3227,-0.2512,-0.2243,-0.1076,0.0269,0.1705,0.251,0.3226,0.4208,0.5013,0.5725,0.634,0.6776,0.73,0.7692,0.7827,0.7732,0.7549,0.7537,0.7456,0.7127,0.6824,0.6522,0.6219,0.563,0.5054,0.4577,0.3879,0.2776,0.1344,-0.2228,-0.2995,1.9927,1.8572,1.7401,1.7032,1.6386,1.5715,0.0,1.4719,1.4016,1.3084,1.2626,1.2107,1.1352,1.098,1.0594,0.9988,0.9326,0.8618,0.7906,0.7048,0.6163,0.5275,0.4924,0.456,0.3882,0.3388,0.2867,0.2314,0.2221,0.1617,0.0303,-0.0404,-0.1111,-0.2022,-0.3031,-0.3536,-0.323,-0.4124,-0.462,-0.4718,-0.5223,-0.5664,-0.6147,-0.604,-0.6275,-0.6841,-0.7211,-0.749,-0.7573,-0.789,-0.8182,-0.8419,-0.8524,-0.864,-0.8823,-0.9174,-0.9345,-0.9602,-0.9864,-0.9951,-1.0038,-1.0038,-1.0038,-1.0038,-1.0038,-1.0038,-0.9951,-0.9951,-0.9777,-0.9519,-0.9345,-0.8903,-0.846,-0.8028,-0.7499,-0.6877,-0.626,-0.5727,-0.5104,-0.4389,-0.3673,-0.2869,-0.2063,-0.1345,-0.0179,0.1884,0.2599,0.3226,0.4208,0.5099,0.5897,0.634,0.7217,0.7941,0.8215,0.8101,0.791,0.774,0.7728,0.7646,0.746,0.7226,0.692,0.653,0.6,0.5488,0.4925,0.4128,0.1975,-0.1412,-0.3563,-0.4434,2.0135,1.9102,1.8167,1.7478,1.6735,1.6046,1.5386,1.4887,1.4242,1.3279,1.277,1.2263,1.1309,1.0775,1.0215,0.9466,0.87,0.7933,0.7126,0.6432,0.5636,0.4743,0.4332,0.3868,0.333,0.3233,0.2904,0.2223,0.1415,0.0606,-0.0,-0.101,-0.2021,-0.2727,-0.3232,-0.3633,-0.4133,-0.4533,-0.5035,-0.5539,-0.5892,-0.627,-0.6566,-0.6706,-0.7073,-0.7563,-0.7945,-0.8086,-0.8193,-0.8506,-0.8644,-0.8725,-0.8914,-0.9084,-0.9345,-0.9432,-0.9515,-0.9602,-0.9951,-1.0125,-1.0207,-1.0207,-1.0299,-1.0381,-1.0207,-1.0207,-1.012,-1.0038,-0.9777,-0.9519,-0.9345,-0.8995,-0.8644,-0.8032,-0.7584,-0.7139,-0.6432,-0.5899,-0.5366,-0.4659,-0.3942,-0.3138,-0.2333,-0.1525,-0.0448,0.1256,0.2153,0.2959,0.3939,0.4921,0.5991,0.7143,0.7676,0.8051,0.8304,0.8299,0.8263,0.7918,0.7973,0.7882,0.7646,0.739,0.7069,0.6764,0.6311,0.4683,0.1889,0.1234,-0.1204,-0.5447,-0.8327,-0.9773,2.0191,1.9346,1.8577,1.7781,1.7066,1.6336,1.553,1.5036,1.4399,1.3487,1.2811,1.215,1.1186,1.0478,0.9746,0.891,0.8183,0.7432,0.6502,0.5897,0.5191,0.421,0.3798,0.3414,0.2762,0.2864,0.2526,0.1617,0.0505,-0.0303,-0.0606,-0.192,-0.2828,-0.323,-0.3531,-0.4033,-0.4834,-0.5135,-0.5536,-0.6139,-0.6437,-0.6839,-0.7141,-0.7437,-0.7836,-0.8233,-0.8531,-0.8667,-0.8754,-0.9087,-0.9079,-0.898,-0.9293,-0.9513,-0.9602,-0.9689,-0.9689,-0.9777,-0.9951,-1.0125,-1.0294,-1.0294,-1.0467,-1.0641,-1.0467,-1.0381,-1.0294,-1.0125,-0.9864,-0.9689,-0.9345,-0.9174,-0.8823,-0.8116,-0.776,-0.7404,-0.6697,-0.6166,-0.5633,-0.4926,-0.4212,-0.3496,-0.2781,-0.1884,-0.0807,0.0448,0.1436,0.2511,0.3673,0.4835,0.6171,0.7676,0.7852,0.807,0.8459,0.8618,0.8535,0.8263,0.8294,0.8176,0.7923,0.763,0.6813,0.5487,0.5027,0.2731,-0.1613,-0.2196,-0.466,-0.8978,-1.1744,-1.3667,2.0077,1.9168,1.8369,1.813,1.7399,1.6654,1.6157,1.5463,1.4609,1.3688,1.2746,1.1781,1.0962,1.0187,0.9409,0.8728,0.8086,0.7318,0.6498,0.5622,0.4648,0.3764,0.3588,0.3105,0.2096,0.2174,0.1617,0.0202,-0.0505,-0.1212,-0.2123,-0.3132,-0.3536,-0.323,-0.4234,-0.4734,-0.4834,-0.5834,-0.6337,-0.6437,-0.6939,-0.7437,-0.7939,-0.8528,-0.8726,-0.8825,-0.9031,-0.9133,-0.9213,-0.9618,-0.9626,-0.9435,-0.9717,-0.9785,-0.9602,-0.9864,-0.9951,-0.9951,-1.0038,-1.0125,-1.0294,-1.0294,-1.0467,-1.0727,-1.0727,-1.0467,-1.0294,-1.0294,-1.012,-0.9864,-0.9437,-0.9262,-0.9082,-0.8376,-0.8025,-0.768,-0.6969,-0.6438,-0.5902,-0.5099,-0.4385,-0.376,-0.3226,-0.2422,-0.1525,-0.0538,0.0628,0.1973,0.3408,0.5013,0.6435,0.7401,0.776,0.8204,0.8815,0.8903,0.8905,0.8963,0.8945,0.8695,0.8087,0.8066,0.6081,0.1821,0.1437,-0.0826,-0.4927,-0.5522,-0.7762,-1.1506,-1.2116,-1.4343,2.0469,1.9794,1.904,1.84,1.7639,1.6862,1.6088,1.5196,1.4266,1.3484,1.2526,1.1558,1.0738,0.9956,0.9166,0.8483,0.7494,0.6624,0.5885,0.5008,0.4208,0.323,0.3151,0.257,0.106,0.1092,0.0808,-0.0404,-0.1313,-0.2021,-0.2828,-0.3232,-0.3635,-0.3935,-0.4535,-0.5135,-0.5837,-0.6237,-0.6736,-0.7437,-0.8031,-0.8329,-0.8531,-0.8726,-0.9027,-0.9327,-0.943,-0.9628,-1.0015,-1.0147,-1.0123,-0.9921,-1.0039,-0.9989,-0.9864,-0.9951,-1.0125,-1.0207,-1.0207,-1.0381,-1.0554,-1.0738,-1.0916,-1.1084,-1.0916,-1.0738,-1.0554,-1.0381,-1.0125,-0.9951,-0.9602,-0.9432,-0.917,-0.8636,-0.8201,-0.7764,-0.7143,-0.6612,-0.6166,-0.5542,-0.4921,-0.421,-0.3587,-0.2781,-0.1615,0.0269,0.1703,0.3045,0.4206,0.5366,0.6435,0.7401,0.7845,0.8292,0.8823,0.917,0.8115,0.5104,0.5022,0.359,0.0408,0.0238,-0.0543,-0.2151,-0.2339,-0.4469,-0.8558,-0.913,-1.1443,-1.5343,-1.5898,-1.6703,2.0728,2.0052,1.933,1.8519,1.7638,1.6742,1.5912,1.4911,1.4027,1.3122,1.2231,1.1304,1.0319,0.9525,0.8737,0.7975,0.6989,0.6034,0.5292,0.4545,0.3776,0.2994,0.2524,0.1629,0.0097,-0.0199,-0.0606,-0.1212,-0.2223,-0.293,-0.323,-0.3531,-0.4034,-0.4537,-0.5037,-0.5737,-0.6437,-0.6736,-0.7434,-0.8333,-0.8829,-0.9126,-0.9126,-0.932,-0.9521,-0.992,-0.992,-1.0117,-1.0413,-1.0507,-1.0372,-1.0204,-1.0297,-1.0229,-1.012,-1.012,-1.0207,-1.0467,-1.0294,-1.0559,-1.0824,-1.0921,-1.1181,-1.1267,-1.1181,-1.1003,-1.0733,-1.0467,-1.0294,-1.0038,-0.9689,-0.9432,-0.917,-0.8815,-0.8292,-0.7764,-0.7316,-0.6786,-0.6251,-0.5808,-0.5191,-0.448,-0.3853,-0.278,-0.1436,0.0538,0.1883,0.3136,0.4293,0.5277,0.6257,0.7228,0.7845,0.7819,0.688,0.7222,0.5589,0.1206,0.1019,-0.0335,-0.34,-0.3523,-0.4297,-0.5889,-0.5969,-0.797,-1.2134,-1.255,-1.4285,-1.7107,-1.752,-1.7716,2.0722,1.9955,1.91,1.8422,1.7413,1.6385,1.5613,1.4744,1.3784,1.2692,1.1847,1.0917,0.9717,0.8837,0.8069,0.7232,0.643,0.5572,0.4834,0.4064,0.3345,0.2866,0.1601,0.0384,-0.0785,-0.17,-0.2325,-0.2224,-0.3233,-0.3635,-0.3331,-0.4234,-0.4834,-0.4834,-0.5934,-0.6437,-0.6437,-0.7537,-0.8333,-0.8825,-0.9426,-0.9628,-0.9628,-1.0216,-1.0413,-1.0408,-1.0413,-1.0413,-1.0511,-1.0703,-1.0669,-1.0311,-1.0575,-1.05,-1.0309,-1.0299,-1.0467,-1.0641,-1.0381,-1.0651,-1.1008,-1.1008,-1.1181,-1.1262,-1.1262,-1.1181,-1.0921,-1.0733,-1.0467,-1.0207,-0.9777,-0.9519,-0.9262,-0.8999,-0.838,-0.7852,-0.758,-0.6959,-0.634,-0.5808,-0.5191,-0.448,-0.3939,-0.2509,-0.0987,0.0179,0.1166,0.2331,0.3671,0.4743,0.5813,0.6962,0.757,0.6533,0.3214,0.3125,0.1465,-0.2729,-0.2821,-0.3054,-0.3824,-0.3655,-0.5393,-0.9504,-0.9416,-1.1414,-1.5426,-1.5655,-1.6149,-1.6839,-1.7097,-1.7373,2.0053,1.9274,1.8556,1.7833,1.7005,1.6104,1.512,1.4202,1.3145,1.2006,1.1045,1.0089,0.9101,0.8403,0.7714,0.6976,0.6034,0.5155,0.4407,0.38,0.2897,0.1672,0.0655,-0.0287,-0.1099,-0.2518,-0.3332,-0.3228,-0.353,-0.3831,-0.4332,-0.5035,-0.5534,-0.5934,-0.6637,-0.7238,-0.7537,-0.8634,-0.9229,-0.9426,-0.992,-1.0216,-1.0216,-1.0314,-1.0507,-1.0703,-1.09,-1.1096,-1.1292,-1.1585,-1.153,-1.1268,-1.1189,-1.096,-1.079,-1.0614,-1.0733,-1.0916,-1.0829,-1.0916,-1.1008,-1.1181,-1.1262,-1.1262,-1.1262,-1.1181,-1.1008,-1.0916,-1.0651,-1.0294,-1.012,-0.9864,-0.9432,-0.9262,-0.8815,-0.8288,-0.7852,-0.7319,-0.6786,-0.634,-0.5369,-0.4391,-0.3494,-0.251,-0.1525,-0.0718,0.0448,0.1793,0.3496,0.4656,0.5813,0.6779,0.502,0.3578,0.3131,0.069,-0.257,-0.6691,-0.6871,-0.8328,-1.1617,-1.1611,-1.2004,-1.3108,-1.3181,-1.3742,-1.4856,-1.5513,-1.5876,-1.6079,-1.6542,-1.689,1.9767,1.9081,1.8299,1.752,1.6578,1.5566,1.4559,1.3477,1.2434,1.1275,1.0492,0.9599,0.8443,0.7829,0.7147,0.6349,0.5398,0.4529,0.3831,0.3401,0.2509,0.0926,-0.0,-0.0961,-0.2081,-0.3108,-0.3833,-0.4131,-0.4131,-0.4433,-0.5135,-0.5634,-0.6237,-0.6736,-0.7238,-0.7939,-0.8733,-0.9426,-0.9821,-0.992,-1.0511,-1.0703,-1.0801,-1.0998,-1.1194,-1.1296,0.0,-1.1683,-1.178,-1.198,-1.1854,-1.1637,-1.1399,-1.1268,-1.1138,-1.0907,-1.1003,-1.1094,-1.1094,-1.1094,-1.1181,-1.1262,-1.1262,-1.1262,-1.1262,-1.1181,-1.1094,-1.1008,-1.0829,-1.0559,-1.0381,-1.0038,-0.9689,-0.9345,-0.8903,-0.846,-0.8028,-0.7496,-0.6874,-0.6254,-0.5369,-0.4391,-0.3496,-0.278,-0.2062,-0.1166,-0.009,0.1076,0.2422,0.3851,0.5186,0.6517,0.3957,0.1741,0.0693,-0.2582,-0.6367,-1.0588,-1.0773,-1.1843,-1.4475,-1.4226,-1.4137,-1.4372,-1.4193,-1.4281,-1.4569,-1.5078,-1.5434,-1.5655,-1.6061,-1.6342,1.9626,1.8946,1.8174,1.7222,1.6109,1.4933,1.3917,1.2764,1.1608,1.0549,0.9922,0.9181,0.7812,0.7181,0.6504,0.5451,0.4688,0.398,0.3338,0.2828,0.2032,0.0552,-0.0665,-0.1841,-0.3125,-0.3584,-0.413,-0.4933,-0.5033,-0.5233,-0.5636,-0.6234,-0.6936,-0.7537,-0.7939,-0.8733,-0.9723,-1.0019,-1.0314,-1.0609,-1.1096,-1.1292,-1.1292,-1.178,-1.198,-1.2078,-1.2078,-1.2078,-1.2175,-1.2175,-1.2062,-1.1867,-1.1595,-1.1556,-1.1536,-1.1276,-1.1267,-1.1348,-1.1348,-1.1348,-1.1354,-1.1348,-1.1348,-1.1354,-1.1354,-1.1354,-1.1354,-1.1181,-1.1008,-1.0916,-1.0472,-1.0212,-0.9951,-0.9519,-0.899,-0.8548,-0.8028,-0.7408,-0.6786,-0.5899,-0.5191,-0.448,-0.3855,-0.3315,-0.2598,-0.1524,-0.0628,0.0179,0.1076,0.2686,0.4291,0.5534,0.3613,0.0697,-0.2855,-0.6227,-0.9743,-1.3639,-1.3652,-1.373,-1.423,-1.3655,-1.366,-1.4223,-1.3672,-1.3775,-1.4425,-1.4497,-1.4856,-1.5355,-1.5584,-1.5797,1.8818,1.8124,1.7357,1.63,1.534,1.4312,1.2977,1.1933,1.0924,0.9725,0.8986,0.8213,0.724,0.6477,0.5791,0.5,0.4178,0.3425,0.3093,0.2057,0.0883,-0.0184,-0.1776,-0.297,-0.3397,-0.4123,-0.4931,-0.5722,-0.6226,-0.6431,-0.6237,-0.7238,-0.8134,-0.913,-0.9229,-0.9723,-1.0605,-1.0904,-1.1096,-1.1389,-1.1683,-1.1878,-1.1878,-1.198,-1.2078,-1.237,-1.2565,0.0,-1.2953,-1.3147,-1.3227,-1.3143,-1.2685,-1.2575,-1.2485,-1.2034,-1.1871,-1.1866,-1.1866,-1.1866,-1.178,-1.1435,-1.144,-1.1613,-1.1613,-1.1613,-1.1613,-1.1613,-1.1267,-1.1008,-1.0916,-1.0564,-1.0207,-0.9951,-0.9519,-0.8995,-0.8288,-0.7316,-0.6432,-0.608,-0.5455,-0.4743,-0.43,-0.3583,-0.3047,-0.2689,-0.1613,-0.0718,-0.0269,0.1702,0.2772,0.2047,0.1934,0.0087,-0.4452,-0.9095,-1.2054,-1.2619,-1.279,-1.3045,-1.3307,-1.2932,-1.2876,-1.3365,-1.3147,-1.3193,-1.371,-1.3992,-1.4346,-1.4784,-1.4935,-1.5371,1.7883,1.7174,1.6326,1.5336,1.428,1.3212,1.2093,1.1006,1.0015,0.9081,0.8301,0.7587,0.6666,0.5804,0.5011,0.431,0.3634,0.2948,0.2179,0.1086,-0.0,-0.0892,-0.2473,-0.368,-0.391,-0.4831,-0.5657,-0.641,-0.7027,-0.7335,-0.7238,-0.8237,-0.9229,-1.0019,-1.0314,-1.0703,-1.1194,-1.1487,-1.178,-1.198,-1.2273,-1.2467,-1.2565,-1.2759,-1.2856,-1.2953,-1.3152,-1.3249,-1.3346,-1.3443,-1.3539,-1.3488,-1.298,-1.278,-1.2723,-1.2226,-1.2043,-1.2043,-1.2043,-1.2043,-1.1957,-1.1699,-1.1785,-1.1871,-1.1871,-1.1871,-1.1871,-1.1871,-1.1613,-1.1354,-1.117,-1.0814,-1.0381,-1.0038,-0.9428,-0.8727,-0.8201,-0.7408,-0.6697,-0.6343,-0.5811,-0.5188,-0.4567,-0.4121,-0.3583,-0.2956,-0.2419,-0.1882,-0.1256,-0.0358,0.0537,0.1158,-0.0441,-0.2366,-0.4559,-0.8884,-1.1499,-1.1671,-1.1757,-1.2015,-1.2534,-1.2198,-1.224,-1.2803,-1.2688,-1.2826,-1.3193,-1.3557,-1.3928,-1.4217,-1.4577,-1.4935,1.6974,1.6237,1.5395,1.4399,1.3251,1.2143,1.1252,1.0064,0.9053,0.8361,0.7658,0.6941,0.6078,0.515,0.4345,0.3753,0.3033,0.225,0.1169,0.0163,-0.0845,-0.1743,-0.3074,-0.409,-0.4516,-0.5499,-0.6309,-0.7003,-0.8024,-0.8435,-0.8336,-0.9229,-1.0019,-1.0507,-1.1096,-1.1492,-1.1883,-1.2078,-1.237,-1.2662,-1.2861,-1.305,-1.3238,-1.3534,-1.363,-1.3732,-1.3732,-1.3829,0.0,-1.3829,-1.3829,-1.3776,-1.3257,-1.3138,-1.2989,-1.2482,-1.2295,-1.2295,-1.2295,-1.2295,-1.2295,-1.2295,-1.2209,-1.2123,-1.2123,-1.2123,-1.2123,-1.2123,-1.1957,-1.1693,-1.1424,-1.1073,-1.0641,-1.0038,-0.9248,-0.8552,-0.8028,-0.7496,-0.6962,-0.652,-0.5985,-0.5544,-0.4926,-0.4567,-0.403,-0.3315,-0.3047,-0.2778,-0.2242,-0.2333,-0.1701,0.0089,-0.2841,-0.487,-0.4847,-0.7956,-1.0115,-1.0636,-1.0722,-1.1068,-1.1666,-1.1504,-1.1652,-1.224,-1.2209,-1.2365,-1.2746,-1.3119,-1.3419,-1.3725,-1.4145,-1.4425,1.6205,1.5615,1.4768,1.3501,1.2425,1.1423,1.0386,0.9166,0.8156,0.7469,0.6701,0.5954,0.5287,0.4402,0.3719,0.368,0.2335,0.1022,0.0234,-0.0726,-0.1848,-0.3287,-0.383,-0.4408,-0.5335,-0.6176,-0.7024,-0.7997,-0.9402,-0.992,-0.9529,-1.0019,-1.0609,-1.1096,-1.1688,-1.2175,-1.2667,-1.2856,-1.3147,-1.3443,-1.3443,-1.3534,-1.3811,-1.3811,-1.4106,-1.4598,-1.4598,-1.4694,0.0,-1.4987,-1.4987,-1.493,-1.4264,-1.4038,-1.3975,-1.3429,-1.3313,-1.3313,-1.3313,-1.3313,-1.3313,-1.3313,-1.2881,-1.2363,-1.2363,-1.2363,-1.2363,-1.2363,-1.2203,-1.1957,-1.1699,-1.1424,-1.0982,-0.9864,-0.9257,-0.8736,-0.8032,-0.7496,-0.6962,-0.652,-0.5985,-0.5633,-0.5371,-0.4746,-0.4297,-0.421,-0.3583,-0.3136,-0.3048,-0.3138,-0.3136,-0.3135,-0.4919,-0.6163,-0.6502,-0.783,-0.8894,-0.9432,-0.9777,-1.0202,-1.0722,-1.0911,-1.1172,-1.1599,-1.1558,-1.1822,-1.2378,-1.2378,-1.282,-1.3499,-1.3572,-1.3928,1.5013,1.4258,1.3421,1.2271,1.134,1.0366,0.9337,0.8329,0.7407,0.6641,0.588,0.5207,0.4544,0.3916,0.3234,0.253,0.1196,0.0074,-0.0675,-0.1902,-0.299,-0.3655,-0.4425,-0.516,-0.5933,-0.6759,-0.7851,-0.9225,-1.028,-1.09,-1.0998,-1.1292,-1.159,-1.2175,-1.2467,-1.2953,-1.3431,-1.3522,-1.3817,-1.4208,-1.4208,-1.44,-1.4592,-1.4592,-1.479,-1.4981,-1.4981,-1.4981,0.0,-1.5261,-1.5158,-1.4965,-1.4747,-1.448,-1.4373,-1.3959,-1.3815,-1.3828,-1.3828,-1.3743,-1.3568,-1.3568,-1.3307,-1.2966,-1.2966,-1.2966,-1.2966,-1.2881,-1.2625,-1.2375,-1.1952,-1.1429,-1.0722,-1.0038,-0.9519,-0.8999,-0.8464,-0.7937,-0.7408,-0.6962,-0.6428,-0.5985,-0.5633,-0.528,-0.4835,-0.4569,-0.4121,-0.3762,-0.3671,-0.3496,-0.3497,-0.3767,-0.4835,-0.5633,-0.6074,-0.7044,-0.7845,-0.8376,-0.8811,-0.9423,-0.9946,-1.0174,-1.0538,-1.0961,-1.119,-1.1389,-1.1558,-1.2077,-1.2452,-1.2826,-1.3273,-1.3637,1.3747,1.3055,1.2282,1.1233,1.0279,0.9349,0.8432,0.7476,0.6554,0.57,0.4984,0.4374,0.3879,0.3168,0.2416,0.1355,0.0209,-0.081,-0.1616,-0.2829,-0.3798,-0.4076,-0.4932,-0.5877,-0.6542,-0.7674,-0.8877,-1.0256,-1.1048,-1.1712,-1.2255,-1.2459,-1.2684,-1.3044,-1.334,-1.3624,-1.41,-1.4286,-1.458,-1.4873,-1.4975,-1.5166,-1.5452,-1.5452,-1.5458,-1.5553,-1.5553,-1.5553,0.0,-1.5631,-1.5471,-1.5344,-1.506,-1.4872,-1.4649,-1.4338,-1.4321,-1.425,-1.425,-1.4159,-1.3984,-1.3984,-1.3899,-1.3815,-1.3815,-1.3561,-1.3398,-1.3228,-1.296,-1.2625,-1.2123,-1.1424,-1.0641,-1.0212,-0.9694,-0.917,-0.8723,-0.8288,-0.7852,-0.7228,-0.6874,-0.6428,-0.5985,-0.5636,-0.5371,-0.5013,-0.4746,-0.4476,-0.4206,-0.4119,-0.4032,-0.4212,-0.4746,-0.5277,-0.5544,-0.6432,-0.7051,-0.7584,-0.8109,-0.8723,-0.9248,-0.9723,-1.0026,-1.0308,-1.0704,-1.1004,-1.1037,-1.1632,-1.2077,-1.2305,-1.29,-1.3273,1.273,1.2161,1.1553,1.0591,0.95,0.8511,0.7711,0.6593,0.5505,0.4687,0.3948,0.3398,0.3224,0.2054,0.0996,0.0577,-0.0477,-0.1653,-0.2679,-0.3238,-0.3896,-0.4688,-0.5427,-0.6285,-0.7386,-0.8914,-1.0143,-1.088,-1.1582,0.0,-1.304,-1.3625,-1.3738,-1.3505,-1.4004,-1.4394,-1.4688,-1.5153,-1.5432,-1.5432,-1.5635,-1.5913,-1.619,-1.619,-1.6292,-1.6588,-1.6588,-1.6588,0.0,-1.6253,-1.612,-1.6064,-1.5448,-1.5203,-1.5168,-1.4853,-1.465,-1.465,-1.465,-1.465,-1.465,-1.465,-1.465,-1.4657,-1.4657,-1.4068,-1.3398,-1.3398,-1.3052,-1.2625,-1.2123,-1.151,-1.0895,-1.0381,-0.9777,-0.917,-0.8723,-0.8372,-0.8021,-0.7228,-0.7139,-0.6962,-0.6428,-0.5985,-0.5719,-0.5719,-0.5275,-0.501,-0.501,-0.501,-0.501,-0.501,-0.5191,-0.5371,-0.5371,-0.5988,-0.6609,-0.7051,-0.7757,-0.8285,-0.8636,-0.951,-0.9833,-0.9653,-1.0303,-1.0633,-1.0812,-1.1037,-1.1484,-1.2305,-1.2305,-1.2746,1.1776,1.0989,1.0178,0.9155,0.8308,0.743,0.6397,0.5455,0.4599,0.3704,0.3327,0.2867,0.2043,0.1188,0.0309,-0.0374,-0.1495,-0.2537,-0.3081,-0.377,-0.4581,-0.5375,-0.6619,-0.7846,-0.8848,-0.9794,-1.0685,-1.1415,-1.2122,-1.2717,-1.3353,-1.3805,-1.4106,-1.4286,-1.4771,-1.5153,-1.5452,-1.5818,-1.6103,-1.6494,-1.6595,-1.6777,-1.6951,-1.6951,-1.6951,-1.7037,-1.6814,-1.6721,0.0,-1.657,-1.6396,-1.617,-1.6152,-1.6022,-1.5807,-1.5702,-1.5665,-1.5665,-1.5665,-1.5492,-1.5144,-1.5144,-1.4985,-1.4734,-1.4734,-1.4398,-1.3977,-1.3561,-1.3052,-1.2625,-1.2123,-1.1596,-1.1068,-1.0641,-1.0212,-0.9689,-0.917,-0.8727,-0.8285,-0.7764,-0.7319,-0.7051,-0.6704,-0.6432,-0.6166,-0.5991,-0.5722,-0.5455,-0.528,-0.5099,-0.501,-0.501,-0.528,-0.5371,-0.5371,-0.5988,-0.6428,-0.6609,-0.7496,-0.8116,-0.8285,-0.9078,-0.9501,-0.9409,-0.9979,-1.0316,-1.0218,-1.0812,-1.1409,-1.2077,-1.2224,-1.2526,1.0472,0.9859,0.9136,0.8139,0.7239,0.6379,0.5339,0.4521,0.3778,0.3091,0.2575,0.1967,0.091,0.0178,-0.0556,-0.1501,-0.2393,-0.3132,-0.357,-0.4332,-0.5314,-0.6407,-0.7843,-0.9048,-0.9822,-1.0504,-1.1149,-1.1872,-1.242,-1.307,-1.3804,-1.4066,-1.4546,-1.5206,-1.5504,-1.5806,-1.6211,-1.6581,-1.6958,-1.7261,-1.7355,-1.7434,-1.7613,-1.7613,-1.7546,-1.7412,-1.7204,-1.7048,0.0,-1.6683,-1.6515,-1.6312,-1.6369,-1.6278,-1.6087,-1.6087,-1.6087,-1.6087,-1.6087,-1.5914,-1.565,-1.565,-1.5401,-1.5068,-1.4908,-1.4657,-1.4314,-1.3822,-1.3307,-1.2881,-1.2289,-1.1763,-1.1327,-1.0814,-1.0381,-0.9864,-0.9432,-0.8995,-0.8552,-0.8116,-0.776,-0.7408,-0.7149,-0.6877,-0.6609,-0.6438,-0.6166,-0.5899,-0.5813,-0.5547,-0.5455,-0.5455,-0.5547,-0.5638,-0.5638,-0.6077,-0.6432,-0.6523,-0.7408,-0.794,-0.8113,-0.8732,-0.9077,-0.9005,-0.9572,-0.9841,-0.9771,-1.0663,-1.126,-1.1706,-1.1929,-1.215,0.0,0.8701,0.82,0.7318,0.6343,0.535,0.4551,0.3713,0.0,0.2633,0.1734,0.0734,-0.0117,-0.0785,-0.1555,-0.2697,-0.3186,-0.357,-0.4077,-0.4949,-0.6067,-0.7737,-0.8935,-0.9864,-1.0294,-1.0982,-1.1671,-1.2363,-1.2619,-1.3328,-1.4469,-1.4576,-1.506,-1.5984,-1.618,-1.6494,-1.7037,-1.7527,-1.7815,-1.7815,-1.8087,-1.8164,-1.8141,-1.8141,-1.7957,0.0,-1.7604,-1.742,0.0,-1.6783,-1.6645,-1.6615,-1.6292,-1.617,-1.617,-1.617,-1.617,-1.617,-1.617,-1.617,-1.617,-1.6095,-1.5914,-1.565,-1.5249,-1.4824,-1.4398,-1.4166,-1.3743,-1.3222,-1.2619,-1.2106,-1.1591,-1.0901,-1.0386,-0.9951,-0.9432,-0.9087,-0.8819,-0.8288,-0.8201,-0.8025,-0.7591,-0.7323,-0.7054,-0.6881,-0.6612,-0.6432,-0.6428,-0.6257,-0.6083,-0.6083,-0.6083,-0.6171,-0.6171,-0.6346,-0.652,-0.6795,-0.7499,-0.7944,-0.7944,-0.856,-0.8828,-0.8621,-0.9073,-0.9423,-0.962,-1.0588,-1.1037,-1.1037,-1.1484,-1.1706,0.696,0.0,0.6572,0.5905,0.5094,0.4176,0.0,0.3037,0.2521,0.1513,0.0728,0.0057,-0.0703,-0.1632,-0.2428,-0.2821,-0.3457,-0.4147,-0.472,-0.6331,-0.776,-0.8669,-0.9691,-1.0549,-1.0982,-1.1757,-1.2363,-1.279,-1.3398,-1.4017,-1.4592,-1.5014,-1.5573,-1.6417,-1.686,-1.7198,-1.7417,-1.8041,-1.845,-1.8819,-1.8912,-1.8867,-1.8783,-1.8783,-1.858,-1.8224,-1.7965,0.0,-1.7697,-1.7341,-1.7195,-1.7187,-1.7098,-1.7066,-1.7066,-1.7066,-1.7066,-1.7066,-1.6894,-1.673,-1.6492,-1.617,-1.5914,-1.565,-1.5575,-1.5151,-1.4573,-1.4166,-1.3743,-1.3307,-1.279,-1.2283,-1.1774,-1.1241,-1.0814,-1.0381,-0.9951,-0.9519,-0.9082,-0.8636,-0.8372,-0.8113,-0.7856,-0.7591,-0.7326,-0.7054,-0.6881,-0.6612,-0.6432,-0.6343,-0.6343,-0.6343,-0.6343,-0.6435,-0.6615,-0.6704,-0.6704,-0.6795,-0.7499,-0.7944,-0.7944,-0.856,-0.8884,-0.8809,-0.9171,-0.9511,-0.9846,-1.0067,-1.0368,-1.0663,-1.0887,-1.1111,0.5521,0.5496,0.5546,0.4783,0.4184,0.3577,0.2516,0.2071,0.1625,0.0673,-0.0,-0.0753,-0.1615,-0.2407,-0.3048,-0.3331,-0.4107,-0.498,-0.5983,-0.7434,-0.8653,-0.9394,-1.0361,-1.1123,-1.1746,-1.2448,-1.3052,-1.3476,-1.4075,-1.4573,-1.4985,-1.5484,-1.599,-1.6666,-1.7251,-1.7688,-1.7791,-1.824,-1.8604,-1.8978,-1.8978,-1.9049,-1.9025,-1.9025,-1.8824,-1.8456,-1.8263,0.0,-1.792,-1.7719,-1.7635,-1.7546,-1.7546,-1.7473,-1.7392,-1.7392,-1.7392,-1.7392,-1.731,-1.7057,-1.6812,-1.6402,-1.6154,-1.5982,-1.5733,-1.5401,-1.4901,-1.4496,-1.399,-1.3476,-1.2966,-1.246,-1.1866,-1.1413,-1.0982,-1.0554,-1.0125,-0.9689,-0.9257,-0.8815,-0.8644,-0.838,-0.8116,-0.794,-0.7676,-0.7323,-0.7149,-0.7058,-0.6786,-0.6609,-0.6612,-0.6612,-0.6612,-0.6612,-0.6795,-0.6881,-0.6966,-0.6966,-0.7499,-0.7944,-0.7944,-0.8472,-0.8822,-0.8874,-0.9155,-0.937,-0.9622,-0.9771,-1.0019,-1.0218,-1.0438,-1.0663,0.4331,0.4323,0.4443,0.3849,0.3466,0.291,0.1679,0.1008,0.0505,-0.0056,-0.0809,-0.1609,-0.2591,-0.3103,-0.3508,-0.401,-0.4914,-0.6051,-0.7431,-0.8334,-0.9231,-0.9978,-1.086,-1.1689,-1.2451,-1.3074,-1.3691,-1.425,-1.4573,-1.5068,-1.556,-1.5997,-1.6417,-1.6894,-1.759,-1.7978,-1.8222,-1.8493,-1.8724,-1.8912,-1.8912,-1.905,-1.9153,-1.9153,-1.8946,-1.8594,0.0,0.0,-1.8121,-1.8121,-1.8031,-1.7861,-1.7861,-1.7708,-1.7554,-1.7554,-1.7554,-1.7554,-1.7473,-1.7302,-1.7049,-1.664,-1.6476,-1.6312,-1.5906,-1.565,-1.5311,-1.4817,-1.4237,-1.3652,-1.3222,-1.2631,-1.1952,-1.1505,-1.1073,-1.0641,-1.0212,-0.9864,-0.9515,-0.9087,-0.8911,-0.8736,-0.8376,-0.8288,-0.8025,-0.768,-0.7507,-0.7415,-0.7231,-0.6969,-0.6881,-0.6881,-0.6881,-0.6881,-0.6881,-0.6966,-0.7139,-0.7139,-0.7588,-0.7944,-0.8032,-0.8388,-0.8736,-0.8874,-0.9128,-0.9271,-0.9305,-0.9612,-0.9829,-0.9877,-1.01,-1.0231,0.2932,0.2291,0.2289,0.313,0.2516,0.1454,0.0672,0.0056,-0.0508,-0.0986,-0.1935,-0.2697,-0.304,-0.3653,-0.4212,-0.4607,-0.5818,-0.7074,-0.8121,-0.9116,-0.9969,-1.0472,-1.1255,-1.2083,-1.2762,-1.3289,-1.3973,-1.4901,-1.5159,-1.565,-1.6484,-1.6574,-1.6984,-1.7789,-1.7929,-1.8232,-1.886,-1.9164,-1.9401,-1.9692,-1.9692,-1.9507,-1.9173,-1.9173,-1.8971,-1.87,0.0,-1.8673,-1.862,-1.862,-1.8531,-1.8531,-1.8531,-1.8531,-1.8451,-1.8282,-1.8282,-1.8193,-1.7781,-1.7375,-1.7057,-1.7057,-1.6722,-1.6312,-1.6079,-1.5824,-1.5484,-1.4901,-1.4412,-1.3913,-1.3483,-1.2966,-1.2454,-1.2032,-1.1505,-1.1068,-1.0641,-1.0212,-0.9864,-0.9519,-0.917,-0.8911,-0.8823,-0.8464,-0.8201,-0.8113,-0.7768,-0.7507,-0.7415,-0.7234,-0.7054,-0.7054,-0.7054,-0.7054,-0.7054,-0.7054,-0.7139,-0.7139,-0.7588,-0.812,-0.848,-0.874,-0.8822,-0.8624,-0.8843,-0.9068,-0.9275,-0.9356,-0.9585,-0.9888,-0.9968,-0.9936,0.1422,0.0815,0.0558,0.0781,0.0726,0.0393,-0.0458,-0.1208,-0.18,-0.2214,-0.2747,-0.3301,-0.3839,-0.4358,-0.4992,-0.5971,-0.6991,-0.7992,-0.8893,-0.9627,-1.0357,-1.1039,-1.178,-1.2438,-1.2972,-1.3641,-1.4257,-1.4874,-1.5283,-1.5847,-1.6669,-1.7006,-1.7498,-1.8336,-1.8585,-1.8913,-1.932,-1.9587,-1.9698,-1.9716,-1.9716,-1.9616,-1.9586,-1.9586,-1.9485,-1.932,0.0,-1.932,-1.932,-1.932,-1.924,-1.8993,-1.8993,-1.8922,-1.87,-1.8442,-1.8442,-1.8353,-1.7861,-1.7619,-1.7375,-1.7131,-1.6968,-1.6722,-1.6252,-1.5997,-1.5748,-1.4901,-1.4489,-1.4153,-1.3568,-1.3052,-1.2619,-1.2123,-1.1682,-1.1154,-1.0814,-1.0381,-1.0038,-0.9689,-0.9345,-0.9087,-0.8911,-0.8648,-0.838,-0.8201,-0.8025,-0.7856,-0.7768,-0.7503,-0.7323,-0.7323,-0.7143,-0.7139,-0.7139,-0.7139,-0.7228,-0.7496,-0.7764,-0.812,-0.8568,-0.8652,-0.8786,-0.878,-0.8862,-0.8935,-0.9072,-0.9072,-0.9188,-0.9327,-0.9327,-0.9437,-0.0156,-0.0757,-0.1284,-0.1619,-0.1061,-0.0733,-0.1749,-0.2411,-0.2913,-0.327,-0.3542,-0.3924,-0.4598,-0.5147,-0.5922,-0.724,-0.7996,-0.8705,-0.9578,-1.0143,-1.0738,-1.1484,-1.2113,-1.2766,-1.3308,-1.403,-1.4595,-1.4894,-1.5451,-1.6041,-1.6768,-1.7252,-1.7822,-1.8673,-1.9085,-1.9455,-1.9794,-2.002,-2.002,-1.9803,-1.9803,-1.9872,-2.0098,-2.0098,-2.0098,-2.0098,-2.002,-2.002,-2.0029,-1.9942,-1.9706,-1.946,-1.946,-1.9152,-1.8851,-1.8603,-1.8523,-1.8353,-1.8031,-1.7781,-1.7619,-1.7302,-1.7139,-1.6976,-1.6327,-1.617,-1.5922,-1.5068,-1.465,-1.4314,-1.3561,-1.3137,-1.2705,-1.2209,-1.1768,-1.1332,-1.0901,-1.0641,-1.0294,-0.9864,-0.9519,-0.9257,-0.8999,-0.8828,-0.8564,-0.8292,-0.8201,-0.8113,-0.8028,-0.768,-0.7507,-0.7507,-0.7234,-0.7139,-0.7139,-0.7139,-0.7319,-0.7768,-0.7768,-0.8032,-0.8388,-0.8476,-0.8564,-0.8732,-0.8732,-0.8748,-0.8943,-0.8943,-0.8954,-0.8976,-0.8976,-0.9027,-0.1766,-0.2766,-0.3583,-0.3234,-0.2512,-0.2145,-0.321,-0.3411,-0.3468,-0.3985,-0.4359,-0.4791,-0.5377,-0.6207,-0.7069,-0.7873,-0.8518,-0.9257,-1.0002,-1.0663,-1.1267,-1.1887,-1.2338,-1.298,-1.3831,-1.4298,-1.4797,-1.552,-1.592,-1.6387,-1.6885,-1.7247,-1.7801,-1.8665,-1.9068,-1.9717,-2.0489,-2.0712,-2.0634,-2.0264,-2.0264,-2.0342,-2.0566,-2.0566,-2.0566,-2.0566,-2.0342,-2.0264,-2.0264,-2.002,-1.9863,-1.9863,-1.9863,-1.9627,-1.9222,-1.8993,-1.8763,-1.8442,-1.8362,-1.8023,-1.77,-1.7473,-1.7221,-1.6968,-1.6558,-1.6245,-1.6004,-1.5484,-1.5068,-1.4482,-1.3646,-1.3398,-1.3137,-1.254,-1.2203,-1.178,-1.1327,-1.0987,-1.0554,-1.0294,-0.9864,-0.9519,-0.9349,-0.9087,-0.8828,-0.8564,-0.838,-0.8201,-0.8201,-0.7768,-0.7507,-0.7507,-0.7234,-0.7139,-0.7139,-0.7139,-0.7231,-0.7503,-0.7507,-0.768,-0.7944,-0.7944,-0.8028,-0.8288,-0.8288,-0.846,-0.889,-0.889,-0.9061,-0.9305,-0.9305,-0.9117,-0.3257,-0.3807,-0.4405,-0.4391,-0.4406,-0.4397,-0.4308,-0.4409,-0.4709,-0.5284,-0.5459,-0.5741,-0.6334,-0.7167,-0.7947,-0.8529,-0.9264,-0.9908,-1.0691,-1.126,-1.1781,-1.215,-1.2753,-1.3316,-1.38,-1.4321,-1.4814,-1.5471,-1.5917,-1.6448,-1.7204,-1.757,-1.8118,-1.8974,-1.9309,-1.9609,-2.0064,-2.0557,-2.0848,-2.0772,-2.0834,-2.0886,-2.0964,-2.0964,-2.0964,-2.0964,-2.0896,-2.0896,-2.0809,-2.0731,-2.0576,-2.0333,-2.002,-1.9784,-1.9618,-1.9311,-1.9063,-1.8913,-1.8514,-1.8273,-1.8103,-1.7708,-1.7465,-1.7229,-1.673,-1.6327,-1.6004,-1.5567,-1.5061,-1.4573,-1.399,-1.3652,-1.3222,-1.2705,-1.2289,-1.1866,-1.1413,-1.1079,-1.0738,-1.0381,-1.0033,-0.9777,-0.9519,-0.9174,-0.8911,-0.8823,-0.856,-0.8472,-0.8472,-0.8116,-0.7852,-0.7768,-0.7323,-0.7139,-0.7139,-0.7139,-0.7143,-0.7234,-0.7415,-0.7591,-0.7856,-0.7944,-0.7944,-0.8028,-0.8028,-0.8116,-0.8292,-0.8292,-0.8292,-0.8472,-0.8472,-0.8345,-0.4485,-0.4809,-0.5201,-0.5475,-0.5962,-0.6186,-0.5712,-0.5636,-0.5811,-0.6371,-0.6605,-0.6802,-0.7204,-0.791,-0.8617,-0.906,-0.9659,-1.0284,-1.0973,-1.1518,-1.1952,-1.2312,-1.2971,-1.3469,-1.3744,-1.4237,-1.4796,-1.5213,-1.5817,-1.6489,-1.725,-1.7731,-1.8341,-1.9196,-1.9441,-1.9726,-2.0083,-2.0607,-2.0907,-2.1063,-2.1154,-2.123,-2.1363,-2.1363,-2.1292,-2.1169,-2.1094,-2.109,-2.1146,-2.107,-2.0988,-2.0722,-2.0333,-2.0098,-2.0098,-1.9548,-1.9381,-1.9222,-1.8754,-1.8523,-1.8353,-1.7951,-1.7627,-1.731,-1.6976,-1.6492,-1.6004,-1.5741,-1.5151,-1.4657,-1.4328,-1.3822,-1.3307,-1.2875,-1.2375,-1.1952,-1.1596,-1.1257,-1.0916,-1.0472,-1.0207,-0.9951,-0.9689,-0.9257,-0.8999,-0.8911,-0.874,-0.8568,-0.8568,-0.838,-0.8113,-0.7768,-0.7408,-0.7139,-0.7139,-0.7139,-0.7139,-0.7139,-0.7234,-0.7415,-0.7676,-0.7676,-0.7676,-0.7768,-0.7768,-0.7856,-0.7944,-0.7944,-0.7944,-0.7944,-0.7944,-0.7944,-0.5431,-0.5837,-0.61,-0.6533,-0.6981,-0.7374,-0.7547,-0.712,-0.6836,-0.7158,-0.7661,-0.7987,-0.7987,-0.8441,-0.8913,-0.9348,-0.9661,-1.0166,-1.0972,-1.1286,-1.1703,-1.2383,-1.2796,-1.314,-1.3549,-1.4206,-1.4649,-1.4828,-1.5734,-1.6446,-1.6769,-1.7562,-1.834,-1.9193,-1.962,-2.0115,-2.0665,-2.0878,-2.102,-2.102,-2.1139,-2.1375,-2.169,-2.169,-2.1445,-2.096,-2.0818,-2.0855,-2.1114,-2.0892,-2.0943,-2.1128,-2.0722,-2.0566,-2.0489,-1.9872,-1.9478,-1.9301,-1.9073,-1.8763,-1.8362,-1.8112,-1.7716,-1.7392,-1.7139,-1.6656,-1.6087,-1.6087,-1.5416,-1.4734,-1.4734,-1.4068,-1.3398,-1.3137,-1.2546,-1.2043,-1.2043,-1.144,-1.0921,-1.0733,-1.0467,-1.012,-0.9689,-0.9432,-0.9174,-0.8911,-0.874,-0.8568,-0.8568,-0.838,-0.8025,-0.7507,-0.7234,-0.7139,-0.7139,-0.7139,-0.7139,-0.7139,-0.6881,-0.6881,-0.7051,-0.7051,-0.7231,-0.7507,-0.7507,-0.7591,-0.7856,-0.7856,-0.7856,-0.7856,-0.7856,-0.7856,-0.6549,-0.6944,-0.7298,-0.7611,-0.8055,-0.8434,-0.8381,-0.8041,-0.7837,-0.8042,-0.8382,-0.8571,-0.8694,-0.9017,-0.9421,-0.9886,-1.0327,-1.0829,-1.1246,-1.1833,-1.2248,-1.2451,-1.3073,-1.3541,-1.3933,-1.4444,-1.4959,-1.5422,-1.5993,-1.6455,-1.6732,-1.7695,-1.8389,-1.8654,-1.9306,-1.9815,-2.0165,-2.0622,-2.0921,-2.1057,-2.1603,-2.1636,-2.1343,-2.1485,-2.142,-2.115,-2.108,-2.1023,-2.1039,-2.099,-2.1049,-2.1128,-2.1074,-2.0974,-2.0741,-2.042,-2.0098,-1.9696,-1.9311,-1.8922,-1.8612,-1.8362,-1.7951,-1.7538,-1.7392,-1.6902,-1.6492,-1.617,-1.5658,-1.5144,-1.4817,-1.4328,-1.3828,-1.3398,-1.2796,-1.2203,-1.2037,-1.1699,-1.1348,-1.0727,-1.0641,-1.0467,-0.9951,-0.9519,-0.9262,-0.9174,-0.8828,-0.8564,-0.838,-0.8116,-0.7852,-0.7507,-0.7234,-0.7139,-0.7139,-0.6966,-0.6881,-0.6881,-0.67,-0.6612,-0.6881,-0.6697,-0.6609,-0.67,-0.67,-0.6786,-0.6874,-0.6874,-0.6874,-0.6874,-0.6874,-0.6874,-0.738,-0.7711,-0.7985,-0.8384,-0.885,-0.9265,-0.9427,-0.9045,-0.8748,-0.8888,-0.9022,-0.9221,-0.928,-0.9594,-0.9963,-1.0276,-1.0692,-1.1077,-1.1452,-1.1875,-1.2269,-1.253,-1.2993,-1.3445,-1.3813,-1.4323,-1.4827,-1.5399,-1.5985,-1.6455,-1.6775,-1.7634,-1.8249,-1.849,-1.9148,-1.9663,-1.992,-2.0457,-2.082,-2.1018,-2.1519,-2.1599,-2.1251,-2.1393,-2.1314,-2.1013,-2.113,-2.1079,-2.0904,-2.109,-2.1052,-2.0938,-2.0933,-2.0747,-2.0522,-2.02,-1.9897,-1.9621,-1.931,-1.8994,-1.8646,-1.8559,-1.8201,-1.7789,-1.7473,-1.7066,-1.6656,-1.6252,-1.5741,-1.5311,-1.4817,-1.4412,-1.3997,-1.3483,-1.296,-1.2448,-1.2037,-1.1871,-1.1521,-1.0814,-1.0641,-1.0554,-1.0038,-0.9607,-0.9262,-0.9262,-0.8915,-0.8476,-0.8201,-0.8028,-0.7768,-0.7507,-0.7234,-0.7051,-0.6966,-0.6881,-0.6792,-0.6612,-0.6435,-0.6346,-0.6526,-0.6432,-0.6428,-0.6428,-0.6428,-0.6428,-0.6428,-0.6428,-0.6428,-0.6428,-0.6343,-0.6254,-0.7994,-0.816,-0.8304,-0.8909,-0.9411,-0.9899,-1.049,-1.0104,-0.9646,-0.9582,-0.9728,-0.9868,-0.9862,-1.0117,-1.0428,-1.0624,-1.0744,-1.1059,-1.1498,-1.1622,-1.1934,-1.2498,-1.2744,-1.3042,-1.345,-1.3941,-1.4428,-1.497,-1.5671,-1.6307,-1.6925,-1.7419,-1.7964,-1.8622,-1.9102,-1.9563,-1.9941,-2.0441,-2.0741,-2.0967,-2.1158,-2.1285,-2.1411,-2.1456,-2.1171,-2.0756,-2.1007,-2.0996,-2.0806,-2.1079,-2.0994,-2.0713,-2.0481,-2.0278,-2.0073,-1.9486,-1.9268,-1.917,-1.9042,-1.8803,-1.8647,-1.8673,-1.8318,-1.7908,-1.7546,-1.7066,-1.6656,-1.6252,-1.5824,-1.5318,-1.4817,-1.4412,-1.3997,-1.3483,-1.3052,-1.2625,-1.2123,-1.1871,-1.1521,-1.0814,-1.0727,-1.0554,-1.0038,-0.9607,-0.9257,-0.9262,-0.8915,-0.8476,-0.8201,-0.8028,-0.7768,-0.7503,-0.7234,-0.6966,-0.6792,-0.6795,-0.6615,-0.6432,-0.6169,-0.5994,-0.5994,-0.6254,-0.6343,-0.6343,-0.6251,-0.6251,-0.6251,-0.6251,-0.6251,-0.6251,-0.608,-0.5994,-0.8548,-0.8764,-0.8959,-0.9475,-0.9893,-1.0289,-1.0857,-1.087,-1.0674,-1.0428,-1.0428,-1.0434,-1.0555,-1.0618,-1.0744,-1.0933,-1.1247,-1.1498,-1.156,-1.2058,-1.2436,-1.256,-1.3033,-1.345,-1.37,-1.424,-1.4725,-1.5156,-1.5645,-1.6113,-1.6519,-1.7168,-1.7755,-1.8119,-1.872,-1.9404,-2.0289,-2.0403,-2.0841,0.0,-2.1572,-2.1635,-2.1635,-2.1626,-2.1412,-2.1106,-2.0963,-2.0879,-2.0729,-2.0862,-2.0845,-2.0751,-2.0699,-2.0492,-2.0288,-1.9867,-1.9505,-1.9131,-1.886,-1.8536,-1.8236,-1.8252,-1.8074,-1.7812,-1.7471,-1.731,-1.7066,-1.6335,-1.6004,-1.5748,-1.4901,-1.4657,-1.4405,-1.3561,-1.3222,-1.2796,-1.2129,-1.1957,-1.1693,-1.0901,-1.0727,-1.0554,-1.0038,-0.9607,-0.9174,-0.8828,-0.8656,-0.8476,-0.8028,-0.794,-0.7676,-0.7231,-0.6969,-0.6881,-0.6795,-0.6438,-0.626,-0.6171,-0.5816,-0.5549,-0.5549,-0.5547,-0.5638,-0.5638,-0.5366,-0.5275,-0.5275,-0.5275,-0.5275,-0.5275,-0.5277,-0.5277,-0.8913,-0.909,-0.9281,-0.9977,-1.0394,-1.0769,-1.1095,-1.1319,-1.1373,-1.1122,-1.0933,-1.087,-1.0933,-1.0996,-1.1122,-1.131,-1.156,-1.1747,-1.1934,-1.2313,-1.2629,-1.2805,-1.3216,-1.3571,-1.389,-1.4359,-1.4893,-1.5254,-1.5682,-1.6087,-1.6602,-1.6984,-1.7388,-1.7855,-1.84,-1.9062,-1.9783,-2.0049,-2.0552,-2.1384,-2.1507,-2.1761,-2.2197,-2.1824,-2.1635,-2.1434,-2.1221,-2.1083,-2.0937,-2.085,-2.0688,-2.0434,-2.0414,-2.0181,-1.9848,-1.9581,-1.9233,-1.8832,-1.8682,-1.8398,-1.8109,-1.7983,-1.7938,-1.7822,-1.7309,-1.7251,-1.7229,-1.6335,-1.6087,-1.5922,-1.4901,-1.4734,-1.4482,-1.3646,-1.3313,-1.3058,-1.2215,-1.2043,-1.178,-1.0901,-1.0727,-1.0554,-1.0038,-0.9607,-0.9174,-0.8656,-0.8476,-0.8296,-0.7944,-0.7768,-0.7588,-0.7143,-0.6881,-0.6704,-0.6612,-0.626,-0.5994,-0.5816,-0.5549,-0.5371,-0.5191,-0.5104,-0.5104,-0.5191,-0.5099,-0.501,-0.501,-0.501,-0.4921,-0.4835,-0.4743,-0.4565,-0.9107,-0.9313,-0.954,-1.0318,-1.0862,-1.1199,-1.1293,-1.1631,-1.1809,-1.1685,-1.1435,-1.1185,-1.1247,-1.1303,-1.1428,-1.1622,-1.1809,-1.1988,-1.2305,-1.256,-1.2744,-1.305,-1.3287,-1.3596,-1.3853,-1.4255,-1.4762,-1.5245,-1.5611,-1.611,-1.6751,-1.6818,-1.7099,-1.7656,-1.816,-1.8635,-1.9156,-1.961,-2.0252,-2.1069,-2.1344,-2.1922,-2.269,-2.2135,-2.1824,-2.1761,-2.16,-2.14,-2.1221,-2.1031,-2.0635,-2.0172,-2.0107,-1.9781,-1.9351,-1.9142,-1.8875,-1.8464,-1.8478,-1.8254,-1.7967,-1.7789,-1.7899,-1.7846,-1.7128,-1.7174,-1.7229,-1.6417,-1.617,-1.5922,-1.4901,-1.4734,-1.4482,-1.3646,-1.3398,-1.3143,-1.2209,-1.2043,-1.178,-1.0901,-1.0641,-1.0472,-0.9951,-0.9519,-0.9174,-0.8656,-0.838,-0.8113,-0.794,-0.768,-0.7415,-0.7054,-0.6881,-0.6612,-0.6343,-0.608,-0.5816,-0.546,-0.5282,-0.5193,-0.4921,-0.4659,-0.4659,-0.4832,-0.4832,-0.4832,-0.4743,-0.4743,-0.4656,-0.4482,-0.4302,-0.403,-0.9031,-0.9444,-0.9935,-1.0531,-1.098,-1.1329,-1.147,-1.1753,-1.2058,-1.2058,-1.1747,-1.156,-1.1685,-1.174,-1.1802,-1.1996,-1.212,-1.2305,-1.256,-1.2805,-1.305,-1.3241,-1.3372,-1.3455,-1.3464,-1.3691,-1.4124,-1.4844,-1.5209,-1.5827,-1.6729,-1.6818,-1.7099,-1.7656,-1.7867,-1.8449,-1.9371,-1.9542,-2.0052,-2.0822,-2.1445,-2.2077,-2.269,-2.2616,-2.2432,-2.2135,-2.1937,-2.1663,-2.1336,-2.1221,-2.0978,-2.0593,-2.0237,-1.9846,-1.9539,-1.9198,-1.8875,-1.8492,-1.8213,-1.789,-1.7543,-1.7521,-1.7559,-1.7579,-1.7355,-1.7326,-1.7229,-1.6566,-1.6245,-1.5922,-1.4901,-1.4734,-1.4482,-1.3646,-1.3398,-1.3143,-1.2209,-1.2043,-1.178,-1.0901,-1.0381,-0.9951,-0.9432,-0.9349,-0.9174,-0.8656,-0.838,-0.8113,-0.794,-0.768,-0.7326,-0.6881,-0.6612,-0.6343,-0.6171,-0.5727,-0.546,-0.5371,-0.5015,-0.475,-0.475,-0.4304,-0.4036,-0.4036,-0.4036,-0.3944,-0.3765,-0.3765,-0.3765,-0.3765,-0.3676,-0.3676,-0.9261,-0.965,-1.0,-1.0462,-1.0863,-1.1154,-1.1318,-1.1657,-1.195,-1.2081,-1.2003,-1.1872,-1.1934,-1.1996,-1.1996,-1.2182,-1.2243,-1.2428,-1.2683,-1.2867,-1.2976,-1.2948,-1.3191,-1.3296,-1.3067,-1.3424,-1.4035,-1.4746,-1.5119,-1.5756,-1.6729,-1.6818,-1.7099,-1.7656,-1.7854,-1.823,-1.8912,-1.9185,-1.9721,-2.0668,-2.1564,-2.2154,-2.2461,-2.2712,-2.2604,-2.2309,-2.2123,-2.1925,-2.1663,-2.14,-2.1158,-2.0914,-2.0582,-2.0183,-1.9857,-1.9528,-1.9142,-1.8808,-1.8414,-1.8008,-1.7617,-1.7381,-1.7288,-1.7181,-1.7114,-1.7103,-1.6959,-1.6675,-1.6327,-1.5922,-1.5166,-1.4824,-1.4482,-1.3646,-1.3398,-1.3143,-1.2209,-1.2043,-1.178,-1.0901,-1.0299,-0.9864,-0.9349,-0.9262,-0.9174,-0.8656,-0.8296,-0.8028,-0.7944,-0.7499,-0.7146,-0.6792,-0.6523,-0.6343,-0.6083,-0.5638,-0.5371,-0.5191,-0.4837,-0.4572,-0.4304,-0.4036,-0.3767,-0.3497,-0.3678,-0.3678,-0.3587,-0.3587,-0.3497,-0.3406,-0.3227,-0.3138,-0.9343,-0.9681,-0.9882,-1.024,-1.0669,-1.1012,-1.1169,-1.1475,-1.1811,-1.2042,-1.205,-1.2081,-1.2236,-1.2182,-1.2182,-1.2367,-1.2367,-1.2498,-1.2805,-1.2928,-1.297,-1.2772,-1.3058,-1.3076,-1.267,-1.3074,-1.3666,-1.4434,-1.4889,-1.5581,-1.6549,-1.6754,-1.7099,-1.7656,-1.7854,-1.8182,-1.8614,-1.8934,-1.9585,-2.0528,-2.135,-2.1931,-2.2322,-2.263,-2.2651,-2.2543,-2.2309,-2.2123,-2.1937,-2.16,-2.1348,-2.1169,-2.0862,-2.0453,-2.0042,-1.9726,-1.9407,-1.9075,-1.8617,-1.8202,-1.7716,-1.7382,-1.7165,-1.6998,-1.7024,-1.6936,-1.6826,-1.6798,-1.6492,-1.5922,-1.5333,-1.4908,-1.4482,-1.3646,-1.3483,-1.3143,-1.2209,-1.1866,-1.1516,-1.0814,-1.0299,-0.9864,-0.9349,-0.9262,-0.9174,-0.8656,-0.8212,-0.7944,-0.7944,-0.7408,-0.6966,-0.6704,-0.6435,-0.6254,-0.5905,-0.5549,-0.5191,-0.4921,-0.4659,-0.4304,-0.3948,-0.3767,-0.3497,-0.3136,-0.3229,-0.332,-0.332,-0.332,-0.3229,-0.2959,-0.278,-0.2601,-0.9162,-0.94,-0.9673,-0.9867,-1.0478,-1.1003,-1.1018,-1.1281,-1.1622,-1.1913,-1.1984,-1.2095,-1.2496,-1.2428,-1.2367,-1.256,-1.256,-1.2683,-1.292,-1.2989,-1.297,-1.2964,-1.2872,-1.2661,-1.2281,-1.2411,-1.2857,-1.3545,-1.4208,-1.5055,-1.6062,-1.6573,-1.7099,-1.7656,-1.792,-1.8236,-1.8614,-1.9105,-1.9756,-2.0515,-2.0673,-2.1305,-2.2309,-2.2334,-2.253,-2.2848,-2.2543,-2.2309,-2.2135,-2.1824,-2.1498,-2.1169,-2.0862,-2.0453,-2.0042,-1.9726,-1.9407,-1.9075,-1.8617,-1.8279,-1.794,-1.7608,-1.7324,-1.7225,-1.7406,-1.7167,-1.6826,-1.7033,-1.6574,-1.6004,-1.5484,-1.5061,-1.4566,-1.3815,-1.3561,-1.3143,-1.2209,-1.1343,-1.0727,-1.0727,-1.0299,-0.9864,-0.9349,-0.9262,-0.9174,-0.8656,-0.8212,-0.7944,-0.7944,-0.7234,-0.6704,-0.6432,-0.6257,-0.5905,-0.546,-0.5191,-0.4924,-0.475,-0.4214,-0.3948,-0.3859,-0.3497,-0.3136,-0.2957,-0.2691,-0.2513,-0.2513,-0.2513,-0.2424,-0.2243,-0.2243,-0.2243,-0.9129,-0.9248,-0.9358,-0.9787,-1.0113,-1.0431,-1.0891,-1.109,-1.1273,-1.1606,-1.1678,-1.1789,-1.2146,-1.234,-1.2498,-1.256,-1.2683,-1.2805,-1.2981,-1.2904,-1.2789,-1.2759,-1.2543,-1.2369,-1.213,-1.2367,-1.279,-1.3549,-1.4252,-1.5024,-1.603,-1.6652,-1.72,-1.7656,-1.8096,-1.8572,-1.9105,-1.9408,-1.9768,-2.019,-2.062,-2.123,-2.2064,-2.2306,-2.2728,-2.321,-2.2848,-2.2543,-2.2297,-2.1999,-2.1686,-2.1498,-2.1169,-2.0775,-2.0453,-2.0053,-1.9726,-1.9341,-1.8875,-1.8472,-1.8144,-1.7676,-1.7288,-1.7106,-1.74,-1.724,-1.6926,-1.7218,-1.6812,-1.6154,-1.5733,-1.5151,-1.4482,-1.373,-1.3137,-1.2625,-1.2123,-1.1343,-1.0727,-1.0727,-1.0299,-0.9864,-0.9349,-0.9262,-0.9087,-0.8468,-0.812,-0.7856,-0.768,-0.7149,-0.6704,-0.6432,-0.6077,-0.5725,-0.546,-0.5015,-0.4746,-0.4478,-0.4125,-0.3767,-0.3497,-0.3136,-0.2868,-0.2691,-0.2423,-0.2334,-0.2334,-0.2334,-0.2244,-0.2154,-0.2064,-0.1974,-0.9081,-0.9103,-0.9253,-0.9706,-0.9843,-1.0081,-1.0685,-1.082,-1.0915,-1.1249,-1.132,-1.1431,-1.1773,-1.2035,-1.2282,-1.2581,-1.2683,-1.2826,-1.2816,-1.2772,-1.2603,-1.2425,-1.2254,-1.2155,-1.2113,-1.2323,-1.2782,-1.3402,-1.4162,0.0,-1.5797,-1.6611,-1.7301,-1.7931,-1.8313,-1.8786,-1.9368,-1.9565,-1.9772,-1.999,-2.0435,-2.0998,-2.1655,-2.2107,-2.2623,-2.3111,-2.3002,-2.2787,-2.2482,-2.2123,-2.1874,-2.1698,-2.136,-2.0978,-2.0669,-2.0248,-1.9922,-1.9539,-1.9075,-1.8674,-1.8269,-1.7803,-1.7392,-1.7027,-1.7342,-1.7191,-1.697,-1.7116,-1.6798,-1.6312,-1.5906,-1.5235,-1.4398,-1.3561,-1.2966,-1.2454,-1.2037,-1.1343,-1.0819,-1.0727,-1.0381,-0.9951,-0.9432,-0.9262,-0.9082,-0.8288,-0.8028,-0.7768,-0.7507,-0.6969,-0.6612,-0.6432,-0.5899,-0.5544,-0.528,-0.4926,-0.4569,-0.4212,-0.3946,-0.3587,-0.3136,-0.2868,-0.2601,-0.2244,-0.2154,-0.2064,-0.1974,-0.2064,-0.2064,-0.1885,-0.1705,-0.1615,0.0,0.0,0.0,-0.9509,-0.9755,-1.001,-1.0367,-1.0514,-1.0566,-1.0907,-1.0979,-1.1082,-1.1416,-1.1479,-1.171,-1.2477,-1.2712,-1.2712,-1.253,-1.2589,-1.2484,-1.2033,-1.2097,-1.2146,-1.2113,-1.2332,-1.2618,-1.2958,-1.4012,-1.4819,-1.5392,-1.6439,-1.7457,-1.8367,-1.8691,-1.9011,-1.942,-1.9656,-1.9862,-2.0042,-2.0144,-2.054,-2.113,-2.1642,-2.2094,-2.2508,-2.2934,-2.2957,-2.2678,-2.2309,-2.2011,-2.1698,-2.136,-2.1042,-2.0669,-2.0248,-1.9922,-1.9539,-1.9208,-1.8808,-1.8414,-1.8144,-1.7657,-1.7172,-1.7242,-1.7054,-1.6902,-1.681,-1.6605,-1.6386,-1.6162,-1.5242,-1.423,-1.3561,-1.3052,-1.2619,-1.2123,-1.144,-1.0921,-1.0733,-1.0467,-1.012,-0.9432,-0.9262,-0.9082,-0.8288,-0.8028,-0.7768,-0.7507,-0.6877,-0.6428,-0.6428,-0.5813,-0.528,-0.501,-0.4835,-0.4482,-0.3948,-0.3678,-0.3406,-0.2867,-0.2602,-0.2244,-0.1794,-0.1884,-0.1705,-0.1346,-0.1705,-0.1705,-0.1346,-0.1345,-0.1076,-0.8952,0.0,0.0,0.0,0.0,0.0,-1.0002,-1.028,-1.0545,-1.0597,-1.0613,-1.0717,-1.1074,-1.113,-1.1273,-1.171,-1.202,-1.2216,-1.2174,-1.21,-1.2072,-1.2132,-1.1963,-1.1995,-1.2342,-1.248,-1.2666,0.0,-1.4155,-1.4924,-1.5392,-1.6818,-1.7897,-1.8518,-1.8881,-1.9251,-1.9565,-1.9823,-2.0093,-2.036,-2.041,-2.0759,-2.1368,-2.1457,-2.1902,-2.2725,-2.2693,-2.2702,-2.28,-2.2482,-2.2173,-2.1812,-2.1624,-2.1371,-2.1042,-2.0658,-2.0259,-1.9736,-1.9407,-1.8952,-1.8414,-1.8144,-1.7735,-1.7398,-1.7456,-1.7134,-1.6924,-1.6968,-1.6755,-1.6332,-1.5606,-1.4992,-1.4398,-1.3561,-1.3222,-1.2802,-1.2123,-1.1699,-1.1348,-1.0819,-1.0467,-1.012,-0.9432,-0.9262,-0.8995,-0.8116,-0.7944,-0.768,-0.7061,-0.6612,-0.6343,-0.6169,-0.5547,-0.5099,-0.501,-0.448,-0.4036,-0.3678,-0.3408,-0.3138,-0.2602,-0.2423,-0.2154,-0.1885,-0.1615,-0.1345,-0.0897,-0.1345,-0.1345,-0.0897,-0.0538,-0.0359,-0.9108,-0.8952,-0.8963,-0.9188,0.0,0.0,-0.9907,-1.0138,-1.028,-1.049,-1.0522,-1.0585,-1.074,-1.078,-1.0844,-1.1034,-1.1337,-1.161,-1.1705,-1.1763,-1.1834,-1.199,-1.182,-1.1927,-1.2431,-1.248,-1.2706,-1.317,-1.4206,-1.5258,-1.6223,-1.7375,-1.8182,-1.8679,-1.9028,-1.9344,-1.9656,-1.9926,-2.0246,-2.0511,-2.0562,-2.0781,-2.1159,-2.1303,-2.1665,-2.2159,-2.2508,-2.2614,-2.2633,-2.2579,-2.2297,-2.1999,-2.1761,-2.1498,-2.1158,-2.0797,-2.0399,-1.9922,-1.9539,-1.9075,-1.8549,-1.8279,-1.7881,-1.7508,-1.7385,-1.7144,-1.6861,-1.6724,-1.6382,-1.5981,-1.5411,-1.4992,-1.4482,-1.373,-1.3398,-1.2973,-1.2215,-1.1871,-1.1607,-1.0819,-1.0554,-1.0207,-0.9432,-0.9262,-0.8995,-0.8032,-0.7944,-0.768,-0.6881,-0.6523,-0.6254,-0.5991,-0.5366,-0.501,-0.4924,-0.4304,-0.3857,-0.3587,-0.3227,-0.2869,-0.2424,-0.2154,-0.1885,-0.1705,-0.1345,-0.0718,0.0179,-0.0897,-0.0897,0.0179,0.0269,0.0359,-0.9436,-0.9194,-0.9106,-0.9333,-0.9313,0.0,-0.9865,-0.9939,-0.997,-1.0386,-1.0407,-1.0474,-1.0514,-1.0522,-1.0522,-1.0522,-1.0726,-1.0986,-1.1317,-1.157,-1.1757,-1.1713,-1.1728,-1.1927,-1.2431,-1.2529,-1.2706,-1.317,-1.4256,-1.5616,-1.7335,-1.7886,-1.8356,-1.8798,-1.9093,-1.9436,-1.9811,-2.0118,-2.0347,-2.0575,-2.0662,-2.0749,-2.0775,-2.1236,-2.1407,-2.1367,-2.2223,-2.2496,-2.2347,-2.2503,-2.2445,-2.2197,-2.1824,-2.1498,-2.1233,-2.0862,-2.0453,-2.0107,-1.9726,-1.9274,-1.8808,-1.8549,-1.8076,-1.7461,-1.7314,-1.7076,-1.672,-1.6117,-1.5795,-1.5518,-1.5427,-1.5011,-1.4525,-1.3808,-1.3568,-1.3143,-1.2209,-1.2043,-1.178,-1.0901,-1.0727,-1.0386,-0.9432,-0.9262,-0.8995,-0.8032,-0.7944,-0.7588,-0.6881,-0.6523,-0.6251,-0.5719,-0.5275,-0.4924,-0.4748,-0.4214,-0.3767,-0.3587,-0.3138,-0.269,-0.2243,-0.1974,-0.1705,-0.1436,-0.0807,0.0179,0.1436,-0.0269,-0.0269,0.1346,0.0987,0.0987,-1.0162,-0.9968,-0.9775,-0.9494,-0.9584,0.0,-0.9351,-0.9501,-0.9714,-0.9962,-1.0025,-1.0121,-1.0415,-1.0522,-1.0522,-1.0522,-1.0726,-1.0947,-1.097,-1.1234,-1.1455,-1.1687,-1.1728,-1.1927,-1.2431,-1.2578,-1.2813,-1.317,-1.465,-1.5951,-1.702,-1.7867,-1.8476,-1.8798,-1.9251,-1.9668,-1.9978,-2.0321,-2.0636,-2.0838,-2.0911,-2.0947,-2.0947,-2.0993,-2.1195,-2.1472,-2.1442,-2.1827,-2.2425,-2.2129,-2.2152,-2.2309,-2.1874,-2.1635,-2.1509,-2.0926,-2.054,-2.027,-1.9736,-1.9341,-1.9008,-1.8617,-1.8134,-1.7647,-1.7461,-1.6954,-1.6307,-1.5886,-1.5619,-1.5412,-1.5248,-1.477,-1.4268,-1.3847,-1.3568,-1.3143,-1.2209,-1.2043,-1.178,-1.0901,-1.0727,-1.0386,-0.9432,-0.9262,-0.8995,-0.8032,-0.7944,-0.7588,-0.6609,-0.6432,-0.6166,-0.5549,-0.5188,-0.4924,-0.4748,-0.4034,-0.3676,-0.3587,-0.296,-0.2424,-0.2243,-0.1974,-0.1705,-0.1436,0.0179,0.1166,0.1436,0.1076,0.1076,0.1436,0.1345,0.1436,-1.0507,-1.0318,-1.014,-0.9809,-0.9678,0.0,0.0,-0.9464,-0.9481,-0.9698,-0.9771,-0.9835,-1.0129,-1.02,-1.0306,-1.0541,-1.0769,-1.0922,-1.0972,-1.1175,-1.1427,-1.1678,-1.1728,-1.1927,-1.2431,-1.2627,-1.3008,-1.3795,-1.5049,-1.6177,-1.7055,-1.797,-1.8679,-1.8987,-1.9408,-1.9772,-2.008,-2.0422,-2.0686,-2.0901,-2.0961,-2.0997,-2.0997,-2.0961,-2.1033,-2.1222,-2.129,-2.1478,-2.1809,-2.1968,-2.2061,-2.2104,-2.1779,-2.1698,-2.1635,-2.0926,-2.0669,-2.0475,-1.9813,-1.9407,-1.9142,-1.8684,-1.8134,-1.7647,-1.7529,-1.6908,-1.614,-1.5796,-1.5434,-1.5126,-1.5154,-1.4605,-1.401,-1.3675,-1.3417,-1.2937,-1.2097,-1.1946,-1.178,-1.0901,-1.0727,-1.0386,-0.9432,-0.9262,-0.8995,-0.8032,-0.7944,-0.7499,-0.6517,-0.6428,-0.6077,-0.528,-0.5099,-0.4832,-0.4304,-0.3857,-0.3587,-0.3406,-0.2781,-0.2334,-0.2243,-0.1884,-0.1345,-0.0718,0.0718,0.1436,0.1436,0.1525,0.1615,0.1615,0.1615,0.1794,-1.0901,-1.0628,-1.0473,-1.0312,-0.9973,-0.9678,0.0,0.0,0.0,-0.9579,-0.9557,-0.9568,-0.9811,-0.9827,-0.9971,-1.0416,-1.0615,-1.0714,-1.0855,-1.1004,0.0,-1.166,-1.1728,-1.1927,-1.2431,-1.2666,-1.3253,-1.4307,-1.5347,-1.6247,-1.7024,-1.8084,-1.8827,-1.9186,-1.95,-1.9875,-2.022,-2.0523,-2.0785,-2.0987,-2.1059,-2.1082,-2.1082,-2.1033,-2.0997,-2.0914,-2.1197,-2.1251,-2.114,-2.1857,-2.2035,-2.1773,-2.1796,-2.1761,-2.1635,-2.099,-2.0733,-2.0604,-1.9878,-1.9473,-1.9274,-1.8684,-1.8134,-1.7647,-1.7392,-1.676,-1.6052,-1.5705,-1.5201,-1.4844,-1.4965,-1.4355,-1.374,-1.356,-1.3213,-1.2751,-1.2046,-1.1899,-1.1718,-1.0895,-1.0727,-1.0386,-0.9432,-0.9262,-0.8995,-0.8032,-0.7944,-0.7499,-0.6517,-0.6428,-0.6074,-0.5099,-0.501,-0.4743,-0.3946,-0.3678,-0.3497,-0.3136,-0.2511,-0.2154,-0.2154,-0.1615,-0.0807,0.0269,0.0987,0.1436,0.1525,0.1794,0.1885,0.1885,0.1885,0.2063,-1.18,-1.1545,-1.1259,0.0,-1.0673,-1.0467,-1.0086,0.0,-0.9466,-0.9715,0.0,-0.9322,-0.9606,0.0,0.0,-0.9727,-0.982,-0.996,-1.0036,-1.0174,-1.0608,-1.1589,-1.1728,-1.1927,-1.2431,-1.289,-1.3392,-1.4,-1.5213,-1.6103,-1.6564,-1.8002,-1.8893,-1.9186,-1.9668,-2.008,-2.0372,-2.0785,-2.1033,-2.1193,-2.1277,-2.1375,-2.1375,-2.1229,-2.1095,-2.0997,-2.0801,-2.0875,-2.1102,-2.1441,-2.1699,-2.1832,-2.2042,-2.1949,-2.1635,-2.1106,-2.0786,-2.0604,-1.9878,-1.9605,-1.9473,-1.8741,-1.8076,-1.7392,-1.689,-1.6473,-1.614,-1.5468,-1.5056,-1.4864,-1.4687,-1.417,-1.3627,-1.3512,-1.3061,-1.2519,-1.2011,-1.175,-1.1422,-1.0859,-1.0727,-1.0386,-0.9432,-0.9262,-0.8995,-0.8032,-0.7944,-0.7499,-0.6517,-0.6428,-0.6074,-0.5099,-0.501,-0.4743,-0.3946,-0.3678,-0.3406,-0.2957,-0.2511,-0.2064,-0.1884,-0.1166,-0.0179,0.1256,0.1345,0.1525,0.1884,0.1794,0.1794,0.1794,0.2064,0.2422,-1.1977,-1.1828,0.0,0.0,0.0,0.0,-1.0476,0.0,-0.9815,0.0,0.0,0.0,0.0,0.0,0.0,0.0,-0.9827,-0.9918,-1.0001,-1.0047,-1.0303,-1.0951,0.0,0.0,-1.2657,-1.3035,-1.342,-1.3973,-1.4871,-1.577,-1.655,-1.7714,-1.8622,-1.9291,-1.9772,-2.0131,-2.0422,-2.0785,-2.1082,-2.118,-2.1326,-2.1423,-2.1423,-2.1326,-2.118,-2.0983,-2.0885,-2.0716,-2.0616,-2.1402,-2.1575,-2.1403,-2.2225,-2.2197,-2.1635,-2.1106,-2.085,-2.0604,-1.9878,-1.9605,-1.9473,-1.8674,-1.8008,-1.7392,-1.6751,-1.6473,-1.6132,-1.5417,-1.507,-1.4824,-1.4379,-1.383,-1.3347,-1.3174,-1.2736,-1.2198,-1.1909,-1.1688,-1.1427,-1.0773,-1.0636,-1.0386,-0.9432,-0.9262,-0.8995,-0.8032,-0.7944,-0.7499,-0.6517,-0.6428,-0.6074,-0.5099,-0.501,-0.4654,-0.3767,-0.3676,-0.3318,-0.2691,-0.2242,-0.1885,-0.1615,-0.0718,0.009,0.0987,0.1256,0.1525,0.1884,0.1974,0.2153,0.242,0.251,0.278,-1.2104,0.0,0.0,0.0,0.0,0.0,0.0,0.0,0.0,0.0,0.0,0.0,0.0,0.0,-0.9848,-0.9776,0.0,-0.9771,-0.9802,-0.9829,-0.9995,-1.0472,0.0,0.0,0.0,-1.3062,-1.3467,-1.3973,-1.4736,-1.5597,-1.6627,-1.7541,-1.8485,-1.9356,-1.9836,-2.0182,-2.0472,-2.0835,-2.1082,-2.1277,-2.1375,-2.1423,-2.1423,-2.1423,-2.1277,-2.0997,-2.0997,-2.0686,-2.0271,-2.1422,-2.1549,-2.1084,-2.2247,-2.2321,-2.1635,-2.1221,-2.0903,-2.0604,-1.9944,-1.9539,-1.9208,-1.8539,-1.794,-1.7401,-1.689,-1.6542,-1.6132,-1.5488,-1.5141,-1.4856,-1.4274,-1.3702,-1.3273,-1.2973,-1.2472,-1.205,-1.1825,-1.1644,-1.1316,-1.0799,-1.066,-1.0381,-0.9519,-0.9349,-0.8995,-0.8032,-0.7944,-0.7499,-0.6517,-0.6428,-0.6074,-0.5099,-0.501,-0.4654,-0.3676,-0.3587,-0.3229,-0.2424,-0.1974,-0.1615,-0.1256,-0.0448,0.0269,0.0897,0.1345,0.1705,0.1885,0.2154,0.2512,0.2957,0.2957,0.3136,0.0,0.0,0.0,-1.1877,0.0,0.0,0.0,0.0,-1.0654,0.0,0.0,0.0,-1.0018,-0.9972,-0.9855,-0.9476,-0.9417,0.0,0.0,-0.9139,-0.9532,-1.041,-1.1325,0.0,0.0,-1.3014,-1.3563,-1.3973,-1.4821,-1.5733,-1.6639,-1.7654,-1.8549,-1.9356,-1.9926,-2.0321,-2.061,-2.0871,-2.1131,-2.1423,-2.152,-2.152,-2.1423,-2.152,-2.1375,-2.0997,-2.0997,-2.0686,-2.0271,-2.1422,-2.1549,-2.1084,-2.2247,-2.2321,-2.1698,-2.1463,-2.1094,-2.0604,-2.0074,-1.9274,-1.8549,-1.8482,-1.8008,-1.7461,-1.7245,-1.676,-1.6202,-1.5638,-1.5355,-1.4982,-1.4274,-1.3928,-1.3645,-1.3046,-1.2459,-1.1951,-1.1858,-1.1502,-1.1115,-1.0934,-1.083,-1.0467,-0.9689,-0.9432,-0.8995,-0.8032,-0.7944,-0.7499,-0.6517,-0.6428,-0.6074,-0.5099,-0.501,-0.4654,-0.3676,-0.3587,-0.3229,-0.2244,-0.1705,-0.1166,-0.0718,-0.0269,0.0448,0.1345,0.1705,0.1974,0.2154,0.2424,0.2691,0.3227,0.3227,0.3408,0.0,0.0,-1.2026,-1.1927,0.0,0.0,0.0,0.0,0.0,0.0,0.0,0.0,0.0,-1.0437,-1.031,-0.9919,-0.9656,-0.9504,0.0,-0.9342,-0.9466,-0.999,-1.0639,-1.1407,0.0,0.0,-1.33,-1.3952,-1.4537,-1.5407,-1.6616,-1.7383,-1.8236,-1.9344,-1.9926,-2.0321,-2.061,-2.0885,-2.1131,-2.1423,-2.1471,-2.1423,-2.1423,-2.1471,-2.1277,-2.0997,-2.0997,-2.0686,-2.0246,-2.1025,-2.1222,-2.1047,-2.1842,-2.1934,-2.1698,-2.1463,-2.1083,-2.0604,-1.9944,-1.9142,-1.8482,-1.8482,-1.8076,-1.7461,-1.7245,-1.6751,-1.6211,-1.5788,-1.5426,-1.5062,-1.4497,-1.4072,-1.3645,-1.3046,-1.2452,-1.1961,-1.1759,-1.1313,-1.0948,-1.0947,-1.0689,-1.0303,-0.9666,-0.9432,-0.8995,-0.8032,-0.7944,-0.7499,-0.6517,-0.6428,-0.6074,-0.5099,-0.501,-0.4654,-0.3676,-0.305,-0.2512,-0.2243,-0.1705,-0.1166,-0.0718,0.009,0.0718,0.1346,0.1705,0.1974,0.2243,0.2601,0.3048,0.3497,0.3587,0.3855,-1.3058,-1.2633,0.0,-1.2013,-1.1828,0.0,-1.1569,0.0,-1.1326,0.0,0.0,0.0,0.0,-1.0916,-1.0797,-1.0356,-1.0109,-0.9906,0.0,-0.9584,-0.9609,-0.9841,-1.0299,-1.1031,-1.2128,-1.2619,-1.318,-1.3941,-1.4395,-1.5159,-1.6351,0.0,-1.8007,-1.9101,-1.9825,-2.0321,-2.061,-2.0885,-2.1131,-2.1423,-2.1471,-2.1471,-2.1423,-2.1471,-2.1277,-2.0997,-2.0997,-2.0686,-2.022,-2.0873,-2.1046,-2.1035,-2.1575,-2.1765,-2.1698,-2.1549,-2.1094,-2.0388,-1.9802,-1.9152,-1.8482,-1.8482,-1.8076,-1.747,-1.7323,-1.683,-1.6272,-1.6008,-1.5568,-1.5062,-1.4569,-1.4145,-1.371,-1.3046,-1.2526,-1.215,-1.1781,-1.1335,-1.0987,-1.0992,-1.0656,-1.0214,-0.9913,-0.9515,-0.8995,-0.8032,-0.7944,-0.7499,-0.6517,-0.6428,-0.6074,-0.5099,-0.501,-0.4654,-0.3676,-0.2781,-0.2243,-0.2243,-0.1705,-0.1166,-0.0718,0.0179,0.0897,0.1436,0.1794,0.2064,0.2243,0.2778,0.3227,0.3587,0.3946,0.4212]},{"header":{"parameterUnit":"m.s-1","parameterCategory":1,"la1":30.6,"la2":29.2853,"lo1":-89.7004,"lo2":-87.6739,"dy":0.0162,"dx":0.0183,"nx":112,"ny":82,"refTime":"2023-06-05T00:00:00:Z","depth":0,"parameterNumber":3,"parameterNumberName":"V-component_of_WINDS"},"data":[0.0,0.0,0.0,0.0,0.0,0.0,0.0,0.0,0.0,0.0,0.0,0.0,0.0,0.0,0.0,0.0,0.0,0.0,0.0,0.0,0.0,0.0,0.0,0.0,0.0,0.0,0.0,0.0,0.0,0.0,0.0,0.0,0.0,0.0,0.0,0.0,0.0,0.0,0.0,0.0,0.0,0.0,0.0,0.0,0.0,0.0,0.0,0.0,0.0,0.0,0.0,0.0,0.0,0.0,0.0,0.0,0.0,0.0,0.0,0.0,0.0,0.0,0.0,0.0,0.0,0.0,0.0,0.0,0.0,0.0,0.0,0.0,0.0,0.0,0.0,0.0,0.0,0.0,0.0,0.0,0.0,0.0,0.0,0.0,0.0,0.0,0.0,0.0,0.0,0.0,-1.9309,-2.0438,-2.1555,-2.2306,-2.2369,-2.1341,-2.0763,-2.0816,0.0,0.0,0.0,0.0,0.0,0.0,0.0,0.0,0.0,0.0,0.0,0.0,0.0,0.0,0.0,0.0,0.0,0.0,0.0,0.0,0.0,0.0,0.0,0.0,0.0,0.0,0.0,0.0,0.0,0.0,0.0,0.0,0.0,0.0,0.0,0.0,0.0,0.0,0.0,0.0,0.0,0.0,0.0,0.0,0.0,0.0,0.0,0.0,0.0,0.0,0.0,0.0,0.0,0.0,0.0,0.0,0.0,0.0,0.0,0.0,0.0,0.0,0.0,0.0,0.0,0.0,0.0,0.0,0.0,0.0,0.0,0.0,0.0,0.0,0.0,0.0,0.0,0.0,0.0,0.0,0.0,0.0,0.0,0.0,0.0,0.0,0.0,0.0,0.0,0.0,0.0,0.0,0.0,0.0,0.0,0.0,0.0,0.0,0.0,0.0,0.0,0.0,0.0,0.0,-2.1403,-2.3272,-2.3751,-2.3994,-2.4117,-2.2886,-2.2139,-2.2267,0.0,0.0,0.0,0.0,0.0,0.0,0.0,0.0,0.0,0.0,0.0,0.0,0.0,0.0,0.0,0.0,0.0,0.0,0.0,0.0,0.0,0.0,0.0,0.0,0.0,0.0,0.0,0.0,0.0,0.0,0.0,0.0,0.0,0.0,0.0,0.0,0.0,0.0,0.0,0.0,0.0,0.0,0.0,0.0,0.0,0.0,0.0,0.0,0.0,0.0,0.0,0.0,0.0,0.0,0.0,0.0,0.0,0.0,0.0,0.0,0.0,0.0,0.0,0.0,0.0,0.0,0.0,0.0,0.0,0.0,0.0,0.0,0.0,0.0,0.0,0.0,0.0,0.0,0.0,0.0,0.0,0.0,0.0,0.0,0.0,0.0,0.0,0.0,0.0,0.0,0.0,0.0,0.0,0.0,0.0,0.0,0.0,0.0,0.0,0.0,0.0,0.0,0.0,-2.204,-2.3201,-2.5008,-2.5319,-2.541,-2.5521,-2.4218,-2.3438,-2.3504,-2.1279,0.0,0.0,0.0,0.0,0.0,0.0,0.0,0.0,0.0,0.0,0.0,0.0,0.0,0.0,0.0,0.0,0.0,0.0,0.0,0.0,0.0,0.0,0.0,0.0,0.0,0.0,0.0,0.0,0.0,0.0,0.0,0.0,0.0,0.0,0.0,0.0,0.0,0.0,0.0,0.0,0.0,0.0,0.0,0.0,0.0,0.0,0.0,0.0,0.0,0.0,0.0,0.0,0.0,0.0,0.0,0.0,0.0,0.0,0.0,0.0,0.0,0.0,0.0,0.0,0.0,0.0,0.0,0.0,0.0,0.0,0.0,0.0,0.0,0.0,0.0,0.0,0.0,0.0,0.0,0.0,0.0,0.0,0.0,0.0,0.0,0.0,0.0,0.0,0.0,0.0,0.0,0.0,0.0,0.0,0.0,0.0,0.0,0.0,0.0,0.0,0.0,0.0,-2.3781,-2.4654,-2.6099,-2.6503,-2.672,-2.6753,-2.5388,-2.4552,-2.4586,-2.2272,0.0,0.0,0.0,0.0,0.0,0.0,0.0,0.0,0.0,0.0,0.0,0.0,0.0,0.0,0.0,0.0,0.0,0.0,0.0,0.0,0.0,0.0,0.0,0.0,0.0,0.0,0.0,0.0,0.0,0.0,0.0,0.0,0.0,0.0,0.0,0.0,0.0,0.0,0.0,0.0,0.0,0.0,0.0,0.0,0.0,0.0,0.0,0.0,0.0,0.0,0.0,0.0,0.0,0.0,0.0,0.0,0.0,0.0,0.0,0.0,0.0,0.0,0.0,0.0,0.0,0.0,0.0,0.0,0.0,0.0,0.0,0.0,0.0,0.0,0.0,0.0,0.0,0.0,0.0,0.0,0.0,0.0,0.0,0.0,0.0,0.0,0.0,0.0,0.0,0.0,0.0,0.0,0.0,0.0,0.0,0.0,0.0,0.0,0.0,0.0,0.0,0.0,-2.4627,-2.564,-2.6568,-2.7404,-2.7885,-2.7885,-2.6428,-2.549,-2.5508,-2.2617,0.0,0.0,0.0,0.0,0.0,0.0,0.0,0.0,0.0,0.0,0.0,0.0,0.0,0.0,0.0,0.0,0.0,0.0,0.0,0.0,0.0,0.0,0.0,0.0,0.0,0.0,0.0,0.0,0.0,0.0,0.0,0.0,0.0,0.0,0.0,0.0,0.0,0.0,0.0,0.0,0.0,0.0,0.0,0.0,0.0,0.0,0.0,0.0,0.0,0.0,0.0,0.0,0.0,0.0,0.0,0.0,0.0,0.0,0.0,0.0,0.0,0.0,0.0,0.0,0.0,0.0,0.0,0.0,0.0,0.0,0.0,0.0,0.0,0.0,0.0,0.0,0.0,0.0,0.0,0.0,0.0,0.0,0.0,0.0,0.0,0.0,0.0,0.0,0.0,0.0,0.0,0.0,0.0,0.0,0.0,0.0,0.0,0.0,0.0,0.0,0.0,0.0,-2.5433,-2.6431,-2.7282,-2.8171,-2.8463,-2.7924,-2.6863,-2.5964,-2.5384,0.0,0.0,0.0,0.0,0.0,0.0,0.0,0.0,0.0,0.0,0.0,0.0,0.0,0.0,0.0,0.0,0.0,0.0,0.0,0.0,0.0,0.0,0.0,0.0,0.0,0.0,0.0,0.0,0.0,0.0,0.0,0.0,0.0,0.0,0.0,0.0,0.0,0.0,0.0,0.0,0.0,0.0,0.0,0.0,0.0,0.0,0.0,0.0,0.0,0.0,0.0,0.0,0.0,0.0,0.0,0.0,0.0,0.0,0.0,0.0,0.0,0.0,0.0,0.0,0.0,0.0,0.0,0.0,0.0,0.0,0.0,0.0,0.0,0.0,0.0,0.0,0.0,0.0,0.0,0.0,0.0,0.0,0.0,0.0,0.0,0.0,0.0,0.0,0.0,0.0,0.0,0.0,0.0,0.0,0.0,0.0,0.0,0.0,0.0,0.0,0.0,0.0,-2.5012,-2.6131,-2.7101,-2.7958,-2.8796,-2.9076,-2.8496,-2.7416,-2.6523,-2.5891,0.0,0.0,0.0,0.0,0.0,0.0,0.0,0.0,0.0,0.0,0.0,0.0,0.0,0.0,0.0,0.0,0.0,0.0,0.0,0.0,0.0,0.0,0.0,0.0,0.0,0.0,0.0,0.0,0.0,0.0,0.0,0.0,0.0,0.0,0.0,0.0,0.0,0.0,0.0,0.0,0.0,0.0,0.0,0.0,0.0,0.0,0.0,0.0,0.0,0.0,0.0,0.0,0.0,0.0,0.0,0.0,0.0,0.0,0.0,0.0,0.0,0.0,0.0,0.0,0.0,0.0,0.0,0.0,0.0,0.0,0.0,0.0,0.0,0.0,0.0,0.0,0.0,0.0,0.0,0.0,0.0,0.0,0.0,0.0,0.0,0.0,0.0,0.0,0.0,0.0,0.0,0.0,0.0,0.0,0.0,0.0,0.0,0.0,0.0,0.0,0.0,0.0,-2.5551,-2.6691,-2.7651,-2.8512,-2.9326,-2.9801,-2.9782,-2.8209,-2.7201,0.0,0.0,0.0,0.0,0.0,0.0,0.0,0.0,0.0,0.0,0.0,0.0,0.0,0.0,0.0,0.0,0.0,0.0,0.0,0.0,0.0,0.0,0.0,0.0,0.0,0.0,0.0,0.0,0.0,0.0,0.0,0.0,0.0,0.0,0.0,0.0,0.0,0.0,0.0,0.0,0.0,0.0,0.0,0.0,0.0,0.0,0.0,0.0,0.0,0.0,0.0,0.0,0.0,0.0,0.0,0.0,0.0,0.0,0.0,0.0,0.0,0.0,0.0,0.0,0.0,0.0,0.0,0.0,0.0,0.0,0.0,0.0,0.0,0.0,0.0,0.0,0.0,0.0,0.0,0.0,0.0,0.0,0.0,0.0,0.0,0.0,0.0,0.0,0.0,0.0,0.0,0.0,0.0,0.0,0.0,0.0,0.0,0.0,0.0,0.0,0.0,0.0,0.0,-2.5849,-2.6916,-2.7861,-2.8722,-2.958,-2.9817,-2.9148,-2.8093,-2.7195,-2.6537,0.0,0.0,0.0,0.0,0.0,0.0,0.0,0.0,0.0,0.0,0.0,0.0,0.0,0.0,0.0,0.0,0.0,0.0,0.0,0.0,0.0,0.0,0.0,0.0,0.0,0.0,0.0,0.0,0.0,0.0,0.0,0.0,0.0,0.0,0.0,0.0,0.0,0.0,0.0,0.0,0.0,0.0,0.0,0.0,0.0,0.0,0.0,0.0,0.0,0.0,0.0,0.0,0.0,0.0,0.0,0.0,0.0,0.0,0.0,0.0,0.0,0.0,0.0,0.0,0.0,0.0,0.0,0.0,0.0,0.0,0.0,0.0,0.0,0.0,0.0,0.0,0.0,0.0,0.0,0.0,0.0,0.0,0.0,0.0,0.0,0.0,0.0,0.0,0.0,0.0,0.0,0.0,0.0,0.0,0.0,0.0,0.0,0.0,0.0,0.0,0.0,0.0,-2.6657,-2.7631,-2.853,-2.9417,-2.996,-3.0043,-2.9453,-2.8611,-2.7736,-2.6844,0.0,0.0,0.0,0.0,0.0,0.0,0.0,0.0,0.0,0.0,0.0,0.0,0.0,0.0,0.0,0.0,0.0,0.0,0.0,0.0,0.0,0.0,0.0,0.0,0.0,0.0,0.0,0.0,0.0,0.0,0.0,0.0,0.0,0.0,0.0,0.0,0.0,0.0,0.0,0.0,0.0,0.0,0.0,0.0,0.0,0.0,0.0,0.0,0.0,0.0,0.0,0.0,0.0,0.0,0.0,0.0,0.0,0.0,0.0,0.0,0.0,0.0,0.0,0.0,0.0,0.0,0.0,0.0,0.0,0.0,0.0,0.0,0.0,0.0,0.0,0.0,0.0,0.0,0.0,0.0,0.0,0.0,0.0,0.0,0.0,0.0,0.0,0.0,0.0,0.0,0.0,0.0,0.0,0.0,0.0,0.0,0.0,0.0,0.0,0.0,0.0,0.0,-2.7781,-2.8618,-2.944,-3.0314,-3.041,-3.0379,-3.0304,-2.9462,-2.8555,-2.7752,0.0,0.0,0.0,0.0,0.0,0.0,0.0,0.0,0.0,0.0,0.0,0.0,0.0,0.0,0.0,0.0,0.0,0.0,0.0,0.0,0.0,0.0,0.0,0.0,0.0,0.0,0.0,0.0,0.0,0.0,0.0,0.0,0.0,0.0,0.0,0.0,0.0,0.0,0.0,0.0,0.0,0.0,0.0,0.0,0.0,0.0,0.0,0.0,0.0,0.0,0.0,0.0,0.0,0.0,0.0,0.0,0.0,0.0,0.0,0.0,-2.4994,0.0,0.0,0.0,0.0,0.0,0.0,0.0,0.0,0.0,0.0,0.0,0.0,0.0,0.0,0.0,0.0,0.0,0.0,0.0,0.0,0.0,0.0,0.0,0.0,0.0,0.0,0.0,0.0,0.0,0.0,0.0,0.0,0.0,0.0,0.0,0.0,0.0,0.0,0.0,0.0,0.0,-2.8618,-2.9036,-2.9481,-3.0309,-3.0406,-3.0364,-3.0316,-2.95,-2.8606,-2.7746,-2.6689,0.0,0.0,0.0,0.0,0.0,0.0,0.0,0.0,0.0,0.0,0.0,0.0,0.0,0.0,0.0,0.0,0.0,0.0,0.0,0.0,0.0,0.0,0.0,0.0,0.0,0.0,0.0,0.0,0.0,0.0,0.0,0.0,0.0,0.0,0.0,0.0,0.0,0.0,0.0,0.0,0.0,0.0,0.0,0.0,0.0,0.0,0.0,0.0,0.0,0.0,0.0,0.0,0.0,0.0,0.0,0.0,0.0,0.0,0.0,0.0,-2.6278,0.0,0.0,0.0,0.0,0.0,0.0,0.0,0.0,0.0,0.0,0.0,0.0,0.0,0.0,0.0,0.0,0.0,0.0,0.0,0.0,0.0,0.0,0.0,0.0,0.0,0.0,0.0,0.0,0.0,0.0,0.0,0.0,0.0,0.0,0.0,0.0,0.0,0.0,0.0,0.0,-2.903,-2.991,-3.0614,-3.0979,-3.1403,-3.1476,-3.1001,-3.0541,-2.9698,-2.8415,-2.7491,0.0,0.0,0.0,0.0,0.0,0.0,0.0,0.0,0.0,0.0,0.0,0.0,0.0,0.0,0.0,0.0,0.0,0.0,0.0,0.0,0.0,0.0,0.0,0.0,0.0,0.0,0.0,0.0,0.0,0.0,0.0,0.0,0.0,0.0,0.0,0.0,0.0,0.0,0.0,0.0,0.0,0.0,0.0,0.0,0.0,0.0,0.0,0.0,0.0,0.0,0.0,0.0,0.0,-3.1543,-3.227,-3.2346,-3.3071,-3.3402,-3.3237,-3.0419,-2.9096,-2.8945,-2.8807,0.0,0.0,0.0,0.0,0.0,0.0,0.0,0.0,0.0,0.0,0.0,0.0,0.0,0.0,0.0,0.0,0.0,0.0,0.0,0.0,0.0,0.0,0.0,0.0,-2.9031,-2.916,-2.9045,0.0,0.0,0.0,0.0,0.0,0.0,0.0,0.0,0.0,0.0,0.0,-2.9641,-3.1032,-3.1997,-3.1915,-3.2571,-3.2656,-3.1775,-3.1636,-3.0861,-2.9116,-2.8249,-2.7071,0.0,0.0,0.0,0.0,0.0,0.0,0.0,0.0,0.0,0.0,0.0,0.0,0.0,0.0,0.0,0.0,0.0,0.0,0.0,0.0,0.0,0.0,0.0,0.0,0.0,0.0,0.0,0.0,0.0,0.0,0.0,0.0,-2.1079,-2.146,0.0,0.0,0.0,0.0,0.0,0.0,0.0,0.0,0.0,0.0,0.0,0.0,0.0,-3.1681,-3.2516,-3.2679,-3.2785,-3.2786,-3.3088,-3.3223,-3.3227,-3.335,-3.3397,-3.3379,-3.2927,0.0,-3.1539,-3.078,0.0,0.0,0.0,0.0,0.0,0.0,0.0,0.0,0.0,0.0,0.0,0.0,0.0,0.0,0.0,0.0,0.0,0.0,0.0,0.0,0.0,0.0,-3.058,-3.1383,-3.2166,-3.2721,0.0,-3.0328,-2.8135,-2.8008,-2.7967,0.0,0.0,0.0,0.0,0.0,0.0,0.0,-3.137,-3.2276,-3.2844,-3.2833,-3.2926,-3.2651,-3.1775,-3.1636,-3.0861,-2.9116,-2.8817,-2.7975,-2.6307,-2.5466,0.0,0.0,0.0,0.0,0.0,0.0,0.0,0.0,0.0,0.0,0.0,0.0,0.0,0.0,0.0,0.0,0.0,0.0,0.0,0.0,0.0,0.0,0.0,0.0,0.0,0.0,0.0,0.0,0.0,-2.1824,-2.3088,-2.3249,-2.4185,-2.5011,0.0,0.0,0.0,0.0,0.0,0.0,0.0,0.0,0.0,-3.1893,-3.2357,-3.2807,-3.3245,-3.4257,-3.4773,-3.4822,-3.5806,-3.63,-3.6324,-3.6327,-3.6306,-3.6272,-3.6264,-3.5767,-3.4823,-3.3005,-3.2016,-3.1641,0.0,0.0,0.0,0.0,-3.0967,-3.0956,-3.0914,-3.0916,-3.0906,-3.0878,0.0,0.0,0.0,0.0,0.0,0.0,0.0,0.0,0.0,0.0,-3.2227,-3.2674,-3.3064,-3.3356,-3.3389,-3.2207,-3.1092,0.0,-3.0943,-3.092,-3.0887,0.0,0.0,0.0,0.0,-3.2094,-3.2482,-3.3233,-3.3724,-3.374,-3.414,-3.4045,-3.3179,-3.2641,-3.1795,-3.0535,-2.9513,-2.8402,-2.7186,-2.6307,-2.5249,0.0,0.0,0.0,0.0,0.0,0.0,0.0,0.0,0.0,0.0,0.0,0.0,0.0,0.0,0.0,0.0,0.0,0.0,0.0,0.0,0.0,0.0,0.0,0.0,0.0,0.0,0.0,0.0,-2.375,-2.5042,-2.5462,-2.6669,-2.7708,0.0,0.0,0.0,0.0,0.0,0.0,-3.2211,-3.2613,-3.3189,-3.4071,-3.4376,-3.4567,-3.4639,-3.5908,-3.6596,-3.6653,-3.7923,-3.8547,-3.8594,-3.8572,-3.8541,-3.8506,-3.8502,-3.8132,-3.737,-3.526,-3.4086,-3.3632,-3.3608,-3.3446,-3.3196,-3.3192,-3.3178,-3.3161,-3.3102,-3.3062,-3.3081,-3.3006,-3.2995,-3.2995,-3.2995,0.0,0.0,0.0,0.0,-3.3091,-3.3102,-3.3306,-3.3522,-3.3595,-3.3784,-3.3965,-3.4033,-3.4054,-3.3925,0.0,-3.3276,-3.3238,-3.3231,0.0,0.0,0.0,0.0,-3.342,-3.3439,-3.4124,-3.4623,-3.4627,-3.5162,-3.5143,-3.427,-3.3596,-3.2749,-3.168,-3.0375,-2.9168,-2.8077,-2.7211,-2.6075,-2.4583,0.0,0.0,0.0,0.0,0.0,0.0,0.0,0.0,0.0,0.0,0.0,0.0,0.0,0.0,0.0,0.0,0.0,0.0,0.0,0.0,0.0,0.0,0.0,0.0,0.0,0.0,0.0,0.0,0.0,-2.809,-2.8399,0.0,0.0,0.0,0.0,-3.2535,-3.266,-3.3128,-3.4118,-3.5018,-3.5892,-3.6783,-3.7658,-3.8176,-3.8233,-3.8327,-3.8365,-3.8381,-3.8512,-3.8594,-3.8593,-3.8534,-3.8491,-3.8506,-3.8497,-3.848,-3.8363,-3.7409,-3.6027,-3.4536,-3.4462,-3.3934,-3.3188,-3.3132,-3.3112,-3.3102,-3.3018,-3.3014,-3.2995,-3.2995,-3.2995,-3.2995,-3.2995,-3.2995,0.0,0.0,-3.2995,-3.3018,-3.3072,-3.3712,-3.4371,-3.4423,-3.5079,-3.5684,-3.5753,-3.5812,-3.5388,0.0,-3.3345,-3.3295,-3.3297,0.0,-3.3195,-3.318,-3.3848,-3.4323,-3.4341,-3.5044,-3.5531,-3.5526,-3.5509,-3.5143,-3.427,-3.4095,-3.3338,-3.17,-3.1527,-3.0701,-2.8996,-2.8159,-2.7309,-2.6393,-2.4771,0.0,0.0,0.0,0.0,0.0,0.0,0.0,0.0,0.0,0.0,0.0,0.0,0.0,0.0,0.0,0.0,0.0,0.0,0.0,0.0,0.0,0.0,0.0,0.0,0.0,0.0,0.0,0.0,-2.93,-3.0402,0.0,-3.213,-3.2756,-3.3527,-3.4462,-3.5123,-3.5871,-3.6831,-3.724,-3.7586,-3.7895,-3.828,-3.8486,-3.8502,-3.9068,-3.9359,-3.9411,-3.9941,-4.0212,-4.0213,-4.018,-4.016,-4.0115,-4.0103,-3.9786,-3.9245,-3.8899,-3.8066,-3.7039,-3.6975,-3.6736,-3.6405,-3.6392,-3.6346,-3.6318,-3.6234,-3.6208,-3.6131,-3.5498,-3.5311,-3.5215,-3.4658,-3.4485,-3.4485,-3.4532,-3.4962,-3.5393,-3.5451,-3.6161,-3.6867,-3.692,-3.7228,-3.7491,-3.7559,-3.7589,-3.7424,-3.6795,-3.5792,-3.5026,-3.4982,-3.4918,-3.4874,-3.4881,-3.5078,-3.5243,-3.5232,-3.5441,-3.5589,-3.5604,-3.5547,-3.5374,-3.5064,-3.4493,-3.3673,-3.2513,-3.1917,-3.0817,-2.9072,-2.872,-2.7946,-2.6584,-2.5435,-2.4591,0.0,0.0,0.0,0.0,0.0,0.0,0.0,0.0,0.0,0.0,0.0,0.0,0.0,0.0,0.0,0.0,0.0,0.0,0.0,0.0,0.0,0.0,0.0,0.0,0.0,-2.9364,-3.079,-3.1535,-3.268,-3.3691,-3.4393,-3.5038,-3.5694,-3.6356,-3.7007,-3.7771,-3.8685,-3.8808,-3.8972,-3.926,-3.9349,-3.9379,-3.9387,-3.9949,-4.0252,-4.0312,-4.0856,-4.1099,-4.1109,-4.1076,-4.1037,-4.0987,-4.0993,-4.0665,-4.0099,-4.0063,-3.9714,-3.9121,-3.85,-3.8244,-3.8187,-3.8163,-3.8112,-3.8064,-3.7993,-3.7963,-3.7867,-3.7229,-3.7041,-3.6926,-3.6351,-3.6178,-3.6197,-3.6228,-3.6661,-3.7127,-3.7189,-3.7675,-3.8187,-3.8244,-3.8326,-3.8391,-3.8449,-3.8472,-3.851,-3.8495,-3.7597,-3.683,-3.6781,-3.674,-3.6689,-3.667,-3.6638,-3.659,-3.6589,-3.6276,-3.6057,-3.6009,-3.5714,-3.5522,-3.5507,-3.4968,-3.4263,-3.3403,-3.2519,-3.1392,-2.9934,-2.9332,-2.8537,-2.7462,-2.6341,-2.5235,-2.4138,0.0,0.0,0.0,0.0,0.0,0.0,0.0,0.0,0.0,0.0,0.0,0.0,0.0,0.0,0.0,0.0,0.0,0.0,0.0,0.0,0.0,0.0,0.0,-2.9587,-3.1205,-3.3034,-3.4811,-3.5179,-3.5962,-3.7736,-3.7998,-3.8099,-3.823,-3.8343,-3.8792,-3.9634,-3.9777,-4.0202,-4.1052,-4.115,-4.1179,-4.1138,-4.1131,-4.1132,-4.111,-4.1108,-4.1109,-4.1085,-4.1031,-4.0994,-4.1007,-4.0996,-4.0954,-4.0907,-4.0888,-4.0815,-4.0539,-3.8914,-3.8284,-3.8252,-3.813,-3.8075,-3.807,-3.7996,-3.7964,-3.7964,-3.7945,-3.7926,-3.7926,-3.7907,-3.7888,-3.7888,-3.7888,-3.7901,-3.7947,-3.8012,-3.8103,-3.8189,-3.8252,-3.8332,-3.8394,-3.8471,-3.8526,-3.8589,-3.858,-3.8573,-3.8565,-3.8514,-3.8502,-3.8474,-3.842,-3.8408,0.0,-3.8304,-3.7558,-3.6983,-3.6819,-3.6093,-3.5605,-3.5507,-3.5493,-3.5141,-3.4237,-3.3391,-3.2532,-3.1642,-3.0033,-2.9148,-2.9094,-2.7547,-2.5934,-2.4312,0.0,0.0,0.0,0.0,0.0,0.0,0.0,0.0,0.0,0.0,0.0,0.0,0.0,0.0,0.0,0.0,0.0,0.0,0.0,0.0,0.0,-3.0881,-3.2042,-3.16,-3.3109,-3.4488,-3.5064,-3.6342,-3.7371,-3.7921,-3.8653,-3.912,-3.9208,-4.0393,-4.1246,-4.1532,-4.2176,-4.2662,-4.2949,-4.2978,-4.2672,-4.205,-4.2049,-4.1726,-4.1104,-4.1109,-4.1067,-4.1031,-4.1019,-4.0993,-4.0988,-4.0954,-4.0927,-4.0888,-4.0804,-4.0738,-4.0655,-4.0191,-3.9966,-3.9937,-3.9841,-3.9749,-3.967,-3.9635,-3.9602,-3.9451,-3.8821,-3.8593,-3.8442,-3.785,-3.7716,-3.7752,-3.7749,-3.8259,-3.8788,-3.885,-3.9354,-3.9875,-3.9992,-4.0036,-4.0068,-4.0189,-4.026,-4.0324,-4.0384,-4.0391,-3.998,-3.8723,-3.8502,-3.8483,-3.8416,-3.8405,0.0,-3.8306,-3.8091,-3.7661,-3.6877,-3.6595,-3.6203,-3.5565,-3.5493,-3.5109,-3.4191,-3.389,-3.3127,-3.1667,-3.1156,-3.0336,-2.911,-2.8096,-2.7363,0.0,0.0,0.0,0.0,0.0,0.0,0.0,0.0,0.0,0.0,0.0,0.0,0.0,0.0,0.0,0.0,0.0,0.0,0.0,0.0,0.0,0.0,-3.254,-3.3857,-3.3961,-3.4887,-3.587,-3.6728,-3.7798,-3.8667,-3.9096,-4.001,-4.0613,-4.0675,-4.1993,-4.2802,-4.2844,-4.335,-4.3665,-4.3704,-4.3707,-4.3452,-4.2948,-4.2585,-4.2155,-4.1632,-4.1242,-4.105,-4.0994,-4.1006,-4.0976,-4.0965,-4.0917,-4.0888,-4.0846,-4.0738,-4.0681,0.0,0.0,0.0,0.0,0.0,-4.0341,-4.0252,-4.0252,-4.0215,-4.0061,-3.9566,-3.9375,-3.926,-3.8803,-3.8671,-3.8709,-3.8746,-3.9145,-3.9581,-3.9632,-4.0079,-4.0519,-4.0598,-4.0662,-4.073,-4.0839,-4.0906,-4.0984,-4.1039,-4.1085,0.0,-3.9765,-3.9598,-3.9583,-3.9538,-3.9512,-3.9457,-3.9403,-3.9081,-3.8601,-3.7958,-3.7231,-3.6588,-3.6051,-3.5671,0.0,0.0,0.0,-3.335,-3.1667,-3.1597,0.0,0.0,0.0,-2.8309,-2.7995,0.0,0.0,0.0,-2.4145,-2.3457,0.0,0.0,0.0,0.0,0.0,0.0,0.0,0.0,0.0,0.0,0.0,0.0,0.0,0.0,0.0,0.0,-3.4099,-3.5247,-3.6387,-3.6594,-3.7236,-3.8917,-3.9311,-3.983,-4.0784,-4.1632,-4.218,-4.2344,-4.3218,-4.3747,-4.3754,0.0,0.0,0.0,0.0,-4.3944,-4.3841,-4.3072,-4.2637,-4.2515,-4.159,-4.1136,-4.1136,-4.1027,-4.0945,-4.0898,-4.0888,-4.0846,-4.0788,-4.0713,-4.0642,-4.0593,-4.0588,-4.0543,-4.0457,-4.0342,-4.0252,-4.0215,-4.0177,0.0,0.0,-4.0096,-4.0077,-4.0096,-4.0096,-4.0077,-4.0098,-4.0157,-4.0196,-4.0215,-4.027,-4.0375,-4.0489,-4.0489,-4.0607,-4.0706,-4.0784,-4.0849,-4.0921,-4.1,-4.1042,-4.1094,-4.1099,-4.1093,-4.1101,-4.1106,-4.1033,-4.0976,-4.0917,-4.0227,-3.9658,-3.9419,0.0,0.0,-3.6733,-3.5974,-3.5479,-3.53,-3.4534,-3.3417,-3.193,-3.1789,-3.0976,-2.941,-2.9445,-2.9101,-2.8277,-2.826,-2.8273,-2.829,-2.5939,-2.4375,0.0,0.0,0.0,0.0,0.0,0.0,0.0,0.0,0.0,0.0,0.0,0.0,0.0,0.0,0.0,-3.2724,-3.4414,-3.6287,-3.7871,-3.8343,-3.8728,-3.9208,-3.9951,-4.0803,-4.1745,-4.2033,-4.2499,-4.3272,-4.4143,-4.4676,-4.4729,-4.5416,-4.5792,-4.5799,-4.58,-4.5458,-4.477,-4.452,-4.4065,-4.3358,0.0,0.0,-4.1945,-4.1237,-4.0869,-4.0818,-4.0823,-4.0781,-4.0706,-4.0662,-4.0583,-4.0515,-4.0515,-4.0447,-4.0323,-4.0252,-4.0215,-4.0177,-4.0137,-4.0077,-4.0017,-4.0017,-3.9975,-3.9933,-3.9933,-3.9994,0.0,-4.0036,-4.0118,-4.0196,-4.0234,-4.0325,-4.043,-4.0492,-4.0564,-4.0662,-4.0769,-4.0856,-4.0907,-4.0999,-4.1045,-4.11,-4.1097,-4.1093,-4.1094,-4.1109,-4.1045,-4.0976,-4.0917,-4.071,-4.0273,-3.9482,-3.9047,-3.8238,-3.6814,-3.6496,-3.6063,-3.5346,-3.4492,-3.388,-3.3551,-3.2905,-3.2121,-3.113,-3.1176,-3.0828,-3.0017,-2.9423,-2.9187,-2.9221,-2.8086,-2.7089,0.0,0.0,0.0,0.0,0.0,0.0,0.0,0.0,0.0,0.0,0.0,-3.002,-3.0687,0.0,-3.4284,-3.4311,-3.6415,-3.8232,-3.8726,-3.9377,-3.9835,-3.9933,-4.081,-4.1606,-4.211,-4.2995,-4.3747,-4.4228,-4.5091,-4.5616,-4.5655,-4.6049,-4.6305,-4.6307,-4.6295,-4.6069,-4.5605,-4.5137,-4.4655,-4.4199,-4.3314,-4.2869,-4.283,-4.2354,-4.2117,-4.2059,-4.2054,-4.1996,-4.1903,-4.1407,-4.0893,-4.0449,-4.0396,-4.0362,-4.0289,-4.0215,-4.0177,-4.0137,-4.0077,-4.0015,-3.9954,-3.9954,-3.9933,-3.9889,-3.9889,-3.9933,-3.9954,-3.9996,-4.0077,-4.0157,-4.0196,-4.0271,-4.0379,-4.0427,-4.0523,-4.0626,-4.0726,-4.0823,-4.0908,-4.0949,-4.1026,-4.1111,-4.1097,-4.1091,-4.1105,-4.1094,-4.1031,-4.0972,-4.0917,-4.0846,-4.059,-4.0061,-3.9586,-3.8935,-3.7974,-3.7067,-3.6176,-3.5318,-3.4843,-3.4423,-3.4014,-3.3638,-3.3067,-3.2282,-3.2324,-3.1948,-3.1159,-3.0839,-3.051,-3.0141,-2.9215,-2.8393,0.0,0.0,0.0,0.0,0.0,0.0,0.0,-2.7121,-2.837,-2.8702,-3.0161,-3.167,-3.2625,-3.3817,-3.5042,-3.6201,-3.8344,-3.9738,-3.9418,-4.0027,-4.054,-4.0629,-4.1531,-4.2214,-4.2432,-4.3942,-4.4981,-4.5157,-4.5869,-4.6299,-4.6292,-4.6306,-4.6307,-4.6297,-4.6284,-4.6255,-4.6205,-4.5492,-4.5087,-4.5015,-4.4142,-4.3742,-4.3702,-4.3482,-4.3344,-4.3278,-4.3245,-4.3202,-4.3104,-4.2162,-4.133,-4.0611,-4.0364,-4.0289,-4.0271,-4.0215,-4.0137,-4.0077,-3.9996,-3.9954,-3.9889,-3.9889,-3.9889,-3.9889,-3.9889,-3.9889,-3.9911,-3.9954,-4.0036,-4.0117,-4.0157,-4.0234,-4.0307,-4.0379,-4.0495,-4.0603,-4.0687,-4.0788,-4.0888,-4.0906,-4.1006,-4.1075,-4.1091,-4.1099,-4.1093,-4.1097,-4.1037,-4.0986,-4.0897,-4.0826,-4.0732,-4.0602,-3.9957,-3.9388,-3.9114,-3.7632,-3.6375,-3.5515,-3.5458,-3.5076,-3.4267,-3.4308,-3.3949,-3.3152,-3.3198,-3.2836,-3.2058,-3.2169,-3.1734,-3.0771,-2.9976,-2.9104,-2.3126,-2.4203,-2.5319,-2.648,-2.7136,-2.7777,0.0,-2.9522,-3.0057,-3.0453,-3.1447,-3.2381,-3.2736,-3.4301,-3.6054,-3.7602,-3.8476,-3.928,-4.0206,-4.0485,-4.0629,-4.0754,-4.1604,-4.249,-4.3283,-4.4285,-4.5261,-4.6075,-4.6236,-4.63,-4.6307,-4.6307,-4.6295,-4.6303,-4.6248,-4.6212,-4.6196,-4.5987,-4.5881,-4.5852,-4.4971,-4.4524,-4.444,-4.3666,-4.3278,-4.3192,-4.3092,-4.3025,-4.2951,-4.2059,-4.1605,-4.1379,-4.0539,-4.0215,-4.0215,-4.0137,-4.0077,-3.9996,-3.9933,-3.9911,-3.9889,-3.9889,-3.9889,-3.9889,-3.9889,-3.9889,-3.9911,-3.9911,-3.9954,-4.0036,-4.0077,-4.0158,-4.0233,-4.0362,-4.0463,-4.0554,-4.0673,-4.0752,-4.0834,-4.0898,-4.0949,-4.1033,-4.1081,-4.1091,-4.1093,-4.109,-4.1031,-4.0986,-4.0897,-4.0796,-4.0668,-4.0602,-4.0415,-3.9921,-3.9067,-3.8113,-3.7215,-3.6413,-3.6356,-3.5974,-3.5095,-3.5124,-3.4787,-3.3988,-3.4026,-3.3697,-3.2954,-3.3024,-3.2283,-3.0807,-3.0673,-2.967,-2.5087,-2.6052,-2.6807,-2.7701,-2.8269,-2.88,-2.9555,-3.0354,-3.1071,-3.1474,-3.2419,-3.324,-3.3556,-3.5245,-3.6832,-3.7616,-3.8842,-3.9883,-4.0412,-4.0607,-4.0745,-4.0839,-4.2102,-4.3128,-4.3525,-4.4825,-4.5845,-4.6275,-4.6306,-4.6305,-4.6308,-4.6297,-4.6284,-4.6248,-4.6215,-4.6166,-4.6084,-4.6027,-4.5975,-4.5937,-4.5519,-4.533,-4.5288,-4.4873,-4.4658,-4.4598,-4.4491,-4.4168,-4.3672,-4.3254,-4.2489,-4.1495,-4.1055,-4.0557,-4.0077,-4.0057,-4.0017,-3.9996,-3.9911,-3.9867,-3.9826,-3.9826,-3.9823,-3.9781,-3.9826,-3.9826,-3.9848,-3.9889,-3.9954,-4.0036,-4.0077,-4.0157,-4.0234,-4.0381,-4.0427,-4.0489,-4.0607,-4.0688,-4.0761,-4.0888,-4.0943,-4.1013,-4.1086,-4.1104,-4.1091,-4.1094,-4.1076,-4.1026,-4.0904,-4.0818,-4.0694,-4.0508,-4.043,-4.0018,-3.9069,-3.863,-3.8058,-3.7254,-3.6722,-3.6303,-3.5974,-3.5529,-3.5136,-3.4798,-3.4903,-3.4409,-3.3267,-3.3258,-3.2458,-3.0891,-3.0282,-2.9209,-2.6432,-2.7248,-2.7802,-2.8594,-2.9117,-2.9622,-3.0316,-3.1173,-3.1965,-3.236,-3.3158,-3.3842,-3.4173,-3.566,-3.702,-3.7471,-3.8915,-4.0098,-4.0477,-4.0668,-4.0804,-4.0917,-4.2349,-4.3381,-4.3604,-4.5202,-4.6259,-4.63,-4.6306,-4.6307,-4.6305,-4.6288,-4.6242,-4.6196,-4.6154,-4.6093,-4.5997,-4.5964,-4.5917,-4.586,-4.58,-4.5761,-4.5735,-4.5668,-4.5601,-4.5531,-4.5476,-4.5112,-4.4518,-4.4172,-4.3177,-4.18,-4.1491,-4.08,-3.9996,-3.9975,-3.9975,-3.9954,-3.9911,-3.9867,-3.9804,-3.9804,-3.9758,-3.9712,-3.9758,-3.9781,-3.9804,-3.9867,-3.9933,-3.9975,-4.0077,-4.0137,-4.0215,-4.0344,-4.0394,-4.0441,-4.0564,-4.0648,-4.0725,-4.0856,-4.0936,-4.0984,-4.1058,-4.109,-4.1105,-4.1091,-4.1108,-4.1056,-4.0949,-4.0848,-4.0687,-4.043,-4.0396,-4.0114,-3.9375,-3.928,-3.8899,-3.8058,-3.7412,-3.6878,-3.6493,-3.5897,-3.5465,-3.514,-3.5209,-3.4697,-3.3574,-3.3502,-3.2638,-3.1052,-3.0199,-2.9142,-2.6764,-2.7374,-2.815,-2.9297,-2.9985,-3.0673,-3.1882,-3.2419,-3.2813,-3.325,-3.3643,-3.3972,-3.4245,-3.5237,-3.6381,-3.7433,-3.8456,-3.9484,-4.0458,-4.0648,-4.0791,-4.096,-4.2074,-4.3052,-4.3641,-4.526,-4.63,-4.6308,-4.6306,-4.6293,-4.6299,-4.6242,-4.6212,-4.6196,-4.6075,-4.6007,-4.5997,-4.5861,-4.5814,-4.58,-4.5746,-4.5668,-4.5603,-4.5457,-4.5419,-4.54,-4.54,-4.5399,-4.5283,-4.43,-4.3418,-4.256,-4.1675,-4.0756,-3.9996,-3.9933,-3.9911,-3.9911,-3.9889,-3.9867,-3.9804,-3.9804,-3.9758,-3.9689,-3.9689,-3.9758,-3.9804,-3.9804,-3.9848,-3.9933,-4.0076,-4.0117,-4.0138,-4.0271,-4.0342,-4.0449,-4.0558,-4.0646,-4.0707,-4.0796,-4.0859,-4.0921,-4.0986,-4.1061,-4.1104,-4.109,-4.1108,-4.1085,-4.1011,-4.0826,-4.0626,-4.0422,-4.0394,-4.0326,-4.0177,-4.0158,-3.9757,-3.8822,-3.8746,-3.8042,-3.6478,-3.6382,-3.5855,-3.4737,-3.4658,-3.4404,-3.3981,-3.3909,-3.2966,-3.1187,-3.0956,-2.9902,-2.8173,-2.8936,-2.9601,-3.0323,-3.0862,-3.1382,-3.2092,-3.2588,-3.3006,-3.3375,-3.3726,-3.4049,-3.4316,-3.5302,-3.6423,-3.749,-3.8556,-3.9586,-4.0591,-4.0787,-4.0897,-4.1045,-4.2403,-4.3577,-4.4167,-4.5495,-4.6301,-4.6307,-4.629,-4.6284,-4.6242,-4.6215,-4.6185,-4.6141,-4.6047,-4.5964,-4.588,-4.5827,-4.5757,-4.5668,-4.5547,-4.5494,-4.5476,-4.5419,-4.538,-4.5339,-4.5338,-4.5297,-4.5173,-4.4843,-4.3847,-4.255,-4.2221,-4.1209,-3.9933,-3.9911,-3.9867,-3.9826,-3.9826,-3.9781,-3.9735,-3.9727,-3.9698,-3.9631,-3.9698,-3.9727,-3.9735,-3.9781,-3.9867,-3.9911,-3.9996,-4.0057,-4.0118,-4.0196,-4.0307,-4.0413,-4.0508,-4.0598,-4.0648,-4.0718,-4.0818,-4.0917,-4.0996,-4.1058,-4.1101,-4.1093,-4.1058,-4.0981,-4.0878,-4.0761,-4.0626,-4.0422,-4.0358,-4.0308,-4.0215,-4.0118,-3.9886,-3.9437,-3.8797,-3.8152,-3.7439,-3.6327,-3.5562,-3.5169,-3.453,-3.3945,-3.3393,-3.3201,-3.2539,-3.1458,-3.1203,-3.0446,-2.8926,-2.9729,-3.0342,-3.0821,-3.1334,-3.1821,-3.2266,-3.2719,-3.3045,-3.3099,-3.3605,-3.4031,-3.4016,-3.4936,-3.6046,-3.7122,-3.8174,-3.9206,-4.02,-4.0684,-4.1096,-4.1513,-4.2797,-4.3915,-4.4609,-4.5664,-4.6305,-4.6293,-4.6275,-4.6255,-4.6196,-4.6154,-4.6113,-4.6066,-4.5994,-4.5893,-4.58,-4.5757,-4.5648,-4.5513,-4.5419,-4.5361,-4.5361,-4.5301,-4.5279,-4.5213,-4.5213,-4.517,-4.5103,-4.5061,-4.4049,-4.2503,-4.2481,-4.1411,-3.9848,-3.9848,-3.9826,-3.9758,-3.9804,-3.9754,-3.9703,-3.9717,-3.9645,-3.962,-3.9645,-3.9674,-3.9708,-3.9758,-3.9804,-3.9889,-3.9975,-4.0057,-4.0118,-4.0177,-4.0308,-4.0413,-4.0457,-4.0549,-4.0615,-4.0681,-4.0804,-4.0908,-4.0952,-4.1039,-4.1108,-4.109,-4.107,-4.0993,-4.0849,-4.0773,-4.0654,-4.0473,-4.0358,-4.0224,-4.0038,-3.9938,-3.9765,-3.9474,-3.8932,-3.8397,-3.7914,-3.6589,-3.564,-3.5194,-3.4289,-3.3519,-3.2892,-3.2693,-3.2273,-3.1671,-3.1445,-3.0997,-2.9051,-2.9724,-3.0418,-3.0811,-3.1414,-3.1985,-3.2369,-3.2731,-3.2871,-3.2429,-3.3224,-3.3849,-3.3339,-3.4169,-3.53,-3.6358,-3.742,-3.8426,-3.9372,-4.0362,-4.1349,-4.2305,-4.3154,-4.4022,-4.4974,-4.5808,-4.6289,-4.6294,-4.6235,-4.6185,-4.6189,-4.6075,-4.5997,-4.5997,-4.5848,-4.58,-4.58,-4.5651,-4.5513,-4.54,-4.5319,-4.5297,-4.5297,-4.5148,-4.5103,-4.5084,-4.5103,-4.5103,-4.508,-4.5014,-4.4018,-4.2538,-4.2412,-4.1344,-3.986,-3.9823,-3.9758,-3.9712,-3.9781,-3.975,-3.9693,-3.9693,-3.9645,-3.9602,-3.9602,-3.9645,-3.9717,-3.9708,-3.9758,-3.9826,-3.9954,-4.0036,-4.0117,-4.0176,-4.029,-4.0396,-4.0408,-4.05,-4.0602,-4.0681,-4.0804,-4.0908,-4.0904,-4.1017,-4.1101,-4.1093,-4.1097,-4.1047,-4.0929,-4.0839,-4.072,-4.0519,-4.0351,-4.0116,-3.9733,-3.9701,-3.9484,-3.9026,-3.9117,-3.8806,-3.7972,-3.7106,-3.6084,-3.486,-3.3953,-3.3148,-3.2523,-3.2457,-3.2214,-3.1837,-3.1654,-3.1504,-3.0011,-3.0401,-3.073,-3.1043,-3.1482,-3.1777,-3.1522,-3.1711,-3.1931,-3.1689,-3.2077,-3.2493,-3.254,-3.3392,-3.444,-3.5473,-3.7051,-3.8504,-3.9442,-4.0388,-4.1422,-4.2565,-4.2886,-4.3808,-4.5787,-4.6123,-4.6208,-4.6157,-4.6135,-4.6111,-4.6047,-4.5975,-4.5898,-4.5848,-4.5771,-4.57,-4.5651,-4.5477,-4.536,-4.5319,-4.5213,-4.5148,-4.5148,-4.5125,-4.5061,-4.5014,-4.4967,-4.4919,-4.487,-4.4796,-4.4184,-4.3183,-4.2497,-4.1628,-4.0623,-3.9962,-3.9708,-3.9698,-3.9722,-3.9698,-3.9693,-3.9645,-3.9602,-3.9602,-3.9602,-3.9645,-3.9693,-3.9698,-3.975,-3.9804,-3.9848,-3.9933,-4.0057,-4.0117,-4.0177,-4.0289,-4.0396,-4.0476,-4.0549,-4.0602,-4.0781,-4.0917,-4.0964,-4.1037,-4.1104,-4.1107,-4.1091,-4.1074,-4.0984,-4.0868,-4.072,-4.0511,-4.0156,-3.9898,-3.9779,-3.9506,-3.9213,-3.8941,-3.8969,-3.8764,-3.8296,-3.6826,-3.5877,-3.553,-3.3894,-3.2973,-3.2787,-3.2525,-3.2371,-3.2249,-3.1948,-3.1765,-3.0293,-3.0684,-3.1066,-3.1445,-3.151,-3.1566,-3.1764,-3.175,-3.1565,-3.1189,-3.1358,-3.1643,-3.1788,-3.2609,-3.3624,-3.4677,-3.6122,-3.756,-3.8894,-3.9875,-4.1017,-4.2451,-4.3164,-4.4052,-4.5382,-4.5891,-4.613,-4.6065,-4.6065,-4.6037,-4.5964,-4.5886,-4.5827,-4.5757,-4.57,-4.5603,-4.5458,-4.5319,-4.5235,-4.5213,-4.508,-4.5014,-4.4991,-4.4943,-4.4895,-4.4889,0.0,-4.477,-4.4745,-4.4712,-4.424,-4.3429,-4.2542,-4.1688,-4.0853,-4.0005,-3.9674,-3.9669,-3.9669,-3.9669,-3.9645,-3.9602,-3.9602,-3.9602,-3.9602,-3.9645,-3.9669,-3.9693,-3.9722,-3.9754,-3.9781,-3.9889,-3.9975,-4.0077,-4.0158,-4.0233,-4.0362,-4.0444,-4.0534,-4.0635,-4.0781,-4.0917,-4.0984,-4.1039,-4.1061,-4.1097,-4.1094,-4.1099,-4.1061,-4.0932,-4.0765,-4.0574,-4.0177,-3.9864,-3.9681,-3.9388,-3.9094,-3.8836,-3.8846,-3.8738,-3.846,-3.682,-3.589,-3.5797,-3.4055,-3.3042,-3.2916,-3.2707,-3.2541,-3.2457,-3.2214,-3.2073,-3.0222,-3.0767,-3.132,-3.172,-3.1446,-3.1308,-3.2007,-3.1791,-3.1254,-3.0637,-3.0764,-3.0993,-3.1044,-3.1737,-3.2699,-3.394,-3.502,-3.6345,-3.8155,-3.9214,-4.0457,-4.2184,-4.351,-4.4395,-4.4695,-4.5543,-4.6046,-4.5966,-4.5956,-4.5933,-4.5905,-4.5808,-4.5727,-4.5651,-4.5603,-4.5458,-4.5256,-4.5192,-4.5125,-4.5057,-4.4919,-4.487,-4.487,-4.4745,-4.4712,-4.4685,-4.4685,-4.4685,-4.4659,-4.4659,-4.4244,-4.3528,-4.253,-4.1669,-4.0904,-3.9983,-3.962,-3.9577,-3.9577,-3.9577,-3.9596,-3.9577,-3.9577,-3.9596,-3.9596,-3.9596,-3.9596,-3.9645,-3.9693,-3.9698,-3.9777,-3.9845,-3.9911,-4.0036,-4.0138,-4.0215,-4.0362,-4.046,-4.0549,-4.0688,-4.0804,-4.0908,-4.0971,-4.0979,-4.1011,-4.1085,-4.1089,-4.1093,-4.1099,-4.0986,-4.083,-4.066,-4.0287,-3.9935,-3.9585,-3.9315,-3.9077,-3.8785,-3.8822,-3.8773,-3.8572,-3.7014,-3.6054,-3.5877,-3.4268,-3.3256,-3.2979,-3.2948,-3.2787,-3.2557,-3.2491,-3.2388,-3.041,-3.1078,-3.1312,-3.0818,-3.0937,-3.0867,-2.9669,-2.9536,-2.9612,-2.9493,-2.9624,-2.9868,-3.0159,-3.0472,-3.1245,-3.2963,-3.4651,-3.6402,-3.8234,-3.9243,-4.0459,-4.2187,-4.2815,-4.3845,-4.5714,-4.5968,-4.5947,-4.5776,-4.575,-4.5761,-4.5827,-4.57,-4.5549,-4.538,-4.536,-4.5256,-4.5038,-4.4986,-4.4919,-4.4846,-4.477,-4.4719,-4.4719,-4.4712,-4.4685,-4.4605,-4.4551,0.0,-4.444,-4.4383,-4.4298,-4.4017,-4.2482,-4.1781,-4.1482,-3.9986,-3.9444,-3.9425,-3.9425,-3.9425,-3.9451,-3.9552,-3.9571,-3.952,-3.952,-3.952,-3.952,-3.952,-3.962,-3.9693,-3.9698,-3.9773,-3.9826,-3.9911,-4.0036,-4.0157,-4.0289,-4.0457,-4.0607,-4.0681,-4.075,-4.0839,-4.0907,-4.0957,-4.1,-4.1025,-4.1062,-4.1107,-4.1093,-4.1039,-4.0922,-4.0769,-4.0266,-3.9902,-3.985,-3.9393,-3.9122,-3.9129,-3.9073,-3.8989,-3.8921,-3.7294,-3.6362,-3.6227,-3.4473,-3.3491,-3.3304,-3.3165,-3.2993,-3.282,-3.2773,-3.2592,-2.9471,-3.0048,-3.0384,-3.0262,-3.0278,-3.0205,-2.9745,-2.9436,-2.9292,-2.9472,-2.9681,-2.9872,-3.0071,-3.0209,-3.0766,-3.2193,-3.3868,-3.5483,-3.6947,-3.8285,-3.9609,-4.0889,-4.1939,-4.3144,-4.4692,-4.5015,-4.5253,-4.5606,-4.5654,-4.5665,-4.57,-4.555,-4.536,-4.5192,-4.5125,-4.5014,-4.4895,-4.4821,-4.4745,-4.4712,-4.4632,-4.4578,-4.4551,-4.4496,-4.4468,-4.444,-4.4401,-4.4373,-4.4344,-4.4314,-4.4285,-4.4117,-4.2455,-4.1801,-4.1614,-3.9989,-3.9391,-3.9391,-3.9391,-3.9391,-3.9418,-3.9495,-3.9469,-3.9444,-3.9444,-3.9444,-3.9444,-3.9444,-3.952,-3.9596,-3.9607,-3.9665,-3.9781,-3.9889,-4.0038,-4.0196,-4.0307,-4.046,-4.0564,-4.0621,-4.07,-4.0784,-4.0878,-4.0926,-4.0957,-4.0987,-4.1022,-4.1051,-4.1094,-4.1073,-4.0992,-4.0823,-4.0427,-4.0126,-4.0014,-3.9662,-3.9452,-3.9401,-3.9376,-3.9298,-3.9156,-3.7541,-3.6581,-3.6408,-3.4623,-3.3633,-3.3491,-3.3345,-3.3214,-3.3091,-3.2934,-3.2773,-2.8673,-2.9141,-2.9573,-2.9853,-2.9762,-2.9682,-3.0094,-2.9647,-2.9154,-2.9401,-2.9612,-2.9768,-2.9876,-2.9971,-3.0434,-3.1712,-3.3005,-3.4321,-3.5723,-3.7304,-3.8741,-3.9923,-4.137,-4.2479,-4.2966,-4.3993,-4.4891,-4.5499,-4.5509,-4.5514,-4.5532,-4.536,-4.5192,-4.5061,-4.4919,-4.484,-4.4738,-4.4685,-4.4605,-4.4524,-4.4487,-4.4411,-4.4335,-4.4266,-4.4237,-4.4226,-4.4226,-4.4195,0.0,-4.4195,-4.4195,-4.4028,-4.2369,-4.1669,-4.1511,-3.989,-3.9293,-3.9293,-3.9293,-3.9293,-3.9293,-3.9293,-3.932,-3.9346,-3.9346,-3.9346,-3.9346,-3.9346,-3.9418,-3.9476,-3.9514,-3.9594,-3.9712,-3.9889,-4.0059,-4.0234,-4.0362,-4.0444,-4.0519,-4.0593,-4.0655,-4.0738,-4.0856,-4.0878,-4.0915,-4.0979,-4.1,-4.1019,-4.1072,-4.1086,-4.1019,-4.0859,-4.0623,-4.0391,-4.0197,-3.9998,-3.9829,-3.9693,-3.967,-3.9575,-3.9383,-3.7922,-3.6956,-3.6581,-3.4961,-3.3972,-3.3643,-3.352,-3.3422,-3.334,-3.3122,-3.2979,-2.8935,-2.9523,-2.9782,-2.9455,-2.9629,-2.9758,-2.9329,-2.8852,-2.8444,-2.8369,-2.846,-2.8626,-2.8875,-2.9023,-2.9749,-3.1681,-3.2377,-3.3441,-3.5683,-3.6965,-3.8471,-4.0629,-4.168,-4.1937,-4.1219,-4.3943,-4.5634,-4.5355,-4.5204,-4.5213,-4.5317,-4.5192,-4.5057,-4.4919,-4.4789,-4.4659,-4.4542,-4.4468,-4.4383,-4.4314,-4.4314,-4.4266,-4.414,-4.414,-4.4067,-4.3947,-4.3947,-4.3915,0.0,-4.3837,-4.3837,-4.367,-4.202,-4.1354,-4.1169,-3.956,-3.8939,-3.8939,-3.8939,-3.8939,-3.8939,-3.8939,-3.9064,-3.921,-3.921,-3.921,-3.921,-3.921,-3.9301,-3.9418,-3.9495,-3.9514,-3.9599,-3.9933,-4.0098,-4.0234,-4.0381,-4.0444,-4.0519,-4.0593,-4.0655,-4.0725,-4.08,-4.0858,-4.0888,-4.0917,-4.0957,-4.0993,-4.102,-4.1013,-4.0993,-4.0974,-4.0798,-4.0629,-4.0477,-4.0281,-4.012,-4.0057,-3.9954,-3.9807,-3.967,-3.8686,-3.7716,-3.6789,-3.5838,-3.4825,-3.378,-3.378,-3.3615,-3.3411,-3.3382,-3.3214,-2.7941,-2.8442,-2.8782,-2.891,-2.9162,-2.9273,-2.8736,-2.8576,-2.8385,-2.7932,-2.7963,-2.8096,-2.829,-2.9251,-3.0139,-3.0442,-3.2224,-3.3789,-3.4349,-3.6298,-3.7988,-3.8852,-4.0403,-4.128,-4.092,-4.2078,-4.3417,-4.4842,-4.4973,-4.4967,-4.4943,-4.487,-4.4815,-4.4659,-4.4578,-4.444,-4.4277,-4.4229,-4.4158,-4.4055,-4.4055,-4.3992,-4.3929,-4.3929,-4.3883,-4.3818,-4.3818,-4.3818,0.0,-4.3701,-4.3406,-4.2853,-4.1646,-4.0891,-4.0307,-3.9148,-3.8743,-3.878,-3.878,-3.881,-3.8851,-3.8851,-3.8921,-3.9036,-3.9036,-3.9036,-3.9036,-3.9064,-3.9147,-3.9248,-3.9399,-3.9533,-3.967,-3.9889,-4.0036,-4.0176,-4.0252,-4.036,-4.046,-4.0519,-4.0588,-4.0655,-4.0725,-4.0792,-4.0848,-4.0898,-4.0926,-4.0941,-4.0929,-4.0984,-4.1003,-4.0999,-4.0848,-4.0725,-4.0642,-4.0466,-4.0358,-4.0271,-4.0158,-4.0019,-3.9892,-3.8987,-3.7999,-3.7004,-3.6037,-3.5052,-3.4049,-3.3868,-3.3753,-3.3633,-3.3481,-3.3334,-2.7126,-2.7681,-2.8246,-2.87,-2.8828,-2.8773,-2.8465,-2.8145,-2.7832,-2.7402,-2.7223,-2.7229,-2.76,-2.8929,-2.9863,-2.9559,-3.1894,-3.374,-3.3653,-3.5943,-3.7719,-3.7985,-3.9458,-4.0533,-4.0728,-4.0907,-4.1762,-4.3555,-4.3905,-4.4096,-4.4191,-4.4175,-4.4233,-4.4393,-4.4325,-4.4218,-4.4048,-4.3968,-4.3892,-4.3814,-4.38,-4.3734,-4.3634,-4.3634,-4.3652,-4.3618,-4.3618,-4.3618,0.0,-4.3238,-4.2797,-4.2158,-4.1097,-4.0313,-3.9708,-3.8865,-3.8559,-3.8627,-3.8627,-3.864,-3.8683,-3.8683,-3.8713,-3.8743,-3.8743,-3.8833,-3.891,-3.8968,-3.9017,-3.9147,-3.9346,-3.9514,-3.9712,-3.9845,-3.9994,-4.0118,-4.0177,-4.0289,-4.0396,-4.0473,-4.0534,-4.0588,-4.0655,-4.0745,-4.08,-4.0826,-4.0858,-4.0869,-4.0878,-4.0906,-4.0935,-4.0936,-4.0858,-4.0773,-4.0738,-4.0607,-4.0504,-4.0427,-4.0306,-4.0177,-4.0059,-3.9364,-3.842,-3.7171,-3.6429,-3.544,-3.4221,-3.4023,-3.3868,-3.3807,-3.3605,-3.3481,-2.669,-2.7638,-2.8594,-2.8902,-2.86,-2.8278,-2.8527,-2.7462,-2.6465,-2.6582,-2.603,-2.5812,-2.674,-2.7639,-2.8518,-2.9369,-3.1207,-3.2908,-3.4035,-3.6105,-3.7866,-3.8878,-3.9236,-3.9681,-4.0345,-4.1055,-4.1453,-4.1326,-4.1763,0.0,-4.2987,-4.2888,-4.3241,-4.4173,-4.4079,-4.3974,-4.3897,-4.3697,-4.3579,-4.3579,-4.3548,-4.3426,-4.3303,-4.3303,-4.3286,-4.3214,-4.3214,-4.3214,0.0,-4.2339,-4.1993,-4.1847,-4.0242,-3.9604,-3.9513,-3.8692,-3.8415,-3.8415,-3.8415,-3.8415,-3.8415,-3.8415,-3.8415,-3.8433,-3.8433,-3.8652,-3.891,-3.891,-3.9007,-3.9147,-3.9346,-3.9489,-3.9623,-3.9781,-3.9954,-4.0118,-4.0177,-4.0252,-4.0323,-4.0473,-4.0489,-4.0519,-4.0588,-4.0655,-4.0694,-4.0694,-4.0754,-4.0807,-4.0807,-4.0807,-4.0807,-4.0807,-4.0804,-4.08,-4.08,-4.0675,-4.0579,-4.0504,-4.0375,-4.027,-4.0196,-3.9998,-3.9075,-3.7327,-3.7152,-3.6185,-3.4293,-3.4221,-3.4074,-3.3807,-3.3807,-3.3643,-2.6142,-2.6694,-2.7222,-2.7562,-2.7605,-2.749,-2.7167,-2.6814,-2.6419,-2.5948,-2.5703,-2.5661,-2.5955,-2.7201,-2.8299,-2.8572,-3.1116,-3.3165,-3.3531,-3.513,-3.6648,-3.7646,-3.9032,-3.99,-3.991,-4.0794,-4.1316,-4.1161,-4.159,-4.1922,-4.2031,-4.1865,-4.2465,-4.3968,-4.3828,-4.3697,-4.3634,-4.3461,-4.3356,-4.3251,-4.3233,-4.3142,-4.3032,-4.3032,-4.3032,-4.2976,-4.2414,-4.2178,0.0,-4.127,-4.0582,-4.0021,-3.948,-3.8921,-3.8397,-3.8144,-3.8054,-3.8054,-3.8054,-3.8104,-3.8201,-3.8201,-3.8285,-3.8382,-3.8382,-3.851,-3.8664,-3.8833,-3.9007,-3.9147,-3.9346,-3.9464,-3.9575,-3.9712,-3.9845,-3.9975,-4.0118,-4.0196,-4.027,-4.0413,-4.0476,-4.0504,-4.0603,-4.0607,-4.0648,-4.0694,-4.0713,-4.075,-4.0792,-4.0796,-4.0807,-4.0807,-4.0792,-4.08,-4.08,-4.0675,-4.0588,-4.0579,-4.0444,-4.0344,-4.027,-4.0118,-3.9197,-3.7389,-3.7241,-3.6276,-3.4495,-3.4293,-3.4099,-3.3868,-3.3815,-3.3726,-2.5597,-2.6194,-2.6723,-2.7044,-2.7016,-2.683,-2.6539,-2.6314,-2.6056,-2.5635,-2.5574,-2.5706,-2.6058,-2.7265,-2.8315,-2.8633,-3.1276,-3.329,-3.3266,-3.4652,-3.6095,-3.7286,-3.8984,-3.9985,-3.9762,-4.0254,-4.0546,-4.0401,-4.0624,-4.083,-4.0959,-4.0849,-4.1364,-4.2643,-4.2889,-4.3133,-4.3358,-4.3196,-4.305,-4.2992,-4.2955,-4.288,-4.2786,-4.2786,-4.2623,-4.2298,-4.1793,-4.1413,0.0,-4.0275,-3.9626,-3.9139,-3.8798,-3.8348,-3.7899,-3.7899,-3.7899,-3.7899,-3.7899,-3.7951,-3.8018,-3.8018,-3.8119,-3.8252,-3.8336,-3.8433,-3.8541,-3.8762,-3.8921,-3.9064,-3.9275,-3.9395,-3.9502,-3.9665,-3.9781,-3.9933,-4.0057,-4.0157,-4.0234,-4.0344,-4.0394,-4.046,-4.0546,-4.0554,-4.0579,-4.0646,-4.0648,-4.0688,-4.072,-4.0757,-4.075,-4.075,-4.0757,-4.0764,-4.0764,-4.0662,-4.0607,-4.0612,-4.046,-4.0379,-4.0325,-4.0215,-3.9317,-3.7508,-3.7348,-3.6408,-3.4645,-3.434,-3.4148,-3.3998,-3.3921,-3.3842,0.0,-2.6005,-2.6821,-2.7075,-2.6678,-2.6297,-2.6487,-2.6006,0.0,-2.5587,-2.5605,-2.5888,-2.6836,-2.7665,-2.8473,-2.9349,-3.1637,-3.3266,-3.3208,-3.4668,-3.6254,-3.7611,-3.9089,-3.9933,-3.9804,-3.9599,-3.9401,-3.921,-3.9129,-3.9264,-3.9753,-3.9777,-4.0014,-4.0578,-4.1341,-4.2141,-4.2976,-4.2842,-4.2745,-4.2745,-4.2609,-4.2534,-4.248,-4.248,-4.2049,0.0,-4.1223,-4.0791,0.0,-3.9301,-3.8977,-3.8905,-3.8151,-3.7864,-3.7864,-3.7864,-3.7864,-3.7864,-3.7864,-3.7864,-3.7864,-3.7917,-3.7951,-3.8018,-3.8223,-3.8368,-3.851,-3.8658,-3.881,-3.895,-3.9129,-3.929,-3.9446,-3.9642,-3.98,-3.9911,-4.0057,-4.0157,-4.0196,-4.0289,-4.0307,-4.0342,-4.0466,-4.0495,-4.0523,-4.0573,-4.0598,-4.0607,-4.0588,-4.0654,-4.07,-4.07,-4.07,-4.0687,-4.0687,-4.064,-4.0593,-4.0607,-4.0463,-4.0398,-4.0398,-4.0272,-3.9414,-3.7719,-3.7432,-3.6438,-3.4687,-3.4363,-3.4221,-3.4221,-3.4074,-3.3998,-2.4885,0.0,-2.5414,-2.5577,-2.5611,-2.5639,0.0,-2.5661,-2.5599,-2.5658,-2.5673,-2.5957,-2.6846,-2.7667,-2.8471,-2.9298,-3.1569,-3.3179,-3.3063,-3.5455,-3.7307,-3.7547,-3.8869,-3.9717,-3.9599,-3.9376,-3.921,-3.9073,-3.891,-3.8775,-3.8771,-3.8609,-3.8787,-3.9391,-3.948,-4.0271,-4.1789,-4.2246,-4.2432,-4.2269,-4.2228,-4.1884,-4.1215,-4.1215,-4.077,-3.9988,-3.942,0.0,-3.8833,-3.8051,-3.7731,-3.7714,-3.7518,-3.7447,-3.7447,-3.7447,-3.7447,-3.7447,-3.7503,-3.7577,-3.7703,-3.7864,-3.7951,-3.8018,-3.807,-3.8219,-3.8465,-3.8658,-3.881,-3.8921,-3.9073,-3.9256,-3.9432,-3.9526,-3.9665,-3.9781,-3.9911,-4.0036,-4.0138,-4.0196,-4.0252,-4.0325,-4.0415,-4.0466,-4.0515,-4.0523,-4.0573,-4.0598,-4.0607,-4.0621,-4.0621,-4.0621,-4.0621,-4.0626,-4.0617,-4.0603,-4.0603,-4.0607,-4.0463,-4.0398,-4.0398,-4.0272,-3.9662,-3.8537,-3.7126,-3.5809,-3.4623,-3.4539,-3.445,-3.434,-3.4269,-3.4197,-2.4903,-2.5049,-2.5018,-2.5194,-2.534,-2.5453,-2.554,-2.56,-2.5652,-2.5694,-2.6016,-2.6552,-2.7394,-2.8218,-2.9,-2.9814,-3.1727,-3.3321,-3.393,-3.5739,-3.711,-3.7332,-3.8331,-3.9113,-3.9338,-3.9183,-3.9007,-3.8862,-3.867,-3.8465,-3.8285,-3.8086,-3.8131,-3.833,-3.852,-3.9266,-4.0674,-4.0967,-4.106,-4.0931,-4.0931,-4.0618,-4.0111,-4.0111,-3.9688,-3.8911,-3.8505,0.0,-3.7782,-3.7358,-3.7182,-3.7203,-3.7203,-3.7259,-3.7297,-3.7297,-3.7297,-3.7297,-3.7334,-3.7429,-3.754,-3.7721,-3.7828,-3.788,-3.7984,-3.8119,-3.8318,-3.8515,-3.8701,-3.8862,-3.9036,-3.9221,-3.9425,-3.9477,-3.9599,-3.9735,-3.9867,-3.9975,-4.0098,-4.0177,-4.0234,-4.029,-4.0344,-4.0379,-4.043,-4.0495,-4.0546,-4.0543,-4.0549,-4.0579,-4.0598,-4.0598,-4.0598,-4.0598,-4.0607,-4.0573,-4.0539,-4.0539,-4.0463,-4.0398,-4.0398,-4.0291,-3.9795,-3.8823,-3.7412,-3.623,-3.5294,-3.5233,-3.494,-3.4495,-3.4409,-3.434,-2.488,-2.5159,-2.5197,-2.5374,-2.5468,-2.5538,-2.5609,-2.5664,-2.5737,-2.5859,-2.6472,-2.7277,-2.8201,-2.8916,-2.9637,-3.046,-3.1929,-3.3461,-3.4961,-3.574,-3.6346,-3.6917,-3.7563,-3.8233,-3.8896,-3.8793,-3.8663,-3.8627,-3.8465,-3.8252,-3.8034,-3.7916,-3.7757,-3.7503,-3.7937,-3.8553,-3.9301,-3.9434,-3.9476,-3.9429,-3.9429,-3.9276,-3.9052,-3.9052,-3.8631,-3.7912,0.0,0.0,-3.6948,-3.6948,-3.697,-3.7031,-3.7031,-3.7126,-3.722,-3.722,-3.722,-3.722,-3.7259,-3.7317,-3.7411,-3.7595,-3.7667,-3.7739,-3.7933,-3.8018,-3.8135,-3.835,-3.859,-3.8822,-3.895,-3.9166,-3.9399,-3.9471,-3.9594,-3.9712,-3.9845,-3.9933,-4.0017,-4.0157,-4.0196,-4.0234,-4.0271,-4.0289,-4.0342,-4.0449,-4.0502,-4.0499,-4.0492,-4.0558,-4.0573,-4.0573,-4.0573,-4.0573,-4.0573,-4.0539,-4.0489,-4.0489,-4.0447,-4.0398,-4.0381,-4.0328,-3.9815,-3.8823,-3.8021,-3.7182,-3.6307,-3.6187,-3.5744,-3.5021,-3.4936,-3.4817,-2.4316,-2.4934,-2.5522,-2.5492,-2.554,-2.5603,-2.5675,-2.5683,-2.5893,-2.6583,-2.6825,-2.7387,-2.8923,-2.9226,-2.9505,-3.0375,-3.1776,-3.328,-3.4827,-3.5569,-3.5948,-3.5927,-3.6528,-3.7188,-3.7868,-3.779,-3.7876,-3.8318,-3.8238,-3.8018,-3.7685,-3.7667,-3.7484,-3.7087,-3.7171,-3.7176,-3.7015,-3.8437,-3.9126,-3.9068,-3.9068,-3.8701,-3.8039,-3.8039,-3.7638,-3.6899,0.0,-3.6847,-3.6742,-3.6742,-3.6766,-3.6766,-3.6766,-3.6766,-3.6806,-3.6869,-3.6869,-3.6891,-3.7069,-3.7261,-3.7429,-3.7429,-3.7559,-3.7739,-3.7881,-3.7967,-3.8086,-3.8318,-3.8546,-3.875,-3.8881,-3.9036,-3.9202,-3.9354,-3.9471,-3.9575,-3.9712,-3.9845,-3.9933,-4.0036,-4.0118,-4.0196,-4.0215,-4.0252,-4.0307,-4.0325,-4.0432,-4.0502,-4.0499,-4.0511,-4.0523,-4.0523,-4.0523,-4.0523,-4.0523,-4.0523,-4.0489,-4.0489,-4.0447,-4.0363,-4.0329,-4.0253,-3.9795,-3.8899,-3.869,-3.8136,-3.7201,-3.7181,-3.7062,-3.6901,-3.688,-3.6443,-2.4118,-2.4908,-2.558,-2.5554,-2.5576,-2.5739,-2.6226,-2.6359,-2.658,-2.7371,-2.7892,-2.8422,-2.9162,-2.9603,-3.0235,-3.145,-3.2539,-3.3614,-3.4699,-3.5009,-3.5248,-3.5552,-3.5725,-3.6122,-3.6887,-3.6728,-3.6661,-3.6816,-3.6669,-3.6663,-3.679,-3.6679,-3.6685,-3.6776,-3.6673,-3.6527,-3.6335,-3.7033,-3.7439,-3.7474,-3.7474,-3.7283,-3.6835,-3.6835,-3.6646,-3.6335,0.0,-3.6335,-3.6335,-3.6335,-3.6377,-3.6485,-3.6485,-3.6544,-3.6702,-3.6788,-3.6788,-3.6811,-3.7031,-3.7147,-3.7261,-3.7374,-3.7449,-3.7559,-3.7828,-3.7916,-3.802,-3.8318,-3.8496,-3.8621,-3.8851,-3.9007,-3.9129,-3.9346,-3.9439,-3.9551,-3.9665,-3.9781,-3.9889,-3.9975,-4.0077,-4.0157,-4.0196,-4.0253,-4.029,-4.0307,-4.0342,-4.0415,-4.0432,-4.0482,-4.0495,-4.0495,-4.0508,-4.0489,-4.0489,-4.0489,-4.0473,-4.0444,-4.0413,-4.0363,-4.031,-4.0272,-4.0043,-3.9605,-3.9566,-3.9089,-3.8155,-3.8155,-3.7906,-3.7409,-3.7409,-3.716,-2.3808,-2.4774,-2.5573,-2.5554,-2.5583,-2.5829,-2.6681,-2.6884,-2.7149,-2.8151,-2.8846,-2.9309,-2.9448,-2.9952,-3.0823,-3.2324,-3.299,-3.3658,-3.4536,-3.4517,-3.4582,-3.5082,-3.4932,-3.5073,-3.5831,-3.5617,-3.5453,-3.5519,-3.5323,-3.5403,-3.5755,-3.5568,-3.5745,-3.6255,-3.6084,-3.6019,-3.6079,-3.5932,-3.5932,-3.6096,-3.6096,-3.6036,-3.5888,-3.5888,-3.5888,-3.5888,-3.5932,-3.5932,-3.5949,-3.5975,-3.6105,-3.6216,-3.6216,-3.6402,-3.6602,-3.6708,-3.6748,-3.6811,-3.697,-3.7069,-3.7147,-3.7317,-3.7392,-3.7466,-3.7775,-3.7864,-3.7969,-3.8252,-3.8415,-3.8541,-3.8833,-3.8979,-3.9101,-3.932,-3.9413,-3.9521,-3.9642,-3.9712,-3.9804,-3.9933,-4.0036,-4.0098,-4.0176,-4.0234,-4.0291,-4.0308,-4.0307,-4.0325,-4.0362,-4.0449,-4.0502,-4.0502,-4.0511,-4.0489,-4.0489,-4.0489,-4.0476,-4.0432,-4.0432,-4.0381,-4.0328,-4.031,-4.0291,-4.0215,-4.0215,-3.9872,-3.9128,-3.9128,-3.8784,-3.8118,-3.8118,-3.7965,-2.3077,-2.4276,-2.5492,-2.542,-2.5502,-2.5809,-2.6624,-2.6815,-2.7261,-2.8808,-2.9168,-2.9417,-3.011,-3.0169,-3.062,-3.2176,-3.2354,-3.2821,-3.4314,-3.434,-3.4167,-3.4039,-3.3899,-3.4035,-3.4667,-3.4519,-3.4648,-3.5272,-3.5136,-3.4942,-3.4812,-3.4591,-3.4749,-3.529,-3.5118,-3.5206,-3.5667,-3.5515,-3.556,-3.5817,-3.5817,-3.5773,-3.5622,-3.5622,-3.5622,-3.5622,-3.5773,-3.5817,-3.5817,-3.5932,-3.6019,-3.6019,-3.6019,-3.6148,-3.6343,-3.6485,-3.6626,-3.6788,-3.6829,-3.6952,-3.7108,-3.7259,-3.7354,-3.7449,-3.7631,-3.781,-3.7934,-3.8086,-3.8252,-3.8478,-3.8803,-3.891,-3.8979,-3.9175,-3.9301,-3.9451,-3.9502,-3.9618,-3.9735,-3.9804,-3.9933,-4.0036,-4.0096,-4.0157,-4.0234,-4.0291,-4.029,-4.0307,-4.0307,-4.0432,-4.0502,-4.0502,-4.0511,-4.0489,-4.0489,-4.0489,-4.0492,-4.0482,-4.0502,-4.0449,-4.0398,-4.0398,-4.0362,-4.0289,-4.0289,-4.0233,-4.0101,-4.0101,-4.0042,-3.9906,-3.9906,-3.9489,-2.2815,-2.4036,-2.5303,-2.5226,-2.564,-2.6275,-2.72,-2.7837,-2.852,-2.959,-2.9817,-2.9883,-3.0122,-3.0437,-3.1009,-3.2109,-3.2575,-3.3181,-3.4167,-3.4148,-3.3972,-3.3842,-3.3661,-3.359,-3.3732,-3.3535,-3.347,-3.3559,-3.3371,-3.3352,-3.3584,-3.3394,-3.3544,-3.4055,-3.3956,-3.3964,-3.4061,-3.4382,-3.4526,-3.4571,-3.5194,-3.5458,-3.5412,-3.5412,-3.5412,-3.5412,-3.5475,-3.5475,-3.5503,-3.5549,-3.5639,-3.5756,-3.5932,-3.6062,-3.6131,-3.6318,-3.6426,-3.6527,-3.6731,-3.6851,-3.6913,-3.7126,-3.7241,-3.7372,-3.7577,-3.7775,-3.7934,-3.8052,-3.8234,-3.8465,-3.8701,-3.8822,-3.895,-3.9101,-3.9275,-3.9425,-3.9477,-3.9613,-3.9727,-3.9781,-3.987,-3.9954,-4.0036,-4.0137,-4.0196,-4.0215,-4.0272,-4.0291,-4.0291,-4.0344,-4.0396,-4.0432,-4.0495,-4.0489,-4.0489,-4.0489,-4.0508,-4.0511,-4.0499,-4.0466,-4.0415,-4.0398,-4.0398,-4.0362,-4.0362,-4.0344,-4.0308,-4.0308,-4.0308,-4.0291,-4.0291,-4.0118,-2.2547,-2.3637,-2.4732,-2.4953,-2.5825,-2.6795,-2.7459,-2.8332,-2.9213,-2.9975,-3.0104,-3.006,-3.0007,-3.0313,-3.081,-3.1598,-3.2094,-3.2616,-3.3276,-3.3216,-3.3062,-3.293,-3.2718,-3.2516,-3.2379,-3.2166,-3.1912,-3.1716,-3.1725,-3.1844,-3.2104,-3.2154,-3.2417,-3.2917,-3.2841,-3.283,-3.2934,-3.33,-3.3458,-3.3383,-3.4018,-3.4476,-3.4692,-3.4692,-3.4575,-3.4376,-3.4422,-3.4585,-3.4848,-3.4894,-3.5103,-3.5532,-3.5756,-3.5888,-3.5888,-3.6191,-3.6259,-3.6343,-3.6609,-3.6748,-3.6811,-3.7009,-3.7164,-3.7334,-3.7466,-3.7703,-3.7934,-3.8002,-3.8219,-3.8433,-3.8578,-3.8762,-3.8921,-3.9045,-3.9248,-3.9399,-3.9464,-3.9583,-3.9698,-3.9777,-3.9826,-3.9911,-3.9975,-4.0098,-4.0176,-4.0196,-4.0253,-4.031,-4.031,-4.029,-4.0325,-4.0432,-4.046,-4.0489,-4.0489,-4.0489,-4.0489,-4.0489,-4.0511,-4.0499,-4.043,-4.043,-4.043,-4.0432,-4.0432,-4.0415,-4.0398,-4.0398,-4.0398,-4.0398,-4.0398,-4.0398,-2.2197,-2.2981,-2.3801,-2.4596,-2.6054,-2.7283,-2.7215,-2.8036,-2.903,-2.9817,-2.9893,-2.9808,-2.9808,-2.9682,-2.985,-3.0576,-3.0642,-3.0828,-3.142,-3.1434,-3.1302,-3.1039,-3.0892,-3.0769,-3.0612,-3.0291,-3.0036,-2.9904,-3.0387,-3.0607,-3.0409,-3.0883,-3.1449,-3.1943,-3.1705,-3.188,-3.2595,-3.2459,-3.2367,-3.2367,-3.2243,-3.2602,-3.3399,-3.3399,-3.3023,-3.243,-3.2521,-3.3053,-3.3789,-3.3927,-3.4514,-3.5337,-3.5532,-3.5622,-3.5667,-3.6036,-3.6251,-3.6301,-3.6444,-3.6626,-3.6829,-3.693,-3.7143,-3.7297,-3.7392,-3.7631,-3.7899,-3.7899,-3.8156,-3.8382,-3.8382,-3.8652,-3.891,-3.8979,-3.9193,-3.9391,-3.9391,-3.9571,-3.9717,-3.9708,-3.9758,-3.9848,-3.9975,-4.0057,-4.0137,-4.0196,-4.0253,-4.031,-4.031,-4.029,-4.0342,-4.0502,-4.0511,-4.0489,-4.0489,-4.0489,-4.0489,-4.0489,-4.0573,-4.0573,-4.0504,-4.0504,-4.0492,-4.0502,-4.0502,-4.0466,-4.0415,-4.0415,-4.0415,-4.0415,-4.0415,-4.0415,-2.1934,-2.2712,-2.3502,-2.4325,-2.5742,-2.6953,-2.699,-2.8273,-2.9504,-2.9753,-2.9719,-2.9645,-2.9589,-2.9492,-2.9653,-3.0426,-3.0424,-3.0581,-3.1323,-3.1232,-3.1093,-3.1012,-3.0797,-3.0594,-3.0396,-3.0113,-2.9839,-2.9625,-2.9609,-2.9534,-2.9423,-2.9743,-3.0009,-3.0144,-3.045,-3.0658,-3.0756,-3.1157,-3.131,-3.1218,-3.158,-3.2077,-3.2553,-3.246,-3.2362,-3.2259,-3.2305,-3.2528,-3.2866,-3.3591,-3.4014,-3.4309,-3.5073,-3.5429,-3.5566,-3.5728,-3.5888,-3.6088,-3.6318,-3.6544,-3.6725,-3.6829,-3.7009,-3.7185,-3.7297,-3.7521,-3.7703,-3.7864,-3.8036,-3.8201,-3.835,-3.8578,-3.878,-3.891,-3.9092,-3.9301,-3.9373,-3.9495,-3.9577,-3.9689,-3.9712,-3.9758,-3.9911,-4.0036,-4.0117,-4.0137,-4.0234,-4.0291,-4.029,-4.0344,-4.0396,-4.0502,-4.0511,-4.0489,-4.0489,-4.0539,-4.0573,-4.0573,-4.0583,-4.0598,-4.0573,-4.0564,-4.0579,-4.0583,-4.0583,-4.0549,-4.0534,-4.0534,-4.0534,-4.0534,-4.0534,-4.0534,-2.1586,-2.2236,-2.2865,-2.4008,-2.5521,-2.6907,-2.7574,-2.8686,-2.9532,-2.9531,-2.9511,-2.947,-2.9431,-2.931,-2.9351,-2.9843,-2.9779,-2.9826,-3.0227,-3.0148,-2.999,-2.9881,-2.9704,-2.9503,-2.9289,-2.9043,-2.8789,-2.8509,-2.8544,-2.8501,-2.8337,-2.8777,-2.8923,-2.8746,-2.9344,-2.9567,-2.9394,-3.0045,-3.0293,-3.0156,-3.0449,-3.0703,-3.0921,-3.1273,-3.1304,-3.1154,-3.1475,-3.1697,-3.1883,-3.2787,-3.3205,-3.3346,-3.3993,-3.4359,-3.4494,-3.4638,-3.4813,-3.5036,-3.5565,-3.5911,-3.6203,-3.662,-3.6908,-3.7087,-3.7259,-3.7447,-3.7631,-3.7828,-3.8002,-3.8135,-3.835,-3.8546,-3.8719,-3.8881,-3.9017,-3.9183,-3.9373,-3.9444,-3.9527,-3.9665,-3.9712,-3.9735,-3.9889,-4.0015,-4.0117,-4.0117,-4.0215,-4.031,-4.0307,-4.0362,-4.0432,-4.0502,-4.0511,-4.0504,-4.0539,-4.0573,-4.0588,-4.0598,-4.0626,-4.064,-4.0631,-4.0607,-4.0588,-4.0588,-4.0588,-4.0588,-4.0588,-4.0588,-4.0588,-4.0588,-4.0621,-4.0635,-2.1241,-2.1679,-2.2063,-2.3672,-2.534,-2.7013,-2.8627,-2.9138,-2.9251,-2.9272,-2.9286,-2.928,-2.9262,-2.9175,-2.9044,-2.8994,-2.8929,-2.881,-2.8637,-2.8587,-2.8458,-2.8237,-2.8126,-2.7968,-2.773,-2.7509,-2.7279,-2.7007,-2.7419,-2.7547,-2.7218,-2.7876,-2.8063,-2.7608,-2.832,-2.8597,-2.8478,-2.9058,-2.9348,-2.9259,-2.9121,-2.9029,-2.8936,-2.9942,-3.0096,-2.9505,-3.0282,-3.0693,-3.0846,-3.1697,-3.2174,-3.2356,-3.2618,-3.2768,-3.2917,-3.3246,-3.3372,-3.3541,-3.4531,-3.4995,-3.5255,-3.6255,-3.6741,-3.6921,-3.7203,-3.7447,-3.7631,-3.7828,-3.7967,-3.8153,-3.835,-3.8546,-3.8719,-3.8881,-3.9007,-3.9147,-3.9346,-3.9444,-3.9527,-3.9665,-3.9689,-3.9735,-3.9889,-4.0015,-4.0098,-4.0117,-4.0215,-4.031,-4.0307,-4.0362,-4.0432,-4.0482,-4.0511,-4.0539,-4.0588,-4.0607,-4.0617,-4.0607,-4.0668,-4.0713,-4.0713,-4.0635,-4.0621,-4.0621,-4.0615,-4.0615,-4.0615,-4.0615,-4.0615,-4.0615,-4.0681,-4.0713,-2.1024,-2.1421,-2.1763,-2.3451,-2.5114,-2.6804,-2.8469,-2.8881,-2.8934,-2.9044,-2.9044,-2.9062,-2.8998,-2.8975,-2.8929,-2.8858,-2.8737,-2.8637,-2.8612,-2.8406,-2.8264,-2.8209,-2.795,-2.773,-2.763,-2.7355,-2.712,-2.6926,-2.6826,-2.6684,-2.6435,-2.6949,-2.7081,-2.6863,-2.7494,-2.7971,-2.8183,-2.8342,-2.8555,0.0,-2.8889,-2.8842,-2.8842,-2.9093,-2.9202,-2.9183,-2.9526,-2.9681,-2.9881,-3.0784,-3.1196,-3.1352,-3.218,-3.2635,-3.2785,-3.3064,-3.3279,-3.3473,-3.385,-3.414,-3.4478,-3.5439,-3.5859,-3.612,-3.7044,-3.7334,-3.7447,-3.7793,-3.7934,-3.802,-3.8318,-3.8433,-3.8528,-3.8833,-3.895,-3.9092,-3.9365,-3.9418,-3.9476,-3.9642,-3.9689,-3.9735,-3.9889,-4.0015,-4.0137,-4.0234,-4.0291,-4.031,-4.0362,-4.0379,-4.043,-4.0492,-4.0558,-4.0573,-4.0607,-4.0646,-4.0673,-4.0687,-4.0739,-4.0776,-4.0776,-4.0757,-4.0764,-4.0764,-4.0761,-4.0754,-4.0754,-4.0754,-4.0754,-4.0754,-4.0773,-4.0773,-2.0872,-2.1285,-2.1734,-2.3793,-2.5249,-2.6488,-2.781,-2.8372,-2.8687,-2.8785,-2.8858,-2.8881,-2.8858,-2.8834,-2.8785,-2.8712,-2.8612,-2.8536,-2.8458,-2.8318,-2.82,-2.8099,-2.7864,-2.7672,-2.7557,-2.7293,-2.7006,-2.6825,-2.6623,-2.638,-2.6059,-2.6278,-2.6271,-2.5979,-2.6647,-2.6971,-2.6981,-2.7343,-2.7774,-2.8249,-2.8155,-2.8231,-2.8411,-2.87,-2.8842,-2.8967,-2.9075,-2.9152,-2.9353,-2.9916,-3.0242,-3.0437,-3.099,-3.1375,-3.1609,-3.1798,-3.201,-3.2293,-3.2853,-3.3191,-3.3527,-3.4545,-3.5205,-3.5745,-3.6494,-3.6996,-3.7372,-3.7793,-3.7899,-3.7969,-3.8318,-3.8382,-3.8478,-3.8803,-3.8939,-3.9026,-3.9339,-3.9391,-3.9451,-3.9642,-3.9689,-3.9735,-3.9889,-4.0015,-4.0137,-4.0291,-4.031,-4.0327,-4.0398,-4.0432,-4.0447,-4.0508,-4.0573,-4.0603,-4.0598,-4.0673,-4.0713,-4.0739,-4.0776,-4.08,-4.0804,-4.0834,-4.0834,-4.0804,-4.0796,-4.0807,-4.0807,-4.0807,-4.0818,-4.0848,-4.0839,-4.0859,-2.0575,-2.1167,-2.1941,-2.4307,-2.5434,-2.6224,-2.7096,-2.7908,-2.851,-2.8562,-2.8662,-2.8761,-2.8737,-2.8694,-2.8644,-2.8587,-2.851,-2.8414,-2.83,-2.8209,-2.8126,-2.7986,-2.7701,-2.742,-2.7335,-2.6951,-2.6631,-2.6538,-2.637,-2.616,-2.5917,-2.5897,-2.5712,-2.5333,-2.5815,-2.6005,-2.577,-2.6381,-2.6876,-2.7334,-2.7319,-2.7559,-2.802,-2.846,-2.87,-2.8747,-2.8795,-2.892,-2.9075,-2.9213,-2.947,-2.9766,-2.981,-3.0027,-3.0375,-3.0485,-3.0651,-3.1036,-3.1844,-3.2264,-3.2581,-3.3632,-3.4567,-3.5405,-3.5909,-3.6622,-3.7372,-3.7757,-3.7864,-3.7969,-3.8318,-3.8382,-3.8478,-3.8803,-3.891,-3.8997,-3.932,-3.9391,-3.9451,-3.9642,-3.9712,-3.9777,-3.9911,-4.0036,-4.0137,-4.0291,-4.029,-4.0325,-4.0379,-4.0449,-4.0499,-4.0523,-4.0573,-4.0598,-4.0621,-4.0681,-4.0739,-4.0788,-4.0812,-4.0823,-4.0818,-4.0888,-4.0888,-4.0828,-4.0828,-4.0828,-4.0839,-4.0839,-4.0868,-4.0927,-4.0927,-4.0915,-1.9816,-2.1087,-2.2579,-2.4364,-2.5404,-2.6211,-2.7022,-2.7857,-2.8406,-2.8406,-2.8536,-2.8612,-2.8562,-2.8518,-2.8492,-2.8432,-2.838,-2.83,-2.8209,-2.8099,-2.7986,-2.7917,-2.7116,-2.6551,-2.6568,-2.5614,-2.5221,-2.571,-2.5564,-2.5577,-2.5885,-2.5897,-2.5712,-2.5333,-2.5281,-2.5392,-2.5706,-2.5699,-2.5898,-2.6412,-2.684,-2.7385,-2.802,-2.8054,-2.8201,-2.846,-2.8589,-2.8748,-2.8967,-2.9075,-2.9275,-2.9547,-2.9722,-2.9984,-3.0231,-3.0426,-3.0651,-3.0929,-3.123,-3.146,-3.1812,-3.2779,-3.3731,-3.4687,-3.5583,-3.6529,-3.7372,-3.7649,-3.781,-3.7969,-3.8318,-3.8382,-3.8478,-3.8803,-3.891,-3.8997,-3.932,-3.9391,-3.9451,-3.9642,-3.9781,-3.9911,-4.0057,-4.0096,-4.0137,-4.0291,-4.029,-4.0325,-4.0379,-4.0449,-4.0515,-4.0573,-4.0598,-4.0621,-4.0687,-4.0752,-4.0788,-4.08,-4.0846,-4.0897,-4.0897,-4.0946,-4.0974,-4.0974,-4.0974,-4.0963,-4.098,-4.098,-4.098,-4.098,-4.0988,-4.0988,-2.0205,-2.1423,-2.2593,-2.3777,-2.4688,-2.5499,-2.6343,-2.7133,-2.7815,-2.829,-2.845,-2.8484,-2.8458,-2.8432,-2.8432,-2.8353,-2.8327,-2.8246,-2.8154,-2.8071,-2.7826,-2.73,-2.6748,-2.6237,-2.5784,-2.5114,-2.4934,-2.5541,-2.5413,-2.5461,-2.5885,-2.5897,-2.5712,-2.5333,-2.5146,-2.5092,-2.5098,-2.489,-2.5017,-2.5409,-2.6393,-2.6995,-2.7248,-2.7674,-2.8039,-2.8299,-2.8444,-2.8573,-2.8748,-2.892,-2.9121,-2.9321,-2.9531,-2.9782,-3.0,-3.0215,-3.0485,-3.0692,-3.0952,-3.119,-3.1457,-3.2012,-3.2859,-3.3903,-3.4896,-3.5857,-3.6787,-3.7452,-3.7775,-3.7969,-3.8256,-3.8368,-3.8478,-3.8803,-3.891,-3.8997,-3.932,-3.9391,-3.9451,-3.9642,-3.9823,-3.9933,-4.0096,-4.0117,-4.0137,-4.0291,-4.0327,-4.0362,-4.0398,-4.0463,-4.0527,-4.0588,-4.0612,-4.0621,-4.07,-4.0764,-4.08,-4.0804,-4.0867,-4.0917,-4.0946,-4.0974,-4.0999,-4.1003,-4.1007,-4.1007,-4.0996,-4.0996,-4.1003,-4.0991,-4.1006,-4.1013,-2.0383,-2.1366,-2.2196,-2.2999,-2.3963,-2.4879,-2.5535,-2.6233,-2.7002,-2.786,-2.8048,-2.812,-2.8309,-2.8353,-2.8353,-2.8273,-2.8273,-2.8237,-2.8099,-2.8042,-2.7657,-2.6778,-2.6335,-2.5802,-2.5,-2.4459,-2.4403,-2.5,-2.5027,-2.5178,-2.5606,-2.5799,-2.5712,-2.5333,-2.5146,-2.491,-2.4589,-2.4343,-2.4402,-2.4792,-2.5785,-2.6369,-2.6602,-2.721,-2.7724,-2.8088,-2.8299,-2.8444,-2.8589,-2.8795,-2.8982,-2.9137,-2.9382,-2.9621,-2.9853,-3.0087,-3.0316,-3.0526,-3.0831,-3.1055,-3.1312,-3.1521,-3.2283,-3.336,-3.4331,-3.5308,-3.6289,-3.729,-3.7703,-3.7969,-3.8189,-3.8336,-3.8478,-3.8803,-3.8881,-3.8997,-3.932,-3.9425,-3.9508,-3.9665,-3.9823,-3.9933,-4.0096,-4.0117,-4.0137,-4.0291,-4.0364,-4.0398,-4.0398,-4.046,-4.0539,-4.0603,-4.0626,-4.0635,-4.0726,-4.0776,-4.0804,-4.0818,-4.0888,-4.0946,-4.1002,-4.0999,-4.1003,-4.0993,-4.1025,-4.1038,-4.1038,-4.1038,-4.1025,-4.1026,-4.1039,-4.105,-1.9648,-2.0507,-2.1348,-2.2161,-2.3534,-2.4712,-2.4748,-2.5337,-2.6104,-2.6915,-2.7076,-2.7326,-2.8066,-2.8246,-2.8273,-2.8209,-2.8209,-2.8154,-2.8025,-2.8014,-2.7657,-2.6729,-2.5817,-2.4983,-2.4234,-2.3219,-2.2841,-2.346,-2.4,-2.4447,-2.4851,-2.552,-2.5712,-2.5333,-2.5123,-2.4871,-2.4589,-2.4234,-2.4288,-2.4777,-2.4747,-2.539,-2.6587,-2.6617,-2.709,-2.784,-2.8088,-2.8299,-2.846,-2.87,-2.892,-2.9137,-2.9382,-2.9621,-2.9853,-3.0087,-3.0316,-3.0526,-3.0831,-3.1032,-3.123,-3.144,-3.2242,-3.3266,-3.4161,-3.5197,-3.6289,-3.7161,-3.7667,-3.7934,-3.8086,-3.8234,-3.8446,-3.8743,-3.8833,-3.8997,-3.932,-3.9558,-3.9689,-3.9689,-3.9823,-3.9933,-4.0096,-4.0117,-4.0137,-4.0291,-4.0364,-4.0398,-4.0398,-4.0511,-4.0603,-4.0607,-4.0654,-4.0726,-4.0788,-4.0804,-4.0837,-4.0897,-4.0956,-4.1002,-4.101,-4.1003,-4.0993,-4.1007,-4.1064,-4.1095,-4.1095,-4.1095,-4.11,-4.1091,-4.1091,-4.1091,-1.9578,-2.0061,-2.0655,-2.1982,-2.2714,-2.3427,-2.4462,-2.4908,-2.5319,-2.6068,-2.6229,-2.6478,-2.7281,-2.7879,-2.8237,-2.8209,-2.8154,-2.8099,-2.7996,-2.7515,-2.6813,-2.5873,-2.502,-2.4145,-2.3301,-2.2777,-2.2722,-2.3232,-2.3838,-2.4397,-2.4802,-2.5399,-2.5621,-2.5333,-2.5021,-2.4645,-2.4234,-2.3967,-2.3874,-2.3955,-2.4358,-2.4967,-2.572,-2.6232,-2.6847,-2.7539,-2.784,-2.8088,-2.8284,-2.8541,-2.8779,-2.892,-2.9137,-2.9396,-2.9621,-2.987,-3.0087,-3.0359,-3.0651,-3.0895,-3.1112,-3.1402,-3.184,-3.2513,-3.3966,-3.4769,-3.5486,-3.6925,-3.754,-3.7828,-3.7984,-3.8219,-3.8478,-3.8773,-3.8979,-3.9147,-3.9346,-3.9558,-3.9689,-3.9689,-3.9823,-3.9933,-4.0096,-4.0117,-4.0157,-4.0272,-4.0363,-4.0415,-4.0449,-4.0546,-4.0603,-4.0607,-4.0662,-4.0732,-4.0788,-4.0846,-4.0858,-4.0888,-4.0965,-4.0999,-4.1003,-4.0993,-4.1013,-4.1064,-4.1081,-4.1106,-4.1106,-4.1106,-4.1111,-4.1096,-4.11,-4.1105,-1.9255,-1.9633,-2.0187,-2.1547,-2.2107,-2.2642,-2.3998,-2.4302,-2.4516,-2.5265,-2.5426,-2.5676,-2.6443,-2.7032,-2.7585,-2.8093,-2.8154,-2.7982,-2.7642,-2.7081,-2.6274,-2.5057,-2.4444,-2.3728,-2.2781,-2.2579,-2.2592,-2.2866,-2.3687,0.0,-2.4441,-2.5216,-2.553,-2.5139,-2.4862,-2.4482,-2.4024,-2.3839,-2.3668,-2.3509,-2.3926,-2.4369,-2.4911,-2.5657,-2.6372,-2.706,-2.7535,-2.789,-2.8137,-2.8444,-2.8636,-2.8794,-2.8998,-2.9275,-2.9518,-2.9738,-2.9957,-3.0231,-3.0526,-3.0773,-3.1015,-3.1308,-3.1538,-3.2024,-3.3491,-3.4292,-3.4988,-3.6498,-3.729,-3.7739,-3.7933,-3.8186,-3.851,-3.8833,-3.9036,-3.9202,-3.9373,-3.9558,-3.9684,-3.9689,-3.9781,-3.9911,-4.0057,-4.0117,-4.0138,-4.0289,-4.0362,-4.0432,-4.0502,-4.0558,-4.0598,-4.0607,-4.0688,-4.0738,-4.0792,-4.0856,-4.0898,-4.0936,-4.0982,-4.0996,-4.0993,-4.1013,-4.105,-4.1111,-4.1096,-4.11,-4.1105,-4.11,-4.11,-4.1109,-4.1097,-4.1101,0.0,0.0,0.0,-2.0865,-2.1654,-2.2482,-2.3285,-2.3476,-2.3731,-2.4498,-2.4659,-2.489,-2.564,-2.5783,-2.63,-2.7861,-2.8055,-2.7733,-2.6871,-2.6692,-2.6028,-2.4401,-2.413,-2.371,-2.2781,-2.2596,-2.2415,-2.222,-2.3435,-2.4065,-2.3702,-2.4955,-2.54,-2.4822,-2.458,-2.4333,-2.3982,-2.3739,-2.3566,-2.3466,-2.3378,-2.3629,-2.4307,-2.4897,-2.5642,-2.647,-2.721,-2.7725,-2.8005,-2.8299,-2.8556,-2.8794,-2.8998,-2.9229,-2.9518,-2.9738,-2.9957,-3.0231,-3.0443,-3.0692,-3.0952,-3.1112,-3.1368,-3.1792,-3.2772,-3.3835,-3.4848,-3.5844,-3.6862,-3.7685,-3.7846,-3.8204,-3.8572,-3.8833,-3.9007,-3.9129,-3.9346,-3.9571,-3.9717,-3.9708,-3.9758,-3.9848,-4.0057,-4.0117,-4.0138,-4.0289,-4.0362,-4.0432,-4.0502,-4.0554,-4.0588,-4.0588,-4.072,-4.0792,-4.0807,-4.0848,-4.0927,-4.1002,-4.1007,-4.0991,-4.0994,-4.107,-4.1111,-4.1094,-4.109,-4.1097,-4.1111,-4.1097,-4.1097,-4.1111,-4.1091,-4.1099,-1.8559,0.0,0.0,0.0,0.0,0.0,-2.2464,-2.3088,-2.3547,-2.3802,-2.3838,-2.407,-2.4873,-2.4998,-2.5319,-2.63,-2.6375,-2.6198,-2.5959,-2.5368,-2.4752,-2.42,-2.3606,-2.3041,-2.2613,-2.2515,-2.2388,0.0,-2.3326,-2.4,-2.3702,-2.4701,-2.5091,-2.4686,-2.4385,-2.4094,-2.3839,-2.3625,-2.3422,-2.3216,-2.3171,-2.3463,-2.4046,-2.4253,-2.5085,-2.6258,-2.657,-2.7175,-2.7905,-2.8137,-2.8381,-2.8684,-2.8826,-2.9014,-2.9229,-2.9502,-2.9754,-3.0103,-3.0316,-3.0626,-3.0952,-3.1112,-3.1346,-3.1713,-3.2659,-3.3269,-3.3945,-3.5574,-3.6343,-3.6899,-3.791,-3.8303,-3.851,-3.8833,-3.895,-3.911,-3.9346,-3.9495,-3.9577,-3.9684,-3.9758,-3.9848,-4.0057,-4.0117,-4.0157,-4.0344,-4.0398,-4.0449,-4.0562,-4.0598,-4.0621,-4.0668,-4.0757,-4.0796,-4.0807,-4.0908,-4.0974,-4.1007,-4.1011,-4.1013,-4.107,-4.1081,-4.1096,-4.1109,-4.1101,-4.1091,-4.1103,-4.1091,-4.1091,-4.1103,-4.111,-4.1092,-1.857,-1.8559,-1.8792,-1.9593,0.0,0.0,-2.1993,-2.2638,-2.3088,-2.3422,-2.3494,-2.3636,-2.4123,-2.4212,-2.4355,-2.4783,-2.4733,-2.4757,-2.51,-2.4662,-2.4129,-2.3659,-2.3197,-2.279,-2.2542,-2.2515,-2.2343,-2.2027,-2.3295,-2.4182,-2.4395,-2.4814,-2.491,-2.4564,-2.4245,-2.3994,-2.3739,-2.3538,-2.329,-2.3082,-2.3037,-2.3182,-2.3499,-2.3868,-2.4487,-2.5379,-2.6007,-2.6713,-2.7334,-2.7883,-2.8284,-2.8541,-2.8747,-2.892,-2.9121,-2.9428,-2.9681,-2.9957,-3.0231,-3.0526,-3.0871,-3.1032,-3.1286,-3.1585,-3.2187,-3.2758,-3.3452,-3.4673,-3.5741,-3.6754,-3.7905,-3.8303,-3.8478,-3.8773,-3.891,-3.9054,-3.9339,-3.9444,-3.9502,-3.9684,-3.9735,-3.9826,-4.0057,-4.0117,-4.0157,-4.0381,-4.0398,-4.0449,-4.0573,-4.0612,-4.0635,-4.0694,-4.0761,-4.0807,-4.0837,-4.0946,-4.0991,-4.0996,-4.1006,-4.1033,-4.11,-4.1096,-4.1109,-4.1097,-4.1091,-4.1107,-4.1093,-4.1103,-4.1103,-4.1093,-4.1093,-4.1092,-1.8822,-1.8746,-1.8984,-1.9568,-1.9858,0.0,-2.1647,-2.2064,-2.2393,-2.3191,-2.3374,-2.3387,-2.3476,-2.3494,-2.3494,-2.3494,-2.3401,-2.356,-2.4268,-2.4257,-2.3841,-2.2989,-2.2893,-2.279,-2.2542,-2.2487,-2.2343,-2.2027,-2.3264,-2.4395,-2.5223,-2.5075,-2.4806,-2.4498,-2.4219,-2.3894,-2.361,-2.3348,-2.3201,-2.3052,-2.2947,-2.2843,-2.2872,-2.3482,-2.388,-2.4151,-2.5452,-2.6224,-2.6632,-2.7542,-2.8091,-2.8411,-2.87,-2.892,-2.9091,-2.9382,-2.9621,-2.981,-3.0087,-3.0401,-3.0692,-3.0871,-3.1151,-3.15,-3.1559,-3.2286,-3.3173,-3.36,-3.5064,-3.6782,-3.7708,-3.8107,-3.8337,-3.8725,-3.8851,-3.8997,-3.932,-3.9391,-3.9451,-3.9642,-3.9689,-3.98,-4.0057,-4.0117,-4.0157,-4.0381,-4.0398,-4.0447,-4.0573,-4.0612,-4.0615,-4.0694,-4.0754,-4.0837,-4.0877,-4.0956,-4.0999,-4.0996,-4.1013,-4.1045,-4.1091,-4.1105,-4.1097,-4.1108,-4.1105,-4.1093,-4.1108,-4.1093,-4.1093,-4.1111,-4.1101,-4.1101,-2.0271,-2.0324,-2.0266,-1.9794,-2.0206,0.0,-2.04,-2.0847,-2.1565,-2.2375,-2.2517,-2.2732,-2.3392,-2.3494,-2.3494,-2.3494,-2.3401,-2.3342,-2.3525,-2.3422,-2.3228,-2.2936,-2.2893,-2.279,-2.2542,-2.246,-2.2304,-2.2027,-2.2996,-2.3872,-2.442,-2.4705,-2.4742,-2.4498,-2.4094,-2.3754,-2.3494,-2.3172,-2.2918,-2.2841,-2.2721,-2.2661,-2.2661,-2.291,-2.3334,-2.3952,-2.4449,-2.5331,-2.6489,-2.6965,-2.7601,-2.8299,-2.8636,-2.8842,-2.8936,-2.9337,-2.9608,-2.977,-3.0103,-3.0359,-3.0568,-3.0831,-3.1095,-3.1351,-3.15,-3.1886,-3.2528,-3.3494,-3.4672,-3.5872,-3.6811,-3.7257,-3.7661,-3.8566,-3.8851,-3.8997,-3.932,-3.9391,-3.9451,-3.9642,-3.9689,-3.98,-4.0057,-4.0117,-4.0157,-4.0381,-4.0398,-4.0447,-4.0579,-4.0607,-4.0648,-4.0776,-4.0784,-4.0837,-4.0877,-4.0954,-4.0988,-4.0996,-4.1046,-4.11,-4.1091,-4.1105,-4.1097,-4.1108,-4.1093,-4.1097,-4.1108,-4.1099,-4.1099,-4.1108,-4.1091,-4.1108,-2.0732,-2.0695,-2.0675,-2.0336,-2.029,0.0,0.0,-2.0413,-2.0684,-2.153,-2.169,-2.1961,-2.2749,-2.291,-2.3012,-2.3399,-2.336,-2.3289,-2.3265,-2.3168,-2.3045,-2.2919,-2.2893,-2.279,-2.2542,-2.2432,-2.2417,-2.2402,-2.3063,-2.3648,-2.4132,-2.4508,-2.4564,-2.4302,-2.3967,-2.3668,-2.3407,-2.3083,-2.2873,-2.2809,-2.2675,-2.2615,-2.2615,-2.2675,-2.2953,-2.3363,-2.3853,-2.4599,-2.5423,-2.6414,-2.7122,-2.7664,-2.8512,-2.8794,-2.8842,-2.9337,-2.9518,-2.9653,-3.0076,-3.0316,-3.0485,-3.079,-3.1095,-3.1351,-3.1462,-3.18,-3.2371,-3.3493,-3.4262,-3.4996,-3.5918,-3.6377,-3.6736,-3.7319,-3.789,-3.8386,-3.8659,-3.9074,-3.9451,-3.9642,-3.9689,-3.98,-4.0057,-4.0117,-4.0157,-4.0381,-4.0398,-4.0463,-4.0574,-4.0588,-4.0662,-4.0792,-4.0796,-4.0828,-4.0946,-4.0991,-4.0996,-4.0991,-4.1058,-4.1106,-4.1091,-4.109,-4.1091,-4.1107,-4.1107,-4.1108,-4.1108,-4.1104,-4.1101,-4.1101,-4.1101,-4.1094,-2.1166,-2.1086,-2.112,-2.1025,-2.0561,-2.029,0.0,0.0,0.0,-2.0898,-2.0972,-2.1117,-2.1907,-2.2071,-2.2264,-2.2856,-2.2893,-2.2847,-2.2758,-2.2687,0.0,-2.2884,-2.2893,-2.279,-2.2542,-2.2388,-2.2387,-2.2566,-2.3078,-2.3529,-2.3867,-2.4327,-2.4426,-2.412,-2.3867,-2.3581,-2.326,-2.2994,-2.2783,-2.2704,-2.2583,-2.2509,-2.2509,-2.2555,-2.2615,-2.2824,-2.3438,-2.3914,-2.4427,-2.5819,-2.6612,-2.7128,-2.8278,-2.8747,-2.8842,-2.9291,-2.9473,-2.9563,-3.0033,-3.0274,-3.0401,-3.079,-3.1095,-3.1351,-3.1538,-3.1856,-3.2372,-3.3299,-3.3746,-3.4139,-3.5044,-3.553,-3.5793,-3.6029,-3.6801,-3.7563,-3.7917,-3.8618,-3.9245,-3.9623,-3.9689,-3.98,-4.0057,-4.0117,-4.0157,-4.0381,-4.0398,-4.0463,-4.0574,-4.0588,-4.0642,-4.0796,-4.0807,-4.0839,-4.0982,-4.1007,-4.1003,-4.0993,-4.1056,-4.1096,-4.1096,-4.1101,-4.1105,-4.1093,-4.1101,-4.1108,-4.1104,-4.1094,-4.1109,-4.1109,-4.1109,-4.1081,-2.2548,-2.2658,-2.2583,0.0,-2.1762,-2.158,-2.1027,0.0,-1.9959,-2.0834,0.0,-2.022,-2.1078,0.0,0.0,-2.1345,-2.1302,-2.1238,-2.1159,-2.1092,-2.1511,-2.2745,-2.2893,-2.279,-2.2542,-2.2215,-2.1961,-2.1765,-2.2768,-2.332,-2.3115,-2.3998,-2.44,-2.412,-2.3754,-2.3407,-2.3127,-2.2783,-2.2555,-2.2431,-2.2324,-2.2231,-2.2231,-2.237,-2.2523,-2.2615,-2.29,-2.3491,-2.4382,-2.5327,-2.6206,-2.7081,-2.8086,-2.8604,-2.8842,-2.9183,-2.9412,-2.9563,-3.0033,-3.0189,-3.0274,-3.0733,-3.1151,-3.1538,-3.1765,-3.1984,-3.2196,-3.2611,-3.2847,-3.3191,-3.4185,-3.4635,-3.5041,-3.5901,-3.6379,-3.6878,-3.7806,-3.8133,-3.8559,-3.9491,-3.9689,-3.98,-4.0057,-4.0117,-4.0157,-4.0381,-4.0398,-4.0463,-4.0574,-4.0588,-4.0642,-4.0796,-4.0807,-4.0839,-4.0982,-4.1007,-4.0991,-4.1007,-4.1056,-4.11,-4.109,-4.1097,-4.1093,-4.1094,-4.1091,-4.1104,-4.109,-4.1094,-4.1094,-4.1094,-4.11,-4.1061,-2.2764,-2.2842,0.0,0.0,0.0,0.0,-2.1597,0.0,-2.0463,0.0,0.0,0.0,0.0,0.0,0.0,0.0,-2.0955,-2.0912,-2.085,-2.0829,-2.1008,-2.1492,0.0,0.0,-2.2371,-2.213,-2.1899,-2.162,-2.2362,-2.2838,-2.2885,-2.3507,-2.3943,-2.4036,-2.3668,-2.3363,-2.3083,-2.2783,-2.2509,-2.2417,-2.2278,-2.2184,-2.2184,-2.2278,-2.2417,-2.2601,-2.2692,-2.3109,-2.3821,-2.4949,-2.5826,-2.6549,-2.7692,-2.8411,-2.8842,-2.9183,-2.9366,-2.9563,-3.0033,-3.0189,-3.0274,-3.0773,-3.119,-3.1538,-3.1839,-3.1984,-3.2179,-3.2506,-3.269,-3.2909,-3.3468,-3.3804,-3.4102,-3.4546,-3.523,-3.5935,-3.6382,-3.7355,-3.8272,-3.8846,-3.935,-3.98,-4.0057,-4.0117,-4.0157,-4.0381,-4.0398,-4.0463,-4.0574,-4.0588,-4.0642,-4.0796,-4.0807,-4.0849,-4.0999,-4.0988,-4.1018,-4.1064,-4.1072,-4.1109,-4.1101,-4.1107,-4.1094,-4.1101,-4.1094,-4.1104,-4.109,-4.1105,-4.1076,-4.1042,-4.1037,-4.1039,-2.2763,0.0,0.0,0.0,0.0,0.0,0.0,0.0,0.0,0.0,0.0,0.0,0.0,0.0,-2.088,-2.0612,0.0,-2.0484,-2.0209,-2.0153,-2.0267,-2.0552,0.0,0.0,0.0,-2.1955,-2.1869,-2.162,-2.2053,-2.2483,-2.2781,-2.3172,-2.3554,-2.4009,-2.364,-2.3319,-2.3038,-2.2737,-2.2509,-2.2324,-2.2231,-2.2184,-2.2184,-2.2184,-2.2324,-2.2615,-2.2615,-2.2873,-2.3423,-2.4752,-2.5568,-2.6153,-2.7473,-2.8314,-2.8842,-2.9075,-2.9305,-2.9563,-2.9989,-3.0231,-3.0443,-3.0855,-3.123,-3.1555,-3.1765,-3.1948,-3.2179,-3.2472,-3.2657,-3.2787,-3.3024,-3.3286,-3.3481,-3.3577,-3.4266,-3.4995,-3.534,-3.6652,-3.7897,-3.8291,-3.91,-3.9781,-4.0036,-4.0096,-4.0157,-4.0381,-4.0398,-4.0463,-4.0574,-4.0588,-4.0642,-4.0796,-4.0807,-4.0849,-4.0988,-4.0996,-4.1025,-4.11,-4.1105,-4.1101,-4.1094,-4.1091,-4.1093,-4.1103,-4.1091,-4.1097,-4.1109,-4.1096,-4.1075,-4.1007,-4.1007,-4.0993,0.0,0.0,0.0,-2.2816,0.0,0.0,0.0,0.0,-2.1966,0.0,0.0,0.0,-2.0886,-2.0907,-2.0661,-1.9867,-1.9744,0.0,0.0,-1.8533,-1.9014,-2.043,-2.1076,0.0,0.0,-2.1551,-2.1811,-2.162,-2.1973,-2.2364,-2.2796,-2.3111,-2.3529,-2.4009,-2.3538,-2.3172,-2.2889,-2.2678,-2.2463,-2.2184,-2.2091,-2.2091,-2.2184,-2.2091,-2.2231,-2.2615,-2.2615,-2.2873,-2.3423,-2.4752,-2.5568,-2.6153,-2.7473,-2.8314,-2.8794,-2.8873,-2.9167,-2.9563,-2.9902,-3.0401,-3.0871,-3.0912,-3.119,-3.15,-3.1596,-3.1856,-3.2144,-3.2422,-3.2557,-3.2687,-3.3024,-3.3214,-3.3352,-3.3549,-3.3771,-3.4223,-3.5184,-3.6205,-3.7224,-3.8131,-3.9053,-3.9758,-3.9975,-4.0057,-4.0157,-4.0381,-4.0398,-4.0463,-4.0574,-4.0588,-4.0642,-4.0796,-4.0807,-4.0849,-4.0988,-4.0996,-4.1025,-4.1111,-4.1097,-4.1097,-4.1107,-4.1093,-4.1091,-4.1091,-4.1097,-4.1105,-4.1096,-4.11,-4.1064,-4.1006,-4.1006,-4.1011,0.0,0.0,-2.2738,-2.279,0.0,0.0,0.0,0.0,0.0,0.0,0.0,0.0,0.0,-2.1638,-2.1374,-2.0565,-2.0019,-1.9594,0.0,-1.8738,-1.8478,-1.8888,-1.9493,-2.0161,0.0,0.0,-2.1284,-2.1587,-2.1552,-2.1901,-2.2765,-2.2654,-2.3029,-2.3994,-2.3538,-2.3172,-2.2889,-2.2692,-2.2463,-2.2184,-2.2137,-2.2184,-2.2184,-2.2137,-2.2324,-2.2615,-2.2615,-2.2873,-2.3393,-2.4294,-2.5179,-2.6108,-2.6972,-2.7948,-2.8794,-2.8873,-2.9152,-2.9563,-2.9989,-3.0485,-3.0912,-3.0912,-3.1151,-3.15,-3.1596,-3.1839,-3.2161,-3.2371,-3.2523,-3.2672,-3.2948,-3.3152,-3.3352,-3.3549,-3.3753,-3.4013,-3.4393,-3.5343,-3.6376,-3.7253,-3.8221,-3.9135,-3.988,-4.0057,-4.0157,-4.0381,-4.0398,-4.0463,-4.0574,-4.0588,-4.0642,-4.0796,-4.0807,-4.0849,-4.0988,-4.1039,-4.1075,-4.1091,-4.1097,-4.1097,-4.1107,-4.1094,-4.1107,-4.1111,-4.1097,-4.1105,-4.1091,-4.105,-4.102,-4.1003,-4.0996,-4.0971,-2.3802,-2.3388,0.0,-2.2833,-2.2842,0.0,-2.2952,0.0,-2.3095,0.0,0.0,0.0,0.0,-2.2382,-2.2136,-2.1351,-2.0842,-2.0311,0.0,-1.9119,-1.8558,-1.8126,-1.8676,-1.9498,-2.0488,-2.0694,-2.099,-2.157,-2.1341,-2.155,-2.2402,0.0,-2.2638,-2.3588,-2.3419,-2.3172,-2.2889,-2.2692,-2.2463,-2.2184,-2.2137,-2.2137,-2.2184,-2.2137,-2.2324,-2.2615,-2.2615,-2.2873,-2.3363,-2.4012,-2.497,-2.6092,-2.6761,-2.7733,-2.8794,-2.8858,-2.9167,-2.9665,-3.006,-3.0501,-3.0912,-3.0912,-3.1151,-3.1517,-3.1576,-3.1819,-3.2108,-3.2284,-3.2456,-3.2672,-3.2916,-3.3122,-3.3304,-3.3549,-3.3726,-3.3842,-3.3972,-3.4884,-3.5936,-3.6812,-3.7784,-3.8795,-3.9759,-4.0017,-4.0157,-4.0381,-4.0398,-4.0463,-4.0574,-4.0588,-4.0642,-4.0796,-4.0807,-4.0849,-4.0988,-4.1058,-4.1091,-4.1091,-4.1097,-4.1097,-4.1107,-4.1093,-4.1103,-4.1108,-4.1094,-4.11,-4.1091,-4.1019,-4.1006,-4.0996,-4.0982,-4.0936]}]]